[[{"header":{"parameterUnit":"m.s-1","parameterCategory":1,"la1":31.0,"la2":29.5877,"lo1":-88.7671,"lo2":-86.6584,"dy":0.0162,"dx":0.0185,"nx":115,"ny":88,"refTime":"2023-05-18T12:00:00:Z","depth":0,"parameterNumber":2,"parameterNumberName":"U-component_of_WINDS"},"data":[0.0,0.0,0.0,0.0,0.0,0.0,0.0,0.0,0.0,0.0,0.0,0.0,0.0,0.0,0.0,0.0,0.0,0.0,0.0,0.0,0.0,0.0,0.0,0.0,0.0,0.0,0.0,0.0,0.0,0.0,0.0,0.0,0.0,0.0,0.0,0.0,0.0,0.0,0.0,0.0,0.0,0.0,0.0,0.0,0.0,0.0,0.0,0.0,0.0,0.0,0.0,0.0,0.0,0.0,0.0,0.0,0.0,0.0,0.0,0.0,0.0,0.0,0.0,0.0,0.0,0.0,0.0,0.0,0.0,0.0,0.0,0.0,0.0,0.0,0.0,0.0,0.0,0.0,0.0,0.0,0.0,0.0,0.0,0.0,0.0,0.0,0.0,0.0,0.0,0.0,0.0,0.0,0.0,0.0,0.0,0.0,0.0,0.0,0.0,0.0,0.0,0.0,0.0,0.0,0.0,0.0,0.0,0.0,0.0,0.0,0.0,0.0,0.0,0.0,0.0,0.0,0.0,0.0,0.0,0.0,0.0,0.0,0.0,0.0,0.0,0.0,0.0,0.0,0.0,0.0,0.0,0.0,0.0,0.0,0.0,0.0,0.0,0.0,0.0,0.0,0.0,0.0,0.0,0.0,0.0,0.0,0.0,0.0,0.0,0.0,0.0,0.0,0.0,0.0,0.0,0.0,0.0,0.0,0.0,0.0,0.0,0.0,0.0,0.0,0.0,0.0,0.0,0.0,0.0,0.0,0.0,0.0,0.0,0.0,0.0,0.0,0.0,0.0,0.0,0.0,0.0,0.0,0.0,0.0,0.0,0.0,0.0,0.0,0.0,0.0,0.0,0.0,0.0,0.0,0.0,0.0,0.0,0.0,0.0,0.0,0.0,0.0,0.0,0.0,0.0,0.0,0.0,0.0,0.0,0.0,0.0,0.0,0.0,0.0,0.0,0.0,0.0,0.0,0.0,0.0,0.0,0.0,0.0,0.0,0.0,0.0,0.0,0.0,0.0,0.0,0.0,0.0,0.0,0.0,0.0,0.0,0.0,0.0,0.0,0.0,0.0,0.0,0.0,0.0,0.0,0.0,0.0,0.0,0.0,0.0,0.0,0.0,0.0,0.0,0.0,0.0,0.0,0.0,0.0,0.0,0.0,0.0,0.0,0.0,0.0,0.0,0.0,0.0,0.0,0.0,0.0,0.0,0.0,0.0,0.0,0.0,0.0,0.0,0.0,0.0,0.0,0.0,0.0,0.0,0.0,0.0,0.0,0.0,0.0,0.0,0.0,0.0,0.0,0.0,0.0,0.0,0.0,0.0,0.0,0.0,0.0,0.0,0.0,0.0,0.0,0.0,0.0,0.0,0.0,0.0,0.0,0.0,0.0,0.0,0.0,0.0,0.0,0.0,0.0,0.0,0.0,0.0,0.0,0.0,0.0,0.0,0.0,0.0,0.0,0.0,0.0,0.0,0.0,0.0,0.0,0.0,0.0,0.0,0.0,0.0,0.0,0.0,0.0,0.0,0.0,0.0,0.0,0.0,0.0,0.0,0.0,0.0,0.0,0.0,0.0,0.0,0.0,0.0,0.0,0.0,0.0,0.0,0.0,0.0,0.0,0.0,0.0,0.0,0.0,0.0,0.0,0.0,0.0,0.0,0.0,0.0,0.0,0.0,0.0,0.0,0.0,0.0,0.0,0.0,0.0,0.0,0.0,0.0,0.0,0.0,0.0,0.0,0.0,0.0,0.0,0.0,0.0,0.0,0.0,0.0,0.0,0.0,0.0,0.0,0.0,0.0,0.0,0.0,0.0,0.0,0.0,0.0,0.0,0.0,0.0,0.0,0.0,0.0,0.0,0.0,0.0,0.0,0.0,0.0,0.0,0.0,0.0,0.0,0.0,0.0,0.0,0.0,0.0,0.0,0.0,0.0,0.0,0.0,0.0,0.0,0.0,0.0,0.0,0.0,0.0,0.0,0.0,0.0,0.0,0.0,0.0,0.0,0.0,0.0,0.0,0.0,0.0,0.0,0.0,0.0,0.0,0.0,0.0,0.0,0.0,0.0,0.0,0.0,0.0,0.0,0.0,0.0,0.0,0.0,0.0,0.0,0.0,0.0,0.0,0.0,0.0,0.0,0.0,0.0,0.0,0.0,0.0,0.0,0.0,0.0,0.0,0.0,0.0,0.0,0.0,0.0,0.0,0.0,0.0,0.0,0.0,0.0,0.0,0.0,0.0,0.0,0.0,0.0,0.0,0.0,0.0,0.0,0.0,0.0,0.0,0.0,0.0,0.0,0.0,0.0,0.0,0.0,0.0,0.0,0.0,0.0,0.0,0.0,0.0,0.0,0.0,0.0,0.0,0.0,0.0,0.0,0.0,0.0,0.0,0.0,0.0,0.0,0.0,0.0,0.0,0.0,0.0,0.0,0.0,0.0,0.0,0.0,0.0,0.0,0.0,0.0,0.0,0.0,0.0,0.0,0.0,0.0,0.0,0.0,0.0,0.0,0.0,0.0,0.0,0.0,0.0,0.0,0.0,0.0,0.0,0.0,0.0,0.0,0.0,0.0,0.0,0.0,0.0,0.0,0.0,0.0,0.0,0.0,0.0,0.0,0.0,0.0,0.0,0.0,0.0,0.0,0.0,0.0,0.0,0.0,0.0,0.0,0.0,0.0,0.0,0.0,0.0,0.0,0.0,0.0,0.0,0.0,0.0,0.0,0.0,0.0,0.0,0.0,0.0,0.0,0.0,0.0,0.0,0.0,0.0,0.0,0.0,0.0,0.0,0.0,0.0,0.0,0.0,0.0,0.0,0.0,0.0,0.0,0.0,0.0,0.0,0.0,0.0,0.0,0.0,0.0,0.0,0.0,0.0,0.0,0.0,0.0,0.0,0.0,0.0,0.0,0.0,0.0,0.0,0.0,0.0,0.0,0.0,0.0,0.0,0.0,0.0,0.0,0.0,0.0,0.0,0.0,0.0,0.0,0.0,0.0,0.0,0.0,0.0,0.0,0.0,0.0,0.0,0.0,0.0,0.0,0.0,0.0,0.0,0.0,0.0,0.0,0.0,0.0,0.0,0.0,0.0,0.0,0.0,0.0,0.0,0.0,0.0,0.0,0.0,0.0,0.0,0.0,0.0,0.0,0.0,0.0,0.0,0.0,0.0,0.0,0.0,0.0,0.0,0.0,0.0,0.0,0.0,0.0,0.0,0.0,0.0,0.0,0.0,0.0,0.0,0.0,0.0,0.0,0.0,0.0,0.0,0.0,0.0,0.0,0.0,0.0,0.0,0.0,0.0,0.0,0.0,0.0,0.0,0.0,0.0,0.0,0.0,0.0,0.0,0.0,0.0,0.0,0.0,0.0,0.0,0.0,0.0,0.0,0.0,0.0,0.0,0.0,0.0,0.0,0.0,0.0,0.0,0.0,0.0,0.0,0.0,0.0,0.0,0.0,0.0,0.0,0.0,0.0,0.0,0.0,0.0,0.0,0.0,0.0,0.0,0.0,0.0,0.0,0.0,0.0,0.0,0.0,0.0,0.0,0.0,0.0,0.0,0.0,0.0,0.0,0.0,0.0,0.0,0.0,0.0,0.0,0.0,0.0,0.0,0.0,0.0,0.0,0.0,0.0,0.0,0.0,0.0,0.0,0.0,0.0,0.0,0.0,0.0,0.0,0.0,0.0,0.0,0.0,0.0,0.0,0.0,0.0,0.0,0.0,0.0,0.0,0.0,0.0,0.0,0.0,0.0,0.0,0.0,0.0,0.0,0.0,0.0,0.0,0.0,0.0,0.0,0.0,0.0,0.0,0.0,0.0,0.0,0.0,0.0,0.0,0.0,0.0,0.0,0.0,0.0,0.0,0.0,0.0,0.0,0.0,0.0,0.0,0.0,0.0,0.0,0.0,0.0,0.0,0.0,0.0,0.0,0.0,0.0,0.0,0.0,0.0,0.0,0.0,0.0,0.0,0.0,0.0,0.0,0.0,0.0,0.0,0.0,0.0,0.0,0.0,0.0,0.0,0.0,0.0,0.0,0.0,0.0,0.0,0.0,0.0,0.0,0.0,0.0,0.0,0.0,0.0,0.0,0.0,0.0,0.0,0.0,0.0,0.0,0.0,0.0,0.0,0.0,0.0,0.0,0.0,0.0,0.0,0.0,0.0,0.0,0.0,0.0,0.0,0.0,0.0,0.0,0.0,0.0,0.0,0.0,0.0,0.0,0.0,0.0,0.0,0.0,0.0,0.0,0.0,0.0,0.0,0.0,0.0,0.0,0.0,-0.5131,0.0,0.0,0.0,0.0,0.0,0.0,0.0,0.0,0.0,0.0,0.0,0.0,0.0,0.0,0.0,0.0,0.0,0.0,0.0,0.0,0.0,0.0,0.0,0.0,0.0,0.0,0.0,0.0,0.0,0.0,0.0,0.0,0.0,0.0,0.0,0.0,0.0,0.0,0.0,0.0,0.0,0.0,0.0,0.0,0.0,0.0,0.0,0.0,0.0,0.0,0.0,0.0,0.0,0.0,0.0,0.0,0.0,0.0,0.0,0.0,0.0,0.0,0.0,0.0,0.0,0.0,0.0,0.0,0.0,0.0,0.0,0.0,0.0,0.0,0.0,0.0,0.0,0.0,0.0,0.0,0.0,0.0,0.0,0.0,0.0,0.0,0.0,0.0,0.0,0.0,0.0,0.0,0.0,0.0,0.0,0.0,0.0,0.0,0.0,0.0,0.0,0.0,0.0,0.0,0.0,0.0,0.0,0.0,0.0,0.0,-0.6996,-0.6276,-0.6311,-0.6387,-0.6483,0.0,0.0,0.0,0.0,0.0,0.0,0.0,0.0,0.0,0.0,0.0,0.0,0.0,0.0,0.0,0.0,0.0,0.0,0.0,0.0,0.0,0.0,0.0,0.0,0.0,0.0,0.0,0.0,0.0,0.0,0.0,0.0,0.0,0.0,0.0,0.0,0.0,0.0,0.0,0.0,0.0,0.0,0.0,0.0,0.0,0.0,0.0,0.0,0.0,0.0,0.0,0.0,0.0,0.0,0.0,0.0,0.0,0.0,0.0,0.0,0.0,0.0,0.0,0.0,0.0,0.0,0.0,0.0,0.0,0.0,0.0,0.0,0.0,0.0,0.0,0.0,0.0,0.0,0.0,0.0,0.0,0.0,0.0,0.0,0.0,0.0,0.0,0.0,0.0,0.0,0.0,0.0,0.0,0.0,0.0,0.0,0.0,0.0,0.0,0.0,0.0,0.0,0.0,0.0,0.0,0.0,0.0,0.0,0.0,0.0,0.0,0.0,-0.7406,-0.7501,-0.7618,0.0,0.0,0.0,0.0,0.0,0.0,0.0,0.0,0.0,0.0,0.0,0.0,0.0,0.0,0.0,0.0,0.0,0.0,0.0,0.0,0.0,0.0,0.0,0.0,0.0,0.0,0.0,0.0,0.0,0.0,0.0,0.0,0.0,0.0,0.0,0.0,0.0,0.0,0.0,0.0,0.0,0.0,0.0,0.0,0.0,0.0,0.0,0.0,0.0,0.0,0.0,0.0,0.0,0.0,0.0,0.0,0.0,0.0,0.0,0.0,0.0,0.0,0.0,0.0,0.0,0.0,0.0,0.0,0.0,0.0,0.0,0.0,0.0,0.0,0.0,0.0,0.0,0.0,0.0,0.0,0.0,0.0,0.0,0.0,0.0,0.0,0.0,0.0,0.0,0.0,0.0,0.0,0.0,0.0,0.0,0.0,0.0,0.0,0.0,0.0,0.0,0.0,0.0,0.0,0.0,0.0,0.0,0.0,0.0,0.0,-0.7139,-0.7214,-0.7348,0.0,-0.7584,0.0,0.0,0.0,0.0,0.0,0.0,0.0,0.0,0.0,0.0,0.0,0.0,0.0,0.0,0.0,0.0,0.0,0.0,0.0,0.0,0.0,0.0,0.0,0.0,0.0,0.0,0.0,0.0,0.0,0.0,0.0,0.0,0.0,0.0,0.0,0.0,0.0,0.0,0.0,0.0,0.0,0.0,0.0,0.0,0.0,0.0,0.0,0.0,0.0,0.0,0.0,0.0,0.0,0.0,0.0,0.0,0.0,0.0,0.0,0.0,0.0,0.0,0.0,0.0,0.0,0.0,0.0,0.0,0.0,0.0,0.0,0.0,0.0,0.0,0.0,0.0,0.0,0.0,0.0,0.0,0.0,0.0,0.0,0.0,0.0,0.0,0.0,0.0,0.0,0.0,0.0,0.0,0.0,0.0,0.0,0.0,0.0,0.0,0.0,0.0,0.0,0.0,0.0,0.0,0.0,0.0,0.0,0.0,0.0,0.0,-0.8354,-0.8512,-0.8712,-0.8659,0.0,0.0,0.0,0.0,0.0,0.0,0.0,0.0,0.0,0.0,0.0,0.0,0.0,0.0,0.0,0.0,0.0,0.0,0.0,0.0,0.0,0.0,0.0,0.0,0.0,0.0,0.0,0.0,0.0,0.0,0.0,0.0,0.0,0.0,0.0,0.0,0.0,0.0,0.0,0.0,0.0,0.0,0.0,0.0,0.0,0.0,0.0,0.0,0.0,0.0,0.0,0.0,0.0,0.0,0.0,0.0,0.0,0.0,0.0,0.0,0.0,0.0,0.0,0.0,0.0,0.0,0.0,0.0,0.0,0.0,0.0,0.0,0.0,0.0,0.0,0.0,0.0,0.0,0.0,0.0,0.0,0.0,0.0,0.0,0.0,0.0,0.0,0.0,0.0,0.0,0.0,0.0,0.0,0.0,0.0,0.0,0.0,0.0,0.0,0.0,0.0,0.0,0.0,0.0,0.0,0.0,0.0,0.0,0.0,0.0,-0.8398,-0.9204,-0.9376,-0.9414,-0.9081,-0.8424,0.0,0.0,0.0,0.0,0.0,0.0,0.0,0.0,0.0,0.0,0.0,0.0,0.0,0.0,0.0,0.0,0.0,0.0,0.0,0.0,0.0,0.0,0.0,0.0,0.0,0.0,0.0,0.0,0.0,0.0,0.0,0.0,0.0,0.0,0.0,0.0,0.0,0.0,0.0,0.0,0.0,0.0,0.0,0.0,0.0,0.0,0.0,0.0,0.0,0.0,0.0,0.0,0.0,0.0,0.0,0.0,0.0,0.0,0.0,0.0,0.0,0.0,0.0,0.0,0.0,0.0,0.0,0.0,0.0,0.0,0.0,0.0,0.0,0.0,0.0,0.0,0.0,0.0,0.0,0.0,0.0,0.0,0.0,0.0,0.0,0.0,0.0,0.0,0.0,0.0,0.0,0.0,0.0,0.0,0.0,0.0,0.0,0.0,0.0,0.0,0.0,0.0,0.0,0.0,0.0,0.0,0.0,0.0,-0.7661,-0.8491,-0.9057,-0.9385,-0.8792,-0.8147,0.0,0.0,0.0,0.0,0.0,0.0,0.0,0.0,0.0,0.0,0.0,0.0,0.0,0.0,0.0,0.0,0.0,0.0,0.0,0.0,0.0,0.0,0.0,0.0,0.0,0.0,0.0,0.0,0.0,0.0,0.0,0.0,0.0,0.0,0.0,0.0,0.0,0.0,0.0,0.0,0.0,0.0,0.0,0.0,0.0,0.0,0.0,0.0,0.0,0.0,0.0,0.0,0.0,0.0,0.0,0.0,0.0,0.0,0.0,0.0,0.0,0.0,0.0,0.0,0.0,0.0,0.0,0.0,0.0,0.0,0.0,0.0,0.0,0.0,0.0,0.0,0.0,0.0,0.0,0.0,0.0,0.0,0.0,0.0,0.0,0.0,0.0,0.0,0.0,0.0,0.0,0.0,0.0,0.0,0.0,0.0,0.0,0.0,0.0,0.0,0.0,0.0,0.0,0.0,0.0,0.0,0.0,0.0,0.0,-0.76,-0.8399,-0.8925,-0.9139,-0.902,-0.8439,0.0,0.0,0.0,0.0,0.0,0.0,0.0,0.0,0.0,0.0,0.0,0.0,0.0,0.0,0.0,0.0,0.0,0.0,0.0,0.0,0.0,0.0,0.0,0.0,0.0,0.0,0.0,0.0,0.0,0.0,0.0,0.0,0.0,0.0,0.0,0.0,0.0,0.0,0.0,0.0,0.0,0.0,0.0,0.0,0.0,0.0,0.0,0.0,0.0,0.0,0.0,0.0,0.0,0.0,0.0,0.0,0.0,0.0,0.0,0.0,0.0,0.0,0.0,0.0,0.0,0.0,0.0,0.0,0.0,0.0,0.0,0.0,0.0,0.0,0.0,0.0,0.0,0.0,0.0,0.0,0.0,0.0,0.0,0.0,0.0,0.0,0.0,0.0,0.0,0.0,0.0,0.0,0.0,0.0,0.0,0.0,0.0,0.0,0.0,0.0,0.0,0.0,0.0,0.0,0.0,0.0,0.0,0.0,0.0,-0.7809,0.0,-0.8806,0.0,-0.8858,-0.8424,0.0,0.0,0.0,0.0,0.0,0.0,0.0,0.0,0.0,0.0,0.0,0.0,0.0,0.0,0.0,0.0,0.0,0.0,0.0,0.0,0.0,0.0,0.0,0.0,0.0,0.0,0.0,0.0,0.0,0.0,0.0,0.0,0.0,0.0,0.0,0.0,0.0,0.0,0.0,0.0,0.0,0.0,0.0,0.0,0.0,0.0,0.0,0.0,0.0,0.0,0.0,0.0,0.0,0.0,0.0,0.0,0.0,0.0,0.0,0.0,0.0,0.0,0.0,0.0,0.0,0.0,0.0,0.0,0.0,0.0,0.0,0.0,0.0,0.0,0.0,0.0,0.0,0.0,0.0,0.0,0.0,0.0,0.0,0.0,0.0,0.0,0.0,0.0,0.0,0.0,0.0,0.0,0.0,0.0,0.0,0.0,0.0,0.0,0.0,0.0,0.0,0.0,0.0,0.0,0.0,0.0,0.0,0.0,-0.8319,-0.8387,-0.8497,-0.8636,-0.8686,-0.8241,-0.804,0.0,0.0,0.0,0.0,0.0,0.0,0.0,0.0,0.0,0.0,0.0,0.0,0.0,0.0,0.0,0.0,0.0,0.0,0.0,0.0,0.0,0.0,0.0,0.0,0.0,0.0,0.0,0.0,0.0,0.0,0.0,0.0,0.0,0.0,0.0,0.0,0.0,0.0,0.0,0.0,0.0,0.0,0.0,0.0,0.0,0.0,0.0,0.0,0.0,0.0,0.0,0.0,0.0,0.0,0.0,0.0,0.0,0.0,0.0,0.0,0.0,0.0,0.0,0.0,0.0,0.0,0.0,0.0,0.0,0.0,0.0,0.0,0.0,0.0,0.0,0.0,0.0,0.0,0.0,0.0,0.0,0.0,0.0,0.0,0.0,0.0,0.0,0.0,0.0,0.0,0.0,0.0,0.0,0.0,0.0,0.0,0.0,0.0,0.0,0.0,0.0,0.0,0.0,0.0,0.0,0.0,0.0,0.0,0.0,-0.8258,-0.8393,-0.8492,-0.8559,-0.8538,-0.8377,0.0,0.0,0.0,0.0,0.0,0.0,0.0,0.0,0.0,0.0,0.0,0.0,0.0,0.0,0.0,0.0,0.0,0.0,0.0,0.0,0.0,0.0,0.0,0.0,0.0,0.0,0.0,0.0,0.0,0.0,0.0,0.0,0.0,0.0,0.0,0.0,0.0,0.0,0.0,0.0,0.0,0.0,0.0,0.0,0.0,0.0,0.0,0.0,0.0,0.0,0.0,0.0,0.0,0.0,0.0,0.0,0.0,0.0,0.0,0.0,0.0,0.0,0.0,0.0,0.0,0.0,0.0,0.0,0.0,0.0,0.0,0.0,0.0,0.0,0.0,0.0,0.0,0.0,0.0,0.0,0.0,0.0,0.0,0.0,0.0,0.0,0.0,0.0,0.0,0.0,0.0,0.0,0.0,0.0,0.0,0.0,0.0,0.0,0.0,0.0,0.0,0.0,0.0,0.0,0.0,0.0,0.0,0.0,0.0,-0.8437,-0.8595,-0.8734,-0.8794,-0.8996,-0.8856,-0.8354,0.0,0.0,0.0,0.0,0.0,0.0,0.0,0.0,0.0,0.0,0.0,0.0,0.0,0.0,0.0,0.0,0.0,0.0,0.0,0.0,0.0,0.0,0.0,0.0,0.0,0.0,0.0,0.0,0.0,0.0,0.0,0.0,0.0,0.0,0.0,0.0,0.0,0.0,0.0,0.0,0.0,0.0,0.0,0.0,0.0,0.0,0.0,0.0,0.0,0.0,0.0,0.0,0.0,0.0,0.0,0.0,0.0,0.0,0.0,0.0,0.0,0.0,0.0,0.0,0.0,0.0,0.0,0.0,0.0,0.0,0.0,0.0,0.0,0.0,0.0,0.0,0.0,0.0,0.0,0.0,0.0,0.0,0.0,0.0,0.0,0.0,0.0,0.0,0.0,0.0,0.0,0.0,0.0,0.0,0.0,0.0,0.0,0.0,0.0,0.0,0.0,0.0,0.0,0.0,0.0,0.0,0.0,0.0,-0.8852,-0.9155,-0.9313,-0.9262,-0.9486,-0.9366,0.0,0.0,0.0,0.0,0.0,0.0,0.0,0.0,0.0,0.0,0.0,0.0,0.0,0.0,0.0,0.0,0.0,0.0,0.0,0.0,0.0,0.0,0.0,0.0,0.0,0.0,0.0,0.0,0.0,0.0,0.0,0.0,0.0,0.0,0.0,0.0,0.0,0.0,0.0,0.0,0.0,0.0,0.0,0.0,0.0,0.0,0.0,0.0,0.0,0.0,0.0,0.0,0.0,0.0,0.0,0.0,0.0,0.0,0.0,0.0,0.0,0.0,0.0,0.0,0.0,0.0,0.0,0.0,0.0,0.0,0.0,0.0,0.0,0.0,0.0,0.0,0.0,0.0,0.0,0.0,0.0,0.0,0.0,0.0,0.0,0.0,0.0,0.0,0.0,0.0,0.0,0.0,0.0,0.0,0.0,0.0,0.0,0.0,0.0,0.0,0.0,0.0,0.0,0.0,0.0,0.0,0.0,0.0,0.0,-0.938,-1.0377,-1.0339,-0.9219,-0.9356,-0.9205,0.0,0.0,0.0,0.0,0.0,0.0,0.0,0.0,0.0,0.0,0.0,0.0,0.0,0.0,0.0,0.0,0.0,0.0,0.0,0.0,0.0,0.0,0.0,0.0,0.0,0.0,0.0,0.0,0.0,0.0,0.0,0.0,0.0,0.0,0.0,0.0,0.0,0.0,0.0,0.0,0.0,0.0,0.0,0.0,0.0,0.0,0.0,0.0,0.0,0.0,0.0,0.0,0.0,0.0,0.0,0.0,0.0,0.0,0.0,0.0,0.0,0.0,0.0,0.0,0.0,0.0,0.0,0.0,0.0,0.0,0.0,0.0,0.0,0.0,0.0,0.0,0.0,0.0,0.0,0.0,0.0,0.0,0.0,0.0,0.0,0.0,0.0,0.0,0.0,0.0,0.0,0.0,0.0,0.0,0.0,0.0,0.0,0.0,0.0,0.0,0.0,0.0,0.0,0.0,0.0,0.0,0.0,0.0,-0.8715,-0.9465,-1.0714,-1.1078,-1.0404,-1.0544,-1.0081,0.0,0.0,0.0,0.0,0.0,0.0,0.0,0.0,0.0,0.0,0.0,0.0,0.0,0.0,0.0,0.0,0.0,0.0,0.0,0.0,0.0,0.0,0.0,0.0,0.0,0.0,0.0,0.0,0.0,0.0,0.0,0.0,0.0,0.0,0.0,0.0,0.0,0.0,0.0,0.0,0.0,0.0,0.0,0.0,0.0,0.0,0.0,0.0,0.0,0.0,0.0,0.0,0.0,0.0,0.0,0.0,0.0,0.0,0.0,0.0,0.0,0.0,0.0,0.0,0.0,0.0,0.0,0.0,0.0,0.0,0.0,0.0,0.0,0.0,0.0,0.0,0.0,0.0,0.0,0.0,0.0,0.0,0.0,0.0,0.0,0.0,0.0,0.0,0.0,0.0,0.0,0.0,0.0,0.0,0.0,0.0,0.0,0.0,0.0,0.0,0.0,0.0,0.0,0.0,0.0,0.0,0.0,0.0,-0.8806,-0.9275,-1.0597,-1.1563,-1.2123,-1.2169,-1.1364,0.0,0.0,0.0,0.0,0.0,0.0,0.0,0.0,0.0,0.0,0.0,0.0,0.0,0.0,0.0,0.0,0.0,0.0,0.0,0.0,0.0,0.0,0.0,0.0,0.0,0.0,0.0,0.0,0.0,0.0,0.0,0.0,0.0,0.0,0.0,0.0,0.0,0.0,0.0,0.0,0.0,0.0,0.0,0.0,0.0,0.0,0.0,0.0,0.0,0.0,0.0,0.0,0.0,0.0,0.0,0.0,0.0,0.0,0.0,0.0,0.0,0.0,0.0,0.0,0.0,0.0,0.0,0.0,0.0,0.0,0.0,0.0,0.0,0.0,0.0,0.0,0.0,0.0,0.0,0.0,0.0,0.0,0.0,0.0,0.0,0.0,0.0,0.0,0.0,0.0,0.0,0.0,0.0,0.0,0.0,0.0,0.0,0.0,0.0,0.0,0.0,0.0,0.0,0.0,0.0,0.0,0.0,0.0,-0.871,-0.9166,-1.0948,-1.1913,-1.1891,-1.1536,-1.1044,0.0,0.0,0.0,0.0,0.0,0.0,0.0,0.0,0.0,0.0,0.0,0.0,0.0,0.0,0.0,0.0,0.0,0.0,0.0,0.0,0.0,0.0,0.0,0.0,0.0,0.0,0.0,0.0,0.0,0.0,0.0,0.0,0.0,0.0,0.0,0.0,0.0,0.0,0.0,0.0,0.0,0.0,0.0,0.0,0.0,0.0,0.0,0.0,-0.337,0.0,0.0,0.0,0.0,0.0,0.0,0.0,0.0,0.0,0.0,0.0,0.0,0.0,0.0,0.0,0.0,0.0,0.0,0.0,0.0,0.0,0.0,0.0,0.0,0.0,0.0,0.0,0.0,0.0,0.0,0.0,0.0,0.0,0.0,0.0,0.0,0.0,0.0,0.0,0.0,0.0,0.0,0.0,0.0,0.0,0.0,0.0,0.0,0.0,0.0,0.0,0.0,0.0,0.0,0.0,0.0,0.0,0.0,0.0,-0.8594,-0.902,-1.0739,-1.1907,-1.2394,-1.1871,-1.12,0.0,0.0,0.0,0.0,0.0,0.0,0.0,0.0,0.0,0.0,0.0,0.0,0.0,0.0,0.0,0.0,0.0,0.0,0.0,0.0,0.0,0.0,0.0,0.0,0.0,0.0,0.0,0.0,0.0,0.0,0.0,0.0,0.0,0.0,0.0,0.0,0.0,0.0,0.0,0.0,0.0,0.0,0.0,0.0,0.0,0.0,0.0,0.0,0.0,0.0,0.0,0.0,0.0,0.0,0.0,0.0,0.0,0.0,0.0,0.0,0.0,0.0,0.0,0.0,0.0,0.0,0.0,0.0,0.0,0.0,0.0,0.0,0.0,0.0,0.0,0.0,0.0,0.0,0.0,0.0,0.0,0.0,0.0,0.0,0.0,0.0,0.0,0.0,0.0,0.0,0.0,0.0,0.0,0.0,0.0,0.0,0.0,0.0,0.0,0.0,0.0,0.0,0.0,0.0,0.0,0.0,0.0,-0.7761,-0.8612,-0.9083,-1.0423,-1.1722,-1.2937,-1.2366,-1.1453,-1.0258,0.0,0.0,0.0,0.0,0.0,0.0,0.0,0.0,0.0,0.0,0.0,0.0,0.0,0.0,0.0,0.0,0.0,0.0,0.0,0.0,0.0,0.0,0.0,0.0,0.0,0.0,0.0,0.0,0.0,0.0,0.0,0.0,0.0,0.0,0.0,0.0,0.0,0.0,-0.3809,-0.3622,0.0,0.0,0.0,0.0,0.0,0.0,0.0,0.0,-0.3028,0.0,0.0,0.0,0.0,0.0,0.0,0.0,0.0,0.0,0.0,0.0,0.0,0.0,0.0,0.0,0.0,0.0,0.0,0.0,0.0,0.0,0.0,0.0,0.0,0.0,0.0,0.0,0.0,0.0,0.0,0.0,0.0,0.0,0.0,0.0,0.0,0.0,0.0,0.0,0.0,0.0,0.0,0.0,0.0,0.0,0.0,0.0,0.0,0.0,0.0,0.0,0.0,0.0,0.0,0.0,0.0,-0.7313,-0.8233,-0.9048,-0.9727,-1.0796,-1.1563,-1.202,-1.185,-1.1253,-1.02,0.0,0.0,0.0,0.0,0.0,0.0,0.0,0.0,0.0,0.0,0.0,0.0,0.0,0.0,0.0,0.0,0.0,0.0,0.0,0.0,0.0,0.0,0.0,0.0,0.0,0.0,0.0,0.0,0.0,0.0,0.0,0.0,0.0,0.0,0.0,0.0,0.0,0.0,0.0,-0.3584,-0.3386,0.0,0.0,0.0,0.0,0.0,0.0,0.0,0.0,-0.3451,0.0,0.0,0.0,0.0,0.0,0.0,0.0,0.0,0.0,0.0,0.0,0.0,0.0,0.0,0.0,0.0,0.0,0.0,0.0,0.0,0.0,0.0,0.0,0.0,0.0,0.0,0.0,0.0,0.0,0.0,0.0,0.0,0.0,0.0,0.0,0.0,0.0,0.0,0.0,0.0,0.0,0.0,0.0,0.0,0.0,0.0,0.0,0.0,0.0,0.0,0.0,0.0,0.0,0.0,0.0,-0.7496,-0.8635,-0.9462,-0.987,-1.0875,-1.1497,-1.1747,-1.1768,-1.1253,0.0,0.0,0.0,0.0,0.0,0.0,0.0,0.0,0.0,0.0,0.0,0.0,0.0,0.0,0.0,0.0,0.0,0.0,0.0,0.0,0.0,0.0,0.0,0.0,0.0,0.0,0.0,0.0,0.0,0.0,0.0,0.0,0.0,0.0,0.0,0.0,0.0,0.0,0.0,0.0,-0.2898,-0.2567,-0.3125,0.0,0.0,0.0,0.0,0.0,0.0,-0.3837,-0.3649,0.0,0.0,0.0,0.0,0.0,0.0,0.0,0.0,0.0,0.0,0.0,0.0,0.0,0.0,0.0,0.0,0.0,0.0,0.0,0.0,0.0,0.0,0.0,0.0,0.0,0.0,0.0,0.0,0.0,0.0,0.0,0.0,0.0,0.0,0.0,0.0,0.0,0.0,0.0,0.0,0.0,0.0,0.0,0.0,0.0,0.0,0.0,0.0,0.0,0.0,0.0,0.0,0.0,0.0,0.0,-0.7877,-0.9095,-0.9859,-1.0062,-1.0954,-1.1519,-1.1681,-1.1805,-1.1273,0.0,0.0,0.0,0.0,0.0,0.0,0.0,0.0,0.0,0.0,0.0,0.0,0.0,0.0,0.0,0.0,0.0,0.0,0.0,0.0,0.0,0.0,0.0,0.0,0.0,0.0,0.0,0.0,0.0,0.0,0.0,0.0,0.0,0.0,0.0,0.0,0.0,0.0,0.0,0.0,0.0,-0.2258,-0.2938,-0.2866,0.0,0.0,0.0,0.0,-0.4796,-0.438,0.0,0.0,0.0,0.0,0.0,0.0,0.0,0.0,0.0,0.0,0.0,0.0,0.0,0.0,0.0,0.0,0.0,0.0,0.0,0.0,0.0,0.0,0.0,0.0,0.0,0.0,0.0,0.0,0.0,0.0,0.0,0.0,0.0,0.0,0.0,0.0,0.0,0.0,0.0,0.0,0.0,0.0,0.0,0.0,0.0,0.0,0.0,0.0,0.0,0.0,0.0,0.0,0.0,0.0,0.0,0.0,-0.9227,-0.9777,-1.0314,-1.0852,-1.1347,-1.1578,-1.1615,-1.1681,-1.1156,0.0,0.0,0.0,0.0,0.0,0.0,0.0,0.0,0.0,0.0,0.0,0.0,0.0,0.0,0.0,0.0,0.0,0.0,0.0,0.0,0.0,0.0,0.0,0.0,0.0,0.0,0.0,0.0,0.0,0.0,0.0,0.0,0.0,0.0,0.0,0.0,0.0,0.0,0.0,0.0,0.0,-0.3754,-0.2948,-0.3788,-0.438,0.0,0.0,-0.4757,-0.5593,-0.5539,0.0,0.0,0.0,0.0,0.0,0.0,0.0,0.0,0.0,0.0,0.0,0.0,0.0,0.0,0.0,0.0,0.0,0.0,0.0,0.0,0.0,0.0,0.0,0.0,0.0,0.0,0.0,0.0,0.0,0.0,0.0,0.0,0.0,0.0,0.0,0.0,0.0,0.0,0.0,0.0,0.0,0.0,0.0,0.0,0.0,0.0,0.0,0.0,0.0,0.0,0.0,0.0,0.0,0.0,0.0,-0.8991,-0.9508,-1.0208,-1.068,-1.093,-1.137,-1.1608,-1.1586,-1.1659,-1.1135,0.0,0.0,0.0,0.0,0.0,0.0,0.0,0.0,0.0,0.0,0.0,0.0,0.0,0.0,0.0,0.0,0.0,0.0,0.0,0.0,0.0,0.0,0.0,0.0,0.0,0.0,0.0,0.0,0.0,0.0,0.0,0.0,0.0,0.0,0.0,0.0,0.0,0.0,0.0,0.0,0.0,0.0,-0.2784,-0.3189,0.0,0.0,0.0,-0.5259,-0.6053,0.0,0.0,0.0,0.0,0.0,0.0,0.0,0.0,0.0,0.0,0.0,0.0,0.0,0.0,0.0,0.0,0.0,0.0,0.0,0.0,0.0,0.0,0.0,0.0,0.0,0.0,0.0,0.0,0.0,0.0,0.0,0.0,0.0,0.0,0.0,0.0,0.0,0.0,0.0,0.0,0.0,0.0,0.0,0.0,0.0,0.0,0.0,0.0,0.0,0.0,0.0,0.0,0.0,0.0,0.0,0.0,0.0,-0.9661,-1.0393,-1.0825,-1.0897,-1.1302,-1.1541,-1.1601,-1.1505,0.0,0.0,0.0,0.0,0.0,0.0,0.0,0.0,0.0,0.0,0.0,0.0,0.0,0.0,0.0,0.0,0.0,0.0,0.0,0.0,0.0,0.0,0.0,0.0,0.0,0.0,0.0,-0.3983,0.0,0.0,0.0,0.0,0.0,0.0,0.0,0.0,0.0,0.0,0.0,0.0,0.0,0.0,-0.2022,-0.2246,-0.2773,-0.3329,0.0,0.0,-0.558,-0.6161,-0.5613,-0.5354,0.0,0.0,0.0,0.0,0.0,0.0,0.0,0.0,0.0,0.0,0.0,0.0,0.0,0.0,0.0,0.0,0.0,0.0,0.0,0.0,0.0,0.0,0.0,0.0,0.0,0.0,0.0,0.0,0.0,0.0,0.0,0.0,0.0,0.0,0.0,0.0,0.0,0.0,0.0,0.0,0.0,0.0,0.0,0.0,0.0,0.0,0.0,0.0,0.0,0.0,0.0,0.0,0.0,0.0,0.0,-1.0045,-1.0323,-1.061,-1.0873,-1.1108,-1.1353,-1.1593,-1.1064,-1.0476,0.0,0.0,0.0,0.0,0.0,0.0,0.0,0.0,0.0,0.0,0.0,0.0,0.0,0.0,0.0,0.0,0.0,0.0,0.0,0.0,0.0,0.0,0.0,0.0,0.0,0.0,0.0,0.0,0.0,0.0,0.0,0.0,0.0,0.0,0.0,0.0,0.0,0.0,0.0,0.0,0.0,-0.3223,-0.1129,-0.3124,-0.4309,0.0,0.0,-0.5642,-0.582,-0.5732,-0.568,-0.5823,0.0,0.0,0.0,0.0,0.0,0.0,0.0,0.0,0.0,0.0,0.0,0.0,0.0,0.0,0.0,0.0,0.0,0.0,0.0,0.0,0.0,0.0,0.0,0.0,0.0,0.0,0.0,0.0,0.0,0.0,0.0,0.0,0.0,0.0,0.0,0.0,0.0,0.0,0.0,0.0,0.0,0.0,0.0,0.0,0.0,0.0,0.0,0.0,0.0,0.0,0.0,0.0,0.0,-0.9942,-1.0097,-1.0599,-1.0952,-1.1197,-1.1549,-1.1599,-1.1285,-1.0956,-1.0277,0.0,0.0,0.0,0.0,0.0,0.0,0.0,0.0,0.0,0.0,0.0,0.0,0.0,0.0,0.0,0.0,0.0,0.0,0.0,0.0,0.0,0.0,0.0,0.0,0.0,0.0,0.0,0.0,-0.3225,-0.3123,-0.3256,0.0,0.0,0.0,0.0,0.0,0.0,0.0,0.0,0.0,0.0,-0.2317,-0.2558,-0.3253,0.0,0.0,-0.4641,-0.5379,-0.5468,-0.5148,-0.5201,-0.6092,-0.5704,0.0,0.0,0.0,0.0,0.0,0.0,0.0,0.0,0.0,0.0,0.0,0.0,0.0,0.0,0.0,0.0,0.0,0.0,0.0,0.0,0.0,0.0,0.0,0.0,0.0,0.0,0.0,0.0,0.0,0.0,0.0,0.0,0.0,0.0,0.0,0.0,0.0,0.0,0.0,0.0,0.0,0.0,0.0,0.0,0.0,0.0,0.0,0.0,0.0,0.0,0.0,0.0,-1.0264,-1.0431,-1.0792,-1.1185,-1.1615,-1.203,-1.1959,-1.1428,-1.1176,-1.0421,0.0,0.0,0.0,0.0,0.0,0.0,0.0,0.0,0.0,0.0,0.0,0.0,0.0,0.0,0.0,0.0,0.0,0.0,0.0,0.0,0.0,0.0,0.0,0.0,0.0,0.0,0.0,0.0,-0.3264,-0.3354,-0.3595,0.0,0.0,0.0,0.0,0.0,0.0,0.0,0.0,0.0,0.0,-0.161,-0.2532,-0.272,-0.304,-0.371,-0.4731,-0.5449,-0.5461,-0.501,-0.5077,-0.6318,0.0,0.0,0.0,0.0,0.0,0.0,0.0,0.0,0.0,0.0,0.0,0.0,0.0,0.0,0.0,0.0,0.0,0.0,0.0,0.0,0.0,0.0,0.0,0.0,0.0,0.0,0.0,0.0,0.0,0.0,-1.0384,0.0,0.0,0.0,0.0,0.0,0.0,0.0,0.0,0.0,0.0,0.0,0.0,0.0,0.0,0.0,0.0,0.0,0.0,0.0,0.0,0.0,0.0,-1.0457,-1.1157,-1.0896,-1.1197,-1.2157,-1.2455,-1.2429,-1.2088,-1.1757,-1.0982,-0.9703,0.0,0.0,0.0,0.0,0.0,0.0,0.0,0.0,0.0,0.0,0.0,0.0,0.0,0.0,0.0,0.0,0.0,0.0,0.0,0.0,0.0,0.0,0.0,0.0,0.0,0.0,-0.3343,-0.3599,-0.3808,0.0,0.0,0.0,0.0,0.0,0.0,0.0,0.0,0.0,0.0,-0.2052,-0.1448,-0.0353,-0.1483,-0.2435,-0.2516,-0.445,-0.5925,-0.5786,-0.5446,-0.5511,0.0,0.0,0.0,0.0,0.0,0.0,0.0,0.0,0.0,0.0,0.0,0.0,0.0,0.0,0.0,0.0,0.0,0.0,0.0,0.0,0.0,0.0,0.0,0.0,0.0,0.0,0.0,-1.2283,-1.1915,0.0,0.0,0.0,0.0,0.0,0.0,0.0,0.0,0.0,0.0,0.0,-1.0196,-1.006,0.0,0.0,0.0,0.0,0.0,0.0,0.0,0.0,0.0,0.0,0.0,0.0,-1.0937,-1.1264,-1.1678,-1.2112,-1.2598,-1.2767,-1.2752,-1.2497,-1.2213,-1.1344,-0.9872,0.0,0.0,0.0,0.0,0.0,0.0,0.0,0.0,0.0,0.0,0.0,0.0,0.0,0.0,0.0,0.0,0.0,0.0,0.0,0.0,0.0,0.0,0.0,0.0,0.0,-0.3524,0.0,0.0,0.0,0.0,0.0,0.0,0.0,0.0,0.0,0.0,0.0,-0.3547,-0.2557,-0.1851,-0.1579,-0.2008,-0.1078,-0.1131,0.0,0.0,0.0,0.0,0.0,0.0,0.0,0.0,0.0,0.0,0.0,0.0,0.0,0.0,-0.2289,-0.0438,-0.0632,-0.0617,0.0935,0.0,0.0,0.0,0.0,0.0,0.0,0.0,0.0,0.0,0.0,0.0,0.0,0.0,0.0,-1.3095,0.0,-1.2843,0.0,0.0,0.0,0.0,0.0,0.0,0.0,0.0,-1.1448,-1.126,-1.0597,-1.0674,-1.0542,0.0,-1.0487,-1.0504,0.0,0.0,0.0,0.0,0.0,0.0,0.0,0.0,-1.1354,-1.1838,-1.2332,-1.2813,-1.3224,-1.3427,-1.3421,-1.3207,-1.2744,-1.2044,-1.1104,-1.0489,-0.9823,0.0,0.0,0.0,0.0,0.0,0.0,0.0,0.0,0.0,0.0,0.0,0.0,0.0,0.0,0.0,0.0,0.0,0.0,0.0,0.0,0.0,0.0,0.0,-0.3821,0.0,0.0,0.0,0.0,0.0,0.0,0.0,0.0,0.0,-0.3973,-0.3997,-0.388,-0.3208,-0.2299,-0.2021,-0.2902,0.0,0.0,0.0,0.0,0.0,0.0,0.0,-0.6088,-0.6698,-0.6602,-0.6322,-0.5968,-0.5294,-0.4715,-0.4515,0.0,0.0,-0.1085,-0.1302,-0.1377,0.0039,-0.0186,-0.0553,-0.031,-0.0088,0.0087,0.0,0.0,0.0,0.0,0.0,0.0,0.0,0.0,-1.2877,-1.2732,0.0,-1.3023,0.0,0.0,0.0,0.0,0.0,-1.3008,0.0,0.0,-1.2488,-1.2293,-1.1422,-1.1647,-1.1399,-1.0732,-1.1274,-1.1603,-1.1666,-1.1312,0.0,0.0,0.0,0.0,0.0,0.0,-1.1715,-1.2786,-1.2794,-1.3187,-1.409,-1.436,-1.441,-1.4227,-1.3351,-1.3038,-1.327,-1.2555,-1.1672,-1.0508,-1.0298,0.0,0.0,0.0,0.0,0.0,0.0,0.0,0.0,0.0,0.0,0.0,0.0,0.0,0.0,0.0,0.0,0.0,0.0,0.0,0.0,-0.4913,0.0,0.0,0.0,0.0,0.0,0.0,0.0,0.0,0.0,0.0,-0.4461,-0.4767,-0.4934,-0.438,0.0,0.0,0.0,0.0,-0.2589,-0.442,-0.5506,-0.6329,-0.6897,-0.6927,-0.6988,-0.7325,0.0,0.0,-0.617,-0.5431,-0.4893,-0.4812,-0.4675,-0.4275,-0.3009,-0.2431,-0.2108,-0.1808,-0.1549,-0.1452,-0.1452,-0.126,-0.1062,-1.54,0.0,0.0,0.0,0.0,-1.4272,-1.4554,-1.5117,-1.5209,-1.4648,-1.3682,-1.4095,0.0,0.0,0.0,0.0,0.0,0.0,-1.3878,-1.3298,-1.3433,-1.3192,-1.2647,-1.233,-1.2083,-1.1966,-1.247,-1.2591,-1.2364,-1.2814,-1.273,-1.2081,0.0,0.0,0.0,0.0,-1.283,-1.3552,-1.3695,-1.3987,-1.4374,-1.4658,-1.4897,-1.5111,-1.4633,-1.4202,-1.3827,-1.3122,-1.2316,-1.1359,-1.0119,0.0,0.0,0.0,0.0,0.0,0.0,0.0,0.0,0.0,0.0,0.0,0.0,0.0,0.0,0.0,0.0,0.0,0.0,0.0,-0.6144,-0.5095,-0.4768,0.0,0.0,0.0,0.0,0.0,0.0,0.0,0.0,0.0,-0.6506,-0.6092,-0.5581,0.0,0.0,-0.4712,-0.3822,-0.4082,-0.4757,-0.5788,0.0,0.0,0.0,-0.8511,-0.8209,-0.7509,-0.673,-0.6105,-0.5858,-0.543,-0.504,-0.4774,-0.4498,-0.4163,-0.3674,-0.3497,-0.2995,-0.1911,-0.1909,-0.2116,-0.1865,-0.1759,-0.1598,-1.6697,-1.5685,-1.514,-1.5175,-1.5553,-1.5382,-1.5579,-1.6062,-1.6108,-1.5485,-1.445,-1.4911,-1.4988,-1.4745,-1.4745,0.0,0.0,0.0,-1.4782,-1.4511,-1.4437,-1.4237,-1.3886,-1.3668,-1.3448,-1.3299,-1.3869,-1.3947,-1.3509,-1.4026,-1.4042,-1.3526,0.0,0.0,-1.3503,-1.3404,-1.376,-1.4499,-1.4507,-1.4569,-1.4704,-1.512,-1.5463,-1.5711,-1.5533,-1.5137,-1.4521,-1.4343,-1.3663,-1.2365,-1.1272,-0.9971,0.0,0.0,0.0,0.0,0.0,0.0,0.0,0.0,0.0,0.0,0.0,-0.8054,0.0,0.0,0.0,0.0,-0.6797,-0.6626,-0.5929,-0.5479,0.0,0.0,0.0,0.0,0.0,0.0,0.0,-0.7853,-0.7793,-0.7923,-0.838,-0.7947,-0.7392,-0.6848,-0.6845,-0.6633,-0.5844,0.0,-0.6607,-0.7301,-0.7721,-0.8268,-0.9137,-0.9152,-0.8651,-0.7508,-0.6493,-0.583,-0.5681,-0.5415,-0.5156,-0.4961,-0.4727,-0.45,-0.4299,-0.4268,-0.3846,-0.2533,-0.2537,-0.2692,-0.2394,-0.2234,-0.2086,-1.7953,-1.7358,-1.6028,-1.6019,-1.6769,-1.6296,-1.6332,-1.665,-1.6198,-1.5732,-1.5389,-1.5655,-1.5841,-1.5872,-1.6063,0.0,-1.5768,-1.5668,-1.5593,-1.5555,-1.5516,-1.5325,-1.5057,-1.5336,-1.5184,-1.4514,-1.5324,-1.5446,-1.4993,-1.5018,-1.4965,-1.4853,-1.3644,-1.3533,-1.4447,-1.4165,-1.4513,-1.5502,-1.5148,-1.497,-1.5043,-1.5696,-1.6067,-1.6095,-1.6067,-1.5805,-1.5318,-1.5749,-1.5139,-1.3367,-1.3021,-1.0731,-0.6184,0.0,0.0,0.0,0.0,0.0,0.0,0.0,0.0,0.0,0.0,0.0,0.0,0.0,0.0,0.0,-0.6135,0.0,-0.5326,-0.5969,0.0,0.0,0.0,-0.8074,-0.8826,-0.8909,-0.9142,-0.9854,0.0,0.0,-0.9956,0.0,-0.9861,-0.9552,-0.8863,-0.8414,-0.8478,-0.8127,-0.8148,-0.8792,-0.8892,-0.9044,-0.9457,-0.9172,-0.8581,-0.758,-0.6491,-0.5862,-0.5708,-0.5425,-0.5281,-0.5224,-0.5147,-0.5009,-0.4941,-0.4646,-0.4343,-0.3603,-0.3323,-0.3144,-0.2984,-0.2725,-0.2524,-1.8505,-1.794,-1.7213,-1.6987,-1.7102,-1.6985,-1.7429,-1.8269,-1.8426,-1.8111,-1.7407,-1.7486,-1.7149,-1.6602,-1.7126,-1.7342,-1.7263,-1.6942,-1.6794,-1.6767,-1.6336,-1.6153,-1.6101,-1.5798,-1.5588,-1.5513,-1.601,-1.6036,-1.5625,-1.5943,-1.5916,-1.5558,-1.4817,-1.4559,-1.4782,-1.4822,-1.5138,-1.5797,-1.5524,-1.5403,-1.5536,-1.594,-1.6166,-1.6166,-1.5911,-1.5864,-1.5948,-1.4864,-1.4055,-1.3545,-1.1343,-0.8416,-0.4847,-0.6321,0.0,0.0,0.0,0.0,0.0,0.0,0.0,0.0,0.0,-0.8594,-0.8636,0.0,-0.7809,0.0,-0.6223,-0.5341,-0.4573,-0.6283,0.0,0.0,-0.7665,-0.953,-0.975,-0.9703,-0.9713,-0.9937,-0.9922,-1.0079,-1.0602,-1.0666,-1.0831,-1.1257,-1.0118,-0.9222,-0.9223,-0.9067,-0.918,-0.9777,-0.9922,-1.0085,-1.0299,-0.9537,-0.8723,-0.8473,-0.722,-0.623,-0.6148,-0.5692,-0.5301,-0.5088,-0.4827,-0.4603,-0.444,-0.42,-0.4007,-0.3752,-0.3478,-0.3229,-0.3099,-0.2904,-0.2728,-1.9384,-1.8639,-1.8229,-1.7913,-1.7591,-1.7591,-1.8004,-1.8752,-1.8836,-1.8549,-1.8082,-1.7948,-1.7611,-1.7103,-1.7451,-1.7652,-1.7639,-1.7447,-1.731,-1.731,-1.7048,-1.6903,-1.6957,-1.6652,-1.6506,-1.6506,-1.6811,-1.6665,-1.6135,-1.6452,-1.6395,-1.5845,-1.5291,-1.5044,-1.5044,-1.5071,-1.5616,-1.6629,-1.5938,-1.5673,-1.5859,-1.5816,-1.5898,-1.6095,-1.5482,-1.5276,-1.5558,-1.4423,-1.379,-1.373,-1.1867,-0.9241,-0.5977,-0.746,-0.7169,0.0,0.0,0.0,0.0,0.0,0.0,0.0,0.0,0.0,0.0,0.0,-0.7853,-0.8258,-0.8094,-0.7869,-0.7664,-0.8532,-0.8651,-0.7529,-0.8976,-1.0157,-1.0581,-1.0522,-1.0589,-1.0986,-1.0967,-1.1078,-1.145,-1.1445,-1.1586,-1.2045,-1.1258,-1.0634,-1.0554,-1.0468,-1.0496,-1.0714,-1.0666,-1.0579,-1.0545,-0.9563,-0.8718,-0.8464,-0.7338,-0.6382,-0.6255,-0.5714,-0.5224,-0.5117,-0.4794,-0.4515,-0.4443,-0.4219,-0.4014,-0.3933,-0.3642,-0.3346,-0.3179,-0.2948,-0.2803,-2.0233,-1.9318,-1.9157,-1.8703,-1.8153,-1.8166,-1.8405,-1.8808,-1.8553,-1.8341,-1.8152,-1.7882,-1.7611,-1.7474,-1.7404,-1.7474,-1.7557,-1.7516,-1.7475,-1.7475,-1.7475,-1.7475,-1.7529,-1.7475,-1.7488,-1.7446,-1.7488,-1.7182,-1.6652,-1.6835,-1.6658,-1.6147,-1.5594,-1.5407,-1.5543,-1.5188,-1.5825,-1.7483,-1.6424,-1.591,-1.607,-1.5605,-1.5566,-1.5896,-1.5073,-1.468,-1.486,-1.412,-1.368,-1.3714,-1.2946,-1.0936,-0.7623,-0.9412,-0.9172,0.0,-0.8362,0.0,0.0,0.0,0.0,0.0,0.0,0.0,0.0,-0.7724,-0.8032,-0.9809,-1.0481,-1.0912,-1.1109,-1.1102,-1.0917,-1.0456,-1.0429,-1.0721,-1.1443,-1.1439,-1.1652,-1.2339,-1.2458,-1.2426,-1.219,-1.2194,-1.2234,-1.2184,-1.205,-1.1849,-1.1738,-1.1652,-1.152,-1.1287,-1.1075,-1.0639,-1.0097,-0.9392,-0.8789,-0.8298,-0.7401,-0.6565,-0.6476,-0.5786,-0.5284,-0.5323,-0.4919,-0.4575,-0.4744,-0.4431,-0.4166,-0.4133,-0.3817,-0.3507,-0.3276,-0.3046,-0.2879,-2.022,-1.999,-1.9494,-1.918,-1.8967,-1.8998,-1.9157,-1.9429,-1.9727,-1.9535,-1.8961,-1.814,-1.7841,-1.7841,-1.7556,-1.7598,-1.7961,-1.7666,-1.7475,-1.7475,-1.7449,-1.7503,-1.7625,-1.7503,-1.7516,-1.7638,-1.7543,-1.7463,-1.7477,-1.7505,-1.7531,-1.7516,-1.6471,-1.6417,-1.7217,0.0,0.0,0.0,-1.676,-1.6383,-1.5941,-1.5771,-1.5697,-1.5653,-1.5286,0.0,-1.5286,-1.3537,-1.2619,-1.2778,-1.1326,0.0,0.0,0.0,0.0,0.0,0.0,0.0,0.0,0.0,0.0,0.0,-1.1433,-1.067,-0.9263,-0.9276,-0.9791,-1.0678,-1.0883,-0.9853,-0.7252,-1.0503,-1.1389,-0.8215,-1.0618,-1.2681,-1.2904,-1.2894,-1.297,-1.3087,-1.3574,-1.3436,-1.2347,-1.2571,-1.2693,-1.2203,-1.2112,-1.1927,-1.1534,-1.1495,-1.1365,-1.1099,-1.078,-1.0401,-0.9982,-0.9587,-0.9205,-0.8752,-0.8053,-0.7446,-0.723,-0.6487,-0.5897,-0.5835,-0.5167,-0.4575,-0.4555,-0.4232,-0.3973,-0.396,-0.392,-0.3815,-0.3522,-0.3297,-0.3125,-2.0605,0.0,-1.9925,-1.9623,0.0,-1.9562,-1.958,-1.9515,-1.9391,-1.8934,-1.8261,-1.8165,-1.8108,-1.7988,-1.7598,-1.772,-1.8212,-1.7841,-1.7693,-1.7693,-1.7639,-1.7652,-1.7692,-1.7557,-1.7544,-1.7625,-1.7625,-1.7638,-1.7679,-1.776,-1.7842,-1.7868,-1.6987,-1.6851,-1.7394,-1.624,-1.5942,-1.6552,-1.6495,-1.6635,-1.6924,-1.6284,-1.6117,-1.645,0.0,0.0,0.0,0.0,0.0,0.0,0.0,0.0,0.0,0.0,0.0,-1.0514,-1.1416,-1.2272,-1.2806,-1.2246,-1.2007,-1.2307,-1.2601,-1.216,-1.0725,-1.1586,-1.2303,-1.262,-1.3288,-1.2985,-1.1359,-1.3031,-1.3412,-1.1395,-1.2617,-1.3722,-1.3767,-1.3769,-1.362,-1.3359,-1.3582,-1.332,-1.2292,-1.243,-1.2522,-1.2215,-1.2133,-1.197,-1.1512,-1.1511,-1.1458,-1.1029,-1.0621,-1.0236,-0.9944,-0.9659,-0.9331,-0.8869,-0.8224,-0.7729,-0.7572,-0.6654,-0.5943,-0.5935,-0.5253,-0.4633,-0.4655,-0.4354,-0.4042,-0.4045,-0.3971,-0.3834,-0.3557,-0.3465,-0.3386,-2.103,-2.0599,-2.0485,-2.0148,-1.976,-2.0273,-2.0186,-1.9714,0.0,0.0,0.0,-1.8228,-1.8344,-1.8108,-1.776,-1.7922,-1.8397,-1.8069,-1.7922,-1.7922,-1.7922,-1.7842,-1.7733,-1.7652,-1.7557,-1.7516,-1.7638,-1.7692,-1.772,-1.7842,-1.7922,-1.7868,-1.7299,-1.6946,-1.6851,-1.6946,-1.6756,-1.6295,-1.6304,-1.6817,-1.7849,-1.6806,-1.6508,-1.7204,-1.6177,-1.5654,-1.5694,-1.4533,-1.3973,-1.4188,-1.3656,-1.3459,-1.3741,-1.3938,-1.4152,-1.4408,-1.4307,-1.4163,-1.3982,-1.3776,-1.3496,-1.3016,-1.3541,-1.3243,-1.182,-1.3359,-1.4428,-1.4498,-1.5618,-1.6224,-1.6066,-1.5775,-1.5423,-1.5078,-1.4648,-1.4386,-1.4457,-1.4405,-1.421,-1.3728,-1.3659,-1.3251,-1.2528,-1.2405,-1.2318,-1.2241,-1.219,-1.2049,-1.1593,-1.1482,-1.1302,-1.0849,-1.0485,-1.0224,-0.9931,-0.9686,-0.9331,-0.8887,-0.8274,-0.7776,-0.74,-0.6599,-0.6029,-0.6061,-0.5304,-0.4829,-0.4774,-0.4483,-0.4207,-0.4166,-0.4016,-0.3816,-0.3583,-0.363,-0.362,-2.1312,-2.1104,-2.1215,-2.1138,-2.1077,-2.1592,-2.1513,-2.0946,-1.9712,-1.9182,-1.9057,-1.87,-1.8525,-1.8588,-1.8254,-1.8425,-1.8936,-1.8228,-1.7922,0.0,-1.7922,-1.7882,-1.7842,-1.7625,-1.7585,-1.7679,-1.7692,-1.7692,-1.7733,-1.7842,-1.7922,-1.7814,-1.7299,-1.6756,-1.6322,-1.6742,-1.6959,-1.6878,-1.6989,-1.7129,-1.7311,-1.6814,-1.6543,-1.6606,-1.6466,-1.6291,-1.6178,-1.5148,-1.4768,-1.523,-1.4378,-1.4256,-1.5037,-1.5022,-1.5309,-1.5951,-1.5061,-1.4947,-1.6028,-1.5042,-1.4765,-1.5644,-1.5941,-1.4479,-1.0834,-1.2844,-1.464,-1.5267,-1.5556,-1.5336,-1.4891,-1.5645,-1.5707,-1.4665,-1.4811,-1.5053,-1.5011,-1.5034,-1.4968,-1.4811,-1.4929,-1.4375,-1.3298,-1.3005,-1.2744,-1.2364,-1.2163,-1.2054,-1.1681,-1.1118,-1.0681,-1.0498,-1.0374,-1.0199,-0.9957,-0.9686,-0.9331,-0.886,-0.853,-0.8116,-0.7571,-0.6989,-0.645,-0.6155,-0.546,-0.4939,-0.4704,-0.4403,-0.4187,-0.4029,-0.4053,-0.4001,-0.3582,-0.3688,-0.373,-2.1538,-2.1707,-2.2132,-2.202,-2.1678,-2.1983,-2.2112,-2.2101,-2.1126,-2.0401,-1.995,-1.9912,-1.9984,-2.0009,-1.9404,-1.9276,-1.9503,-1.8739,-1.8194,-1.7936,-1.7922,-1.7842,-1.7801,-1.7639,-1.7598,-1.7692,-1.7692,-1.7733,-1.7801,-1.7868,-1.7922,-1.7909,-1.765,-1.7339,-1.7109,-1.7339,-1.7514,-1.7461,-1.7429,-1.7553,-1.7873,-1.7735,-1.7595,-1.7586,-1.736,-1.7222,-1.7156,-1.6674,-1.6413,-1.6318,-1.6264,-1.6091,-1.5794,-1.6123,-1.6363,-1.6382,-1.5884,-1.5867,-1.6549,-1.5987,-1.5832,-1.6378,-1.6463,-1.5725,-1.3753,-1.4811,-1.57,-1.6082,-1.6072,-1.5936,-1.5606,-1.6051,-1.594,-1.4947,-1.5084,-1.5053,-1.4766,-1.5015,-1.5068,-1.474,-1.4667,-1.4421,-1.3821,-1.3113,-1.2744,-1.262,-1.2264,-1.174,-1.1557,-1.0954,-1.0548,-1.0632,-1.0474,-1.0274,-1.0123,-0.988,-0.9555,-0.9128,-0.8828,-0.8328,-0.7645,-0.711,-0.6632,-0.6177,-0.5573,-0.5078,-0.4715,-0.4504,-0.426,-0.3988,-0.3951,-0.3851,-0.3525,-0.337,-0.3203,-2.2073,-2.2361,-2.3134,-2.304,-2.241,-2.2192,-2.242,-2.2831,-2.2308,-2.173,-2.1197,-2.1231,-2.1234,-2.1164,-2.0472,-2.0076,-1.989,-1.9308,-1.8684,-1.8126,-1.8139,-1.8098,-1.7963,-1.7908,-1.7895,-1.7801,-1.7841,-1.8004,-1.8085,-1.8085,-1.8045,-1.7936,-1.7922,-1.7922,-1.7922,-1.7922,-1.7922,-1.7895,-1.7821,-1.8035,-1.8472,-1.8383,-1.8397,-1.8475,-1.8095,-1.7922,-1.7922,-1.7922,-1.7665,-1.727,-1.7757,-1.7609,-1.6655,-1.7197,-1.729,-1.6709,-1.6698,-1.6701,-1.6596,-1.6543,-1.6474,-1.6501,-1.6474,-1.6474,-1.6501,-1.6554,-1.6607,-1.6596,-1.6549,-1.6538,-1.6465,-1.6421,-1.6138,-1.5614,-1.5483,-1.5205,-1.4627,-1.4893,-1.5021,-1.4507,-1.4313,-1.4252,-1.416,-1.3267,-1.2627,-1.27,-1.2045,-1.1415,-1.125,-1.0859,-1.0608,-1.067,-1.0523,-1.0338,-1.0274,-1.0034,-0.975,-0.9408,-0.892,-0.8282,-0.7585,-0.7017,-0.6489,-0.6003,-0.5583,-0.5156,-0.4785,-0.4587,-0.4354,-0.4014,-0.3951,-0.386,-0.3614,-0.3147,-0.281,-2.3407,-2.3056,-2.4154,-2.4346,-2.3569,-2.255,-2.2434,-2.283,-2.2817,-2.301,-2.3065,-2.2122,-2.159,-2.1355,-2.0907,-2.0481,-2.0135,-1.978,-1.9279,-1.8777,-1.8916,-1.8889,-1.871,-1.8848,-1.8562,-1.8058,-1.8425,-1.8642,-1.8725,-1.8711,-1.8439,-1.7977,-1.7922,-1.7922,-1.7922,-1.7922,-1.7922,-1.7922,-1.8224,-1.8458,-1.8461,-1.8135,-1.8135,-1.85,-1.8095,-1.7922,-1.7922,-1.7922,-1.7855,-1.784,-1.7969,-1.8064,-1.7932,-1.815,-1.7989,-1.7363,-1.7387,-1.7235,-1.6691,-1.649,-1.6421,-1.6485,-1.6448,-1.6436,-1.6501,-1.657,-1.6607,-1.6581,-1.6543,-1.6554,-1.6554,-1.6436,-1.6293,-1.6133,-1.605,-1.5819,-1.5133,-1.5151,-1.5182,-1.5134,-1.4483,-1.4421,-1.476,-1.3867,-1.2882,-1.2384,-1.1844,-1.1355,-1.1242,-1.0835,-1.0485,-1.0474,-1.0349,-1.0312,-1.0287,-1.0021,-0.9802,-0.9609,-0.8771,-0.8085,-0.7503,-0.6785,-0.6034,-0.5889,-0.5449,-0.5137,-0.4834,-0.4575,-0.4374,-0.4078,-0.4039,-0.4151,-0.3972,-0.3364,-0.2884,-2.3458,-2.3563,-2.4409,-2.4465,-2.3851,-2.2991,-2.2546,-2.242,-2.2406,-2.2694,-2.3113,-2.2614,-2.2592,-2.2885,-2.2436,-2.1872,-2.1206,-2.0735,-2.01,-1.9361,-1.935,-1.9337,-1.9334,-1.9405,-1.9255,-1.894,-1.8845,-1.901,-1.9198,-1.8983,-1.8507,-1.799,-1.7922,-1.7922,-1.7922,-1.7922,-1.7922,-1.7922,-1.8069,-1.8358,-1.8745,-1.8436,-1.8319,-1.8461,-1.8358,-1.8254,-1.8254,-1.8254,-1.824,-1.8252,-1.8161,-1.8229,-1.8446,-1.8465,-1.8142,-1.7472,-1.7133,-1.7101,-1.7227,-1.6752,-1.6474,-1.6501,-1.6474,-1.649,-1.6485,-1.657,-1.6607,-1.6596,-1.6581,-1.657,-1.6581,-1.6463,-1.6215,-1.5884,-1.5702,-1.5211,-1.4137,-1.4382,-1.46,-1.4544,-1.4036,-1.4036,-1.4744,-1.4036,-1.293,-1.2143,-1.1615,-1.1355,-1.1127,-1.0777,-1.051,-1.0399,-1.0349,-1.0312,-1.0299,-1.0199,-0.9982,-0.9661,-0.9188,-0.8576,-0.7741,-0.6984,-0.6329,-0.593,-0.5583,-0.5225,-0.4873,-0.4635,-0.4394,-0.4151,-0.3759,-0.3706,-0.3731,-0.3164,-0.2788,-2.3707,-2.4002,-2.4204,-2.4163,-2.3965,-2.3174,-2.2567,-2.2186,-2.2158,-2.2358,-2.2663,-2.2694,-2.3054,-2.3668,-2.3451,-2.2834,-2.1975,-2.1575,-2.0872,-1.9999,-1.9975,-1.9975,-1.9944,-1.9931,-1.9849,-1.9659,-1.9415,-1.9483,-1.9849,-1.9497,-1.8872,-1.8276,-1.8167,-1.8086,-1.7936,-1.7922,-1.7922,-1.7922,-1.7989,-1.8386,-1.8822,-1.8745,-1.8707,-1.8769,-1.8514,-1.8383,-1.85,-1.8411,-1.8333,-1.8344,-1.8355,-1.8512,-1.8802,-1.8941,-1.8625,-1.7782,-1.7192,-1.7022,-1.7385,-1.6826,-1.6501,-1.6512,-1.6501,-1.6501,-1.6528,-1.657,-1.6596,-1.6596,-1.6659,-1.6701,-1.6581,-1.6543,-1.6255,-1.5739,-1.556,-1.4921,-1.3782,-1.394,-1.4157,-1.3944,-1.3529,-1.3529,-1.4267,-1.3736,-1.284,-1.1998,-1.1549,-1.1279,-1.0977,-1.0681,-1.0449,-1.0374,-1.0324,-1.0312,-1.0299,-1.0211,-1.0085,-0.9791,-0.9407,-0.8696,-0.8082,-0.7332,-0.6705,-0.6257,-0.5803,-0.5557,-0.5408,-0.5119,-0.4649,-0.4324,-0.3907,-0.3574,-0.3775,-0.3129,-0.289,-2.4593,-2.4021,-2.3498,-2.3628,-2.3974,-2.2937,-2.2391,-2.2315,-2.2264,-2.2234,-2.2166,-2.217,-2.2512,-2.3127,-2.3231,-2.2747,-2.196,-2.2016,-2.15,-2.0582,-2.0982,-2.0969,-2.0481,-2.0441,-2.0243,-1.9917,-2.0161,-2.0292,-2.0386,-2.0373,-1.9863,-1.8806,-1.8725,-1.8466,-1.7963,-1.7882,-1.7922,-1.7922,-1.8254,-1.8514,-1.8577,-1.8898,-1.9213,-1.942,-1.8567,-1.8175,-1.8397,-1.8149,-1.7963,-1.7963,-1.8598,-1.9059,-1.9259,-1.9858,-1.9682,-1.87,-1.7987,-1.7354,-1.6865,-1.6606,-1.6528,-1.6581,-1.6543,-1.6528,-1.6596,-1.6581,-1.6607,-1.6607,-1.6841,-1.6892,-1.6633,-1.6701,-1.6617,-1.6331,-1.62,-1.5503,-1.4258,-1.4116,-1.3899,-1.3466,-1.3267,-1.3236,-1.3328,-1.3206,-1.2644,-1.1962,-1.1497,-1.1192,-1.0897,-1.0597,-1.0399,-1.0324,-1.0312,-1.0274,-1.0274,-1.0236,-1.0148,-0.9932,-0.9377,-0.8562,-0.8087,-0.7607,-0.7114,-0.6684,-0.6428,-0.6215,-0.6107,-0.5759,-0.5233,-0.4739,-0.412,-0.3883,-0.3818,-0.3483,-0.3237,-2.4287,-2.4099,-2.389,-2.3677,-2.3464,-2.3099,-2.2692,-2.2366,-2.2379,-2.2318,-2.2232,-2.2213,-2.2331,-2.2452,-2.2979,-2.2848,-2.2361,-2.2086,-2.1635,-2.1125,-2.1232,-2.1205,-2.109,-2.1097,-2.0969,-2.0826,-2.0576,-2.0292,-2.008,-2.0305,-1.9886,-1.8868,-1.8777,-1.8479,-1.7909,-1.7842,-1.7922,-1.7949,-1.8293,-1.863,-1.8808,-1.8798,-1.9011,-1.9603,-1.9011,-1.8606,-1.85,-1.8358,-1.8411,-1.8644,-1.8539,-1.892,-1.9834,-1.9891,-1.9953,-1.9862,-1.8553,-1.7764,-1.7795,-1.7042,-1.6528,-1.6596,-1.6528,-1.6512,-1.6581,-1.6607,-1.6607,-1.6659,-1.6977,-1.7002,-1.667,-1.6686,-1.6701,-1.6382,-1.6246,-1.5699,-1.459,-1.4177,-1.3938,-1.3359,-1.3205,-1.3051,-1.2617,-1.2377,-1.2059,-1.1592,-1.1247,-1.1005,-1.067,-1.0474,-1.0374,-1.0299,-1.0312,-1.0274,-1.0224,-1.0249,-1.0186,-1.0034,-0.9641,-0.9245,-0.8797,-0.8108,-0.7528,-0.7163,-0.6946,-0.6597,-0.6373,-0.5963,-0.5482,-0.4711,-0.4118,-0.3964,-0.3834,-0.3547,-0.3321,-2.4125,-2.4125,-2.4125,-2.3877,-2.3524,-2.3511,-2.3184,-2.2701,-2.2635,-2.2524,-2.2375,-2.2347,-2.2301,-2.2221,-2.2437,-2.2498,-2.2356,-2.2109,-2.1827,-2.1361,-2.1277,-2.1326,-2.1361,-2.141,-2.141,-2.1355,-2.0982,-2.0609,-2.0338,-2.0603,-2.0097,-1.9057,-1.9019,-1.86,-1.7936,-1.7842,-1.7922,-1.8003,-1.8279,-1.8545,-1.8631,-1.8684,-1.8631,-1.8709,-1.8629,-1.8484,-1.8204,-1.7921,-1.7998,-1.8473,-1.8289,-1.8812,-2.02,-2.0124,-2.0082,-2.0273,-1.8961,-1.8095,-1.8174,-1.7216,-1.6554,-1.6596,-1.657,-1.6554,-1.6596,-1.657,-1.657,-1.6659,-1.6876,-1.6926,-1.6617,-1.6617,-1.6633,-1.6355,-1.6234,-1.5656,-1.4408,-1.4188,-1.3759,-1.3058,-1.2842,-1.262,-1.2234,-1.2,-1.1776,-1.1474,-1.127,-1.0991,-1.0632,-1.046,-1.0424,-1.0299,-1.0249,-1.0299,-1.0299,-1.0299,-1.0186,-1.0034,-0.9842,-0.9555,-0.9227,-0.8548,-0.8014,-0.7655,-0.7303,-0.6904,-0.651,-0.6117,-0.5457,-0.4664,-0.4264,-0.4081,-0.3866,-0.3625,-0.3428,-2.4125,-2.4164,-2.4138,-2.4191,-2.4191,-2.4138,-2.3785,-2.3341,-2.3237,-2.2952,-2.2508,-2.2469,-2.2405,-2.2234,-2.1947,-2.168,-2.1883,-2.2273,-2.2049,-2.1277,-2.1326,-2.1361,-2.141,-2.141,-2.141,-2.141,-2.1396,-2.1334,-2.1226,-2.1075,-2.0523,-1.9791,-1.9435,-1.8814,-1.7882,-1.7882,-1.7922,-1.8003,-1.8293,-1.8218,-1.7828,-1.8516,-1.8294,-1.7171,-1.7333,-1.7537,-1.7529,-1.6702,-1.6803,-1.7624,-1.8057,-1.8937,-2.0268,-2.0532,-2.046,-1.9941,-1.9151,-1.8456,-1.7795,-1.7133,-1.6707,-1.6596,-1.6596,-1.6596,-1.6596,-1.6543,-1.6517,-1.6554,-1.6712,-1.6696,-1.6448,-1.6581,-1.6617,-1.634,-1.6219,-1.5633,-1.4567,-1.4139,-1.3682,-1.2596,-1.2364,-1.2236,-1.2184,-1.214,-1.1946,-1.1667,-1.146,-1.1187,-1.0801,-1.0632,-1.051,-1.0349,-1.0286,-1.0361,-1.0361,-1.0361,-1.0173,-1.0021,-0.9777,-0.9555,-0.9328,-0.8798,-0.8372,-0.8,-0.7695,-0.7295,-0.6666,-0.6267,-0.5805,-0.5132,-0.4724,-0.4257,-0.4001,-0.3765,-0.357,-2.4347,-2.4687,-2.47,-2.4936,-2.521,-2.487,-2.4583,-2.4374,-2.4021,-2.3498,-2.3014,-2.2949,-2.2745,-2.2392,-2.2112,-2.2135,-2.2293,-2.2173,-2.1746,-2.134,-2.1326,-2.1423,-2.1423,-2.141,-2.141,-2.141,-2.141,-2.1375,-2.1197,-2.0887,-2.022,-1.9517,-1.9078,-1.8486,-1.7773,-1.7842,-1.7896,-1.7936,-1.8321,-1.8281,-1.7963,-1.799,-1.7691,-1.7116,-1.6576,-1.6298,-1.6298,-1.6369,-1.681,-1.7534,-1.8195,-1.911,-2.0221,-2.061,-2.0616,-2.0462,-1.9846,-1.9135,-1.844,-1.7732,-1.7101,-1.6723,-1.6623,-1.6607,-1.6581,-1.6528,-1.6517,-1.6554,-1.6799,-1.6809,-1.6459,-1.6686,-1.667,-1.6246,-1.6207,-1.5664,-1.4384,-1.3405,-1.2713,-1.2411,-1.2596,-1.2651,-1.2341,-1.2258,-1.2186,-1.1719,-1.1429,-1.1164,-1.0849,-1.0753,-1.0559,-1.0349,-1.0398,-1.0496,-1.0545,-1.0545,-1.0398,-1.0223,-0.9983,-0.9621,-0.9369,-0.9155,-0.8745,-0.8298,-0.7984,-0.754,-0.6921,-0.649,-0.6099,-0.5561,-0.5053,-0.4621,-0.4254,-0.4013,-0.3862,-2.4452,-2.4949,-2.4975,-2.5301,-2.5733,-2.5223,-2.4975,-2.4883,-2.436,-2.3903,-2.3602,-2.355,-2.3223,-2.2758,-2.2511,-2.2497,-2.2552,-2.2106,-2.1798,-2.156,-2.1394,-2.1532,-2.1667,-2.1505,-2.141,-2.141,-2.141,-2.1326,-2.1153,-2.059,-1.9967,-1.9346,-1.8745,-1.8171,-1.7664,-1.7747,-1.7747,-1.7544,-1.7752,-1.7656,-1.7134,-1.704,-1.6817,-1.6308,-1.5891,-1.5693,-1.5748,-1.611,-1.6561,-1.7319,-1.8278,-1.9412,-2.0366,-2.0561,-2.0662,-2.0635,-2.0178,-1.9578,-1.9088,-1.8219,-1.7527,-1.7054,-1.6754,-1.6596,-1.6581,-1.6517,-1.649,-1.6633,-1.6773,-1.6825,-1.6644,-1.667,-1.659,-1.6051,-1.6138,-1.5584,-1.4343,-1.3,-1.2297,-1.2287,-1.2549,-1.2614,-1.2626,-1.2318,-1.2396,-1.1985,-1.1673,-1.1339,-1.1048,-1.0954,-1.0763,-1.0656,-1.0681,-1.0753,-1.0801,-1.0753,-1.0619,-1.0447,-1.0248,-0.9841,-0.9502,-0.9343,-0.9046,-0.841,-0.7994,-0.7608,-0.705,-0.696,-0.6638,-0.6022,-0.5386,-0.5049,-0.4718,-0.4467,-0.4234,-2.4465,-2.4988,-2.5088,-2.5432,-2.5876,-2.5341,-2.5079,-2.4949,-2.4374,-2.4099,-2.406,-2.4021,-2.3759,-2.3223,-2.2907,-2.279,-2.2671,-2.2228,-2.2227,-2.2092,-2.174,-2.1654,-2.1952,-2.1613,-2.1375,-2.1361,-2.1361,-2.1264,-2.1091,-2.0401,-1.9847,-1.9243,-1.8534,-1.7962,-1.7636,-1.7611,-1.7303,-1.6835,-1.6883,-1.645,-1.5524,-1.5837,-1.5758,-1.5068,-1.5439,-1.5662,-1.5713,-1.5817,-1.6144,-1.6924,-1.8371,-1.9472,-2.0289,-2.0494,-2.061,-2.0745,-2.0194,-1.9909,-1.953,-1.8582,-1.7764,-1.7559,-1.6975,-1.6596,-1.6554,-1.6479,-1.6479,-1.6633,-1.6659,-1.6727,-1.6815,-1.6789,-1.6406,-1.5855,-1.5717,-1.5174,-1.4252,-1.2944,-1.2318,-1.2226,-1.2257,-1.2405,-1.2847,-1.2429,-1.2433,-1.2418,-1.2067,-1.1652,-1.14,-1.1219,-1.121,-1.1132,-1.0982,-1.0991,-1.1038,-1.092,-1.0787,-1.053,-1.0254,-0.9742,-0.9309,-0.9112,-0.8777,-0.8209,-0.7966,-0.7608,-0.728,-0.707,-0.6786,-0.6231,-0.577,-0.5495,-0.5195,-0.4895,-0.4508,-2.47,-2.5576,-2.5589,-2.6177,-2.6857,-2.6033,-2.5589,-2.5458,-2.4517,-2.4125,-2.4112,-2.4125,-2.4053,-2.3945,-2.3461,-2.354,-2.358,-2.265,-2.2678,-2.3082,-2.1956,-2.1518,-2.1627,-2.1518,-2.1313,-2.1277,-2.1277,-2.1144,-2.0894,-1.9953,-1.9337,-1.9139,-1.8143,-1.7631,-1.7528,-1.7223,-1.677,-1.6348,-1.6308,-1.6126,-1.564,-1.5442,-1.5349,-1.5262,-1.5322,-1.5504,-1.5696,-1.594,-1.6632,-1.77,-1.8191,-1.9102,-2.0268,-2.0457,-2.0525,-2.0646,-2.0538,-2.024,-1.972,-1.8945,-1.825,-1.7685,-1.7011,-1.6543,-1.6528,-1.6425,-1.6382,-1.6463,-1.6517,-1.6633,-1.6712,-1.6783,-1.663,-1.6208,-1.5123,-1.4076,-1.3582,-1.2744,-1.221,-1.2241,-1.2642,-1.2759,-1.2593,-1.2619,-1.2583,-1.2342,-1.214,-1.1814,-1.1681,-1.1547,-1.1551,-1.1299,-1.1169,-1.1239,-1.1224,-1.1108,-1.094,-1.061,-1.0118,-0.9394,-0.8887,-0.8433,-0.7921,-0.7325,-0.7746,-0.7588,-0.7168,-0.6868,-0.6557,-0.6461,-0.6051,-0.5743,-0.5491,-0.5196,-0.4762,-2.4779,-2.5811,-2.5811,-2.6491,-2.7327,-2.6308,-2.5811,-2.5589,-2.4635,-2.4125,-2.4073,-2.3838,-2.3922,-2.4173,-2.3252,-2.3406,-2.3986,-2.2848,-2.2624,-2.283,-2.1929,-2.145,-2.1375,-2.1375,-2.1277,-2.118,-2.1131,-2.1059,-2.0726,-1.9674,-1.9159,-1.8805,-1.7873,-1.7334,-1.7337,-1.689,-1.636,-1.5837,-1.577,-1.5607,-1.509,-1.5067,-1.5159,-1.5253,-1.5315,-1.5463,-1.5883,-1.6095,-1.6824,-1.7869,-1.8268,-1.8869,-2.0203,-2.0373,-2.0491,-2.0677,-2.0677,-2.0506,-2.0114,-1.9309,-1.8679,-1.8271,-1.7377,-1.6768,-1.6745,-1.6585,-1.6355,-1.6501,-1.657,-1.6649,-1.669,-1.66,-1.6298,-1.5811,-1.4557,-1.3754,-1.4006,-1.3513,-1.2981,-1.2842,-1.2919,-1.3082,-1.2599,-1.2833,-1.2742,-1.2569,-1.2742,-1.2432,-1.2169,-1.202,-1.1901,-1.1757,-1.1485,-1.1473,-1.133,-1.1178,-1.0847,-1.0545,-0.9781,-0.9059,-0.8523,-0.7972,-0.7689,-0.7392,-0.7567,-0.754,-0.7136,-0.692,-0.7074,-0.6872,-0.6389,-0.6021,-0.5746,-0.5401,-0.4948,-2.4739,-2.5746,-2.5733,-2.636,-2.7053,-2.6216,-2.5667,-2.5511,-2.457,-2.4125,-2.3995,-2.3485,-2.366,-2.4173,-2.2936,-2.2723,-2.3811,-2.2793,-2.2332,-2.2151,-2.1618,-2.1375,-2.1326,-2.1277,-2.1193,-2.1144,-2.1046,-2.0974,-2.0637,-1.968,-1.9094,-1.8747,-1.7839,-1.7303,-1.7162,-1.6744,-1.6087,-1.5713,-1.557,-1.5377,-1.492,-1.4896,-1.5006,-1.5328,-1.5433,-1.5682,-1.6042,-1.6332,-1.6932,-1.8161,-1.8146,-1.8838,-2.0064,-2.0342,-2.0429,-2.061,-2.0644,-2.0662,-2.0572,-1.9562,-1.9011,-1.9044,-1.7707,-1.6894,-1.7096,-1.676,-1.6425,-1.6528,-1.6596,-1.6649,-1.6719,-1.6148,-1.5767,-1.5516,-1.48,-1.4658,-1.5001,-1.4615,-1.3875,-1.3327,-1.3188,-1.3104,-1.3037,-1.2955,-1.2826,-1.2395,-1.2659,-1.2762,-1.2662,-1.2698,-1.2594,-1.249,-1.2148,-1.1733,-1.1473,-1.1187,-1.08,-1.0372,-0.9382,-0.8624,-0.8183,-0.7795,-0.7691,-0.7606,-0.7437,-0.7271,-0.7063,-0.7079,-0.7253,-0.7073,-0.6433,-0.6205,-0.6021,-0.5606,-0.5168,-2.4517,-2.5145,-2.5158,-2.555,-2.602,-2.5458,-2.5171,-2.5105,-2.4426,-2.4125,-2.3981,-2.3485,-2.3664,-2.4271,-2.3136,-2.3043,-2.3546,-2.2719,-2.2088,-2.1551,-2.1372,-2.1277,-2.1229,-2.118,-2.1109,-2.1023,-2.0924,-2.0875,-2.0552,-1.9991,-1.9355,-1.8858,-1.8244,-1.7669,-1.7199,-1.6797,-1.6675,-1.66,-1.6,-1.5637,-1.556,-1.5068,-1.5027,-1.5463,-1.5696,-1.5926,-1.6189,-1.6644,-1.7318,-1.7838,-1.7869,-1.8391,-1.9826,-1.9906,-1.9973,-2.0385,-2.0478,-2.0512,-2.0505,-1.9909,-1.9437,-1.9311,-1.8185,-1.7296,-1.7244,-1.6663,-1.6308,-1.6316,-1.6316,-1.6409,-1.6517,-1.595,-1.5785,-1.5822,-1.5469,-1.5314,-1.579,-1.4774,-1.391,-1.3493,-1.3078,-1.2634,-1.2603,-1.2448,-1.2377,-1.2259,-1.2539,-1.2891,-1.3032,-1.3181,-1.3032,-1.2792,-1.2342,-1.1874,-1.1571,-1.1179,-1.0619,-1.0084,-0.9138,-0.8419,-0.7986,-0.7537,-0.7423,-0.7265,-0.7062,-0.693,-0.6836,-0.6668,-0.6716,-0.6562,-0.6466,-0.6259,-0.6027,-0.5658,-0.5324,-2.4452,-2.4962,-2.4975,-2.5301,-2.568,-2.5223,-2.4975,-2.4857,-2.436,-2.4125,-2.3995,-2.3542,-2.3778,-2.4275,-2.3165,-2.2798,-2.3098,-2.2378,-2.1735,-2.1429,-2.1277,-2.1193,-2.1095,-2.1046,-2.0974,-2.0901,-2.0825,-2.0775,-2.0555,-2.0113,-1.963,-1.9264,-1.8532,-1.7983,-1.7512,-1.6888,-1.6625,-1.665,-1.6153,-1.5797,-1.5791,-1.5324,-1.4996,-1.5374,-1.574,-1.6131,-1.66,-1.6668,-1.7486,-1.8128,-1.7929,-1.8265,-1.9854,-2.0014,-2.0082,-2.0335,-2.0169,-2.0293,-2.0379,-1.9782,-1.9186,-1.9418,-1.8204,-1.7585,-1.7155,-1.6635,-1.628,-1.6222,-1.6222,-1.6219,-1.627,-1.608,-1.6049,-1.6099,-1.5914,-1.5949,-1.625,-1.5596,-1.4685,-1.4285,-1.3834,-1.3141,-1.2718,-1.2405,-1.2143,-1.2162,-1.3019,-1.3301,-1.2852,-1.2957,-1.2981,-1.2739,-1.2319,-1.1917,-1.1659,-1.1131,-1.0415,-0.9774,-0.8972,-0.8427,-0.8011,-0.755,-0.7121,-0.7018,-0.6941,-0.6746,-0.6616,-0.6435,-0.6333,-0.6514,-0.6474,-0.6269,-0.6018,-0.5709,-0.5346,-2.44,-2.4831,-2.4904,-2.5132,-2.5445,-2.5027,-2.4805,-2.4739,-2.4334,-2.4125,-2.4008,-2.3681,-2.3847,-2.4096,-2.3017,-2.2665,-2.2607,-2.2047,-2.145,-2.1375,-2.1229,-2.1131,-2.1033,-2.0911,-2.0875,-2.0851,-2.0775,-2.0712,-2.0581,-2.0205,-1.993,-1.963,-1.878,-1.8218,-1.7878,-1.712,-1.6731,-1.6873,-1.6462,-1.6084,-1.582,-1.546,-1.5182,-1.512,-1.5624,-1.6165,-1.6589,-1.6774,-1.73,-1.8791,-1.8167,-1.8609,-1.9526,-2.0184,-2.0268,-2.0307,-1.9999,-2.0078,-2.0158,-1.9499,-1.8999,-1.9307,-1.8144,-1.7403,-1.7128,-1.6738,-1.6433,-1.6328,-1.6328,-1.6344,-1.6179,-1.6142,-1.6102,-1.6108,-1.6126,-1.6277,-1.6528,-1.6644,-1.5999,-1.5263,-1.439,-1.3552,-1.3016,-1.2623,-1.2329,-1.2237,-1.3086,-1.351,-1.3017,-1.2844,-1.2933,-1.2844,-1.2467,-1.1711,-1.1344,-1.0812,-1.0116,-0.9343,-0.8618,-0.8332,-0.7977,-0.7669,-0.727,-0.6982,-0.6847,-0.6615,-0.6275,-0.5947,-0.6017,-0.6405,-0.6394,-0.6073,-0.5852,-0.5692,-0.5369,-2.4164,-2.4256,-2.4256,-2.4321,-2.4387,-2.4308,-2.4295,-2.4243,-2.4178,-2.4125,-2.4034,-2.3695,-2.3834,-2.3944,-2.3339,-2.2733,-2.2295,-2.1776,-2.1415,-2.1326,-2.118,-2.1033,-2.0947,-2.0799,-2.0762,-2.0699,-2.0699,-2.0699,-2.0686,-2.0581,-2.0244,-1.976,-1.9094,-1.8571,-1.8061,-1.7463,-1.7262,-1.7449,-1.7111,-1.681,-1.6434,-1.5778,-1.5227,-1.5056,-1.5566,-1.599,-1.6302,-1.6696,-1.7121,-1.7516,-1.7899,-1.8236,-1.8714,-1.9258,-1.9557,-1.9684,-1.9841,-1.9859,-1.9639,-1.9467,-1.9278,-1.9043,-1.8099,-1.7358,-1.7113,-1.6822,-1.6564,-1.6575,-1.6644,-1.6659,-1.6382,-1.6355,-1.6258,-1.6136,-1.6139,-1.6344,-1.6696,-1.6763,-1.6662,-1.6053,-1.4973,-1.393,-1.3477,-1.2957,-1.2538,-1.2381,-1.2771,-1.3047,-1.2718,-1.2835,-1.3129,-1.2951,-1.2698,-1.1792,-1.0977,-1.0326,-0.967,-0.8836,-0.8239,-0.814,-0.787,-0.7769,-0.7498,-0.7007,-0.6587,-0.6252,-0.5902,-0.5549,-0.5599,-0.5932,-0.5884,-0.5813,-0.5679,-0.5531,-0.5373,-2.4125,-2.4125,-2.4125,-2.4125,-2.4125,-2.4125,-2.4125,-2.4125,-2.4125,-2.4125,-2.4013,-2.3778,-2.3891,-2.403,-2.3151,-2.2363,-2.1889,-2.1952,-2.1645,-2.1372,-2.1082,-2.0961,-2.0961,-2.0762,-2.0699,-2.0699,-2.0699,-2.0699,-2.0699,-2.0686,-2.0515,-2.0126,-1.9381,-1.8767,-1.8438,-1.7885,-1.7719,-1.7865,-1.7744,-1.7383,-1.6861,-1.5933,-1.5329,-1.5296,-1.5551,-1.6021,-1.6456,-1.6306,-1.6892,-1.7532,-1.7693,-1.7893,-1.8221,-1.8563,-1.8936,-1.8968,-1.9061,-1.9139,-1.8905,-1.8718,-1.833,-1.8192,-1.7621,-1.713,-1.682,-1.6624,-1.668,-1.6809,-1.6834,-1.6815,-1.649,-1.6474,-1.6328,-1.6108,-1.6095,-1.6382,-1.6722,-1.6735,-1.6694,-1.6577,-1.5762,-1.4779,-1.3975,-1.3436,-1.2856,-1.2674,-1.2666,-1.2569,-1.2434,-1.2636,-1.2948,-1.2633,-1.2261,-1.1512,-1.0752,-1.0291,-0.9538,-0.8645,-0.823,-0.8102,-0.7922,-0.7888,-0.736,-0.6738,-0.6349,-0.6163,-0.5725,-0.5451,-0.5435,-0.5427,-0.5418,-0.5407,-0.5432,-0.5356,-0.5219,-2.4125,-2.4125,-2.4125,-2.4125,-2.4125,-2.4125,-2.4125,-2.4125,-2.4125,-2.4125,-2.4105,-2.3966,-2.4136,-2.4142,-2.3245,-2.2224,-2.1654,-2.197,-2.1664,-2.1274,-2.1059,-2.0974,-2.0888,-2.0775,-2.0699,-2.0699,-2.0699,-2.0699,-2.066,-2.0515,-2.0515,-2.0048,-1.9277,-1.8741,-1.8498,-1.7898,-1.7841,-1.7838,-1.7921,-1.7598,-1.675,-1.5791,-1.5239,-1.5299,-1.5477,-1.5921,-1.6383,-1.6003,-1.636,-1.6967,-1.7191,-1.7154,-1.7685,-1.7958,-1.8063,-1.8046,-1.7854,-1.8102,-1.8028,-1.7936,-1.7615,-1.7482,-1.7222,-1.6807,-1.6616,-1.6712,-1.6921,-1.7101,-1.7183,-1.7068,-1.6799,-1.6607,-1.6436,-1.6191,-1.6108,-1.6188,-1.6549,-1.6674,-1.6668,-1.6497,-1.6184,-1.5623,-1.4774,-1.385,-1.3256,-1.2977,-1.2962,-1.2626,-1.2473,-1.2283,-1.2371,-1.2043,-1.1634,-1.1026,-1.0556,-1.0444,-0.9665,-0.8756,-0.8664,-0.8691,-0.8402,-0.8126,-0.7489,-0.6967,-0.6602,-0.6371,-0.584,-0.5354,-0.5265,-0.5165,-0.5085,-0.5101,-0.5249,-0.5261,-0.5146,-2.4125,-2.4125,-2.4125,-2.4125,-2.4125,-2.4125,-2.4125,-2.4125,-2.4125,-2.4125,-2.4099,-2.4341,-2.4446,-2.4236,-2.3514,-2.2728,-2.2187,-2.1682,-2.143,-2.1158,-2.1023,-2.0888,-2.0888,-2.0775,-2.0699,-2.0699,-2.0699,-2.0699,-2.0581,-2.0178,-1.9969,-1.976,-1.9002,-1.8231,-1.8231,-1.7818,-1.7308,-1.7352,-1.7464,-1.7111,-1.628,-1.5239,-1.4997,-1.5088,-1.5163,-1.5267,-1.5728,-1.5426,-1.5605,-1.6039,-1.6039,-1.6097,-1.6397,-1.6509,-1.6576,-1.7046,-1.7647,-1.8273,-1.7671,-1.7408,-1.7273,-1.7093,-1.6895,-1.669,-1.6665,-1.6922,-1.7283,-1.7664,-1.7675,-1.7496,-1.715,-1.6977,-1.6738,-1.6436,-1.6163,-1.6246,-1.6448,-1.6465,-1.6475,-1.6528,-1.6301,-1.6091,-1.5532,-1.4563,-1.3703,-1.3467,-1.319,-1.2842,-1.2468,-1.223,-1.2064,-1.1803,-1.1568,-1.0996,-1.0678,-1.0538,-1.0077,-0.9105,-0.9213,-0.9306,-0.8839,-0.8453,-0.8049,-0.7543,-0.7089,-0.6414,-0.5789,-0.535,-0.5105,-0.499,-0.4953,-0.5053,-0.5181,-0.5123,-0.4954,-2.4125,-2.4125,-2.4125,-2.4125,-2.4125,-2.4125,-2.4125,-2.4125,-2.4125,-2.4171,-2.4182,-2.4063,-2.4008,-2.3783,-2.3351,-2.285,-2.2309,-2.1843,-2.1462,-2.1135,-2.0974,-2.0851,-2.0775,-2.0712,-2.0699,-2.0699,-2.0646,-2.0401,-2.0283,-2.0332,-2.0165,-1.9643,-1.8989,-1.8414,-1.8066,-1.7975,-1.7787,-1.7666,-1.7475,-1.7133,-1.6458,-1.5744,-1.5244,-1.5056,-1.5041,-1.5179,-1.5299,-1.4968,-1.521,-1.5667,-1.574,-1.5696,-1.6095,-1.6277,-1.6344,-1.6418,-1.6936,-1.7152,-1.6948,-1.6893,-1.6853,-1.6722,-1.6537,-1.6433,-1.6622,-1.6971,-1.7329,-1.7549,-1.7721,-1.7635,-1.7384,-1.7068,-1.6773,-1.6474,-1.625,-1.6371,-1.6409,-1.62,-1.6223,-1.6336,-1.6416,-1.6255,-1.6105,-1.565,-1.4683,-1.4038,-1.3675,-1.3255,-1.2632,-1.2,-1.1884,-1.1776,-1.1497,-1.1181,-1.0956,-1.0776,-1.0634,-1.0024,-1.009,-0.9995,-0.9288,-0.8824,-0.8487,-0.783,-0.7069,-0.6392,-0.5735,-0.5292,-0.4979,-0.4896,-0.4847,-0.4908,-0.4933,-0.4652,-0.4508,-2.3675,-2.3852,-2.4054,-2.4125,-2.4125,-2.4125,-2.4125,-2.4125,-2.4125,-2.4157,-2.4103,-2.3907,-2.3621,-2.3378,-2.3121,-2.2647,-2.2218,-2.1968,-2.1509,-2.113,-2.0861,-2.0825,-2.0762,-2.0699,-2.0699,-2.0699,-2.0699,-2.0529,-2.0361,-2.0345,-2.0214,-1.942,-1.8806,-1.8336,-1.8038,-1.7894,-1.7787,-1.7558,-1.7299,-1.7009,-1.6589,-1.5991,-1.5497,-1.5149,-1.5017,-1.5088,-1.5255,-1.4876,-1.509,-1.5696,-1.5595,-1.5595,-1.6095,-1.6163,-1.6357,-1.6537,-1.6915,-1.6952,-1.6851,-1.6768,-1.6441,-1.6382,-1.6452,-1.6586,-1.6727,-1.6962,-1.7149,-1.7432,-1.7635,-1.7635,-1.7432,-1.7093,-1.6841,-1.6612,-1.6378,-1.6483,-1.6543,-1.6347,-1.6251,-1.6351,-1.6448,-1.6436,-1.6365,-1.6476,-1.5838,-1.4828,-1.4196,-1.364,-1.2861,-1.1985,-1.1854,-1.179,-1.1412,-1.1266,-1.1334,-1.1131,-1.0951,-1.0785,-1.0851,-1.06,-0.9833,-0.9356,-0.9056,-0.8226,-0.7281,-0.6681,-0.6229,-0.5536,-0.4873,-0.48,-0.4759,-0.4654,-0.4554,-0.4346,-0.4164,-2.2604,-2.322,-2.3852,-2.4112,-2.4125,-2.4125,-2.4125,-2.4125,-2.4125,-2.4086,-2.4,-2.3838,-2.3728,-2.3609,-2.281,-2.2258,-2.2089,-2.1402,-2.1116,-2.0914,-2.0775,-2.0712,-2.0699,-2.0699,-2.0699,-2.0699,-2.0699,-2.0673,-2.0594,-2.0424,-1.9664,-1.844,-1.8479,-1.7891,-1.7529,-1.7485,-1.7516,-1.7313,-1.7076,-1.6834,-1.6426,-1.5829,-1.5209,-1.52,-1.4651,-1.4319,-1.4951,-1.4797,-1.4968,-1.5754,-1.5521,-1.5536,-1.5968,-1.6146,-1.646,-1.6882,-1.7047,-1.7174,-1.7235,-1.6986,-1.6697,-1.6675,-1.6753,-1.6863,-1.6927,-1.7199,-1.7377,-1.7408,-1.7595,-1.7641,-1.7479,-1.7224,-1.6926,-1.6769,-1.658,-1.6553,-1.657,-1.6475,-1.6396,-1.6432,-1.6463,-1.649,-1.6417,-1.6456,-1.5911,-1.4879,-1.3796,-1.321,-1.278,-1.2107,-1.2024,-1.1849,-1.1337,-1.1302,-1.1683,-1.1517,-1.1103,-1.0942,-1.0926,-1.0726,-1.0279,-0.9915,-0.9429,-0.8741,-0.7858,-0.7268,-0.6643,-0.5893,-0.5254,-0.4861,-0.468,-0.4705,-0.4696,-0.4577,-0.4279,-2.247,-2.3148,-2.3399,-2.3734,-2.4125,-2.4125,-2.4125,-2.4125,-2.4112,-2.3948,-2.3734,-2.3334,-2.3191,-2.2964,-2.2146,-2.1693,-2.183,-2.1276,-2.099,-2.0875,-2.0762,-2.0699,-2.0699,-2.0699,-2.0699,-2.0699,-2.0686,-2.0414,-2.0126,-2.0205,-1.9355,-1.8545,-1.8388,-1.7944,-1.7539,-1.7253,-1.7323,-1.7476,-1.729,-1.7103,-1.6532,-1.658,-1.5937,-1.4887,-1.5308,-1.4911,-1.5037,-1.4966,-1.524,-1.5521,-1.5595,-1.577,-1.6032,-1.6347,-1.6829,-1.7222,-1.7313,-1.7472,-1.7638,-1.7377,-1.714,-1.6891,-1.6956,-1.7016,-1.7011,-1.7232,-1.7353,-1.7432,-1.7549,-1.7641,-1.7361,-1.7167,-1.6993,-1.6857,-1.6785,-1.6728,-1.6701,-1.6642,-1.6693,-1.6799,-1.6686,-1.6581,-1.6476,-1.6346,-1.5676,-1.4863,-1.3791,-1.2815,-1.2432,-1.2149,-1.2024,-1.1961,-1.1523,-1.1474,-1.1864,-1.1576,-1.1205,-1.1113,-1.1024,-1.0667,-1.0336,-1.0034,-0.954,-0.8949,-0.8364,-0.77,-0.6986,-0.6208,-0.5667,-0.529,-0.5037,-0.4941,-0.4877,-0.4774,-0.4453,-2.1978,-2.2786,-2.2774,-2.3292,-2.4054,-2.4125,-2.4125,-2.4125,-2.4125,-2.3856,-2.349,-2.2989,-2.2764,-2.2458,-2.1619,-2.1356,-2.1595,-2.1228,-2.0954,-2.0825,-2.0712,-2.0699,-2.0699,-2.0699,-2.0699,-2.0699,-2.0686,-2.0476,-2.0191,-1.9917,-1.9277,-1.8741,-1.8466,-1.797,-1.7447,-1.7253,-1.7365,-1.7557,-1.7558,-1.7383,-1.677,-1.6579,-1.658,-1.5197,-1.5264,-1.5198,-1.5142,-1.5213,-1.5403,-1.5699,-1.5905,-1.5993,-1.6291,-1.6711,-1.7318,-1.747,-1.7515,-1.7647,-1.7858,-1.7652,-1.7433,-1.7164,-1.7117,-1.7092,-1.7083,-1.724,-1.7361,-1.7361,-1.7526,-1.7526,-1.724,-1.7093,-1.7018,-1.6908,-1.6981,-1.6961,-1.6984,-1.6979,-1.7077,-1.7175,-1.7002,-1.6773,-1.6354,-1.6076,-1.5288,-1.4489,-1.3383,-1.2582,-1.223,-1.1976,-1.1891,-1.1848,-1.1736,-1.1858,-1.2033,-1.1736,-1.1424,-1.111,-1.093,-1.057,-1.0236,-0.9957,-0.9567,-0.8935,-0.8403,-0.7984,-0.7386,-0.6685,-0.6167,-0.5742,-0.5459,-0.5151,-0.4949,-0.4832,-0.4571,-2.0944,-2.2039,-2.2101,-2.2859,-2.3995,-2.4125,-2.4125,-2.4099,-2.4047,-2.3778,-2.3342,-2.2801,-2.2525,-2.2352,-2.1319,-2.1215,-2.1376,-2.1112,-2.0838,-2.0712,-2.0699,-2.0699,-2.0699,-2.0699,-2.0699,-2.0699,-2.0686,-2.066,-2.0581,-1.9891,-1.9316,-1.878,-1.831,-1.7813,-1.7251,-1.7212,-1.7199,-1.724,-1.724,-1.7188,-1.6952,-1.6401,-1.611,-1.5864,-1.5353,-1.5175,-1.5234,-1.544,-1.5566,-1.5654,-1.6398,-1.6503,-1.6346,-1.7228,-1.7837,-1.81,-1.8069,-1.8311,-1.8731,-1.7918,-1.7486,-1.7354,-1.7281,-1.7232,-1.7117,-1.724,-1.7432,-1.7455,-1.7542,-1.7455,-1.7264,-1.7117,-1.7068,-1.7016,-1.7101,-1.7219,-1.7273,-1.7278,-1.7351,-1.7384,-1.7199,-1.6944,-1.638,-1.579,-1.4924,-1.4018,-1.2953,-1.235,-1.2052,-1.1927,-1.1884,-1.1912,-1.1912,-1.2012,-1.2075,-1.1912,-1.1645,-1.1256,-1.0835,-1.0447,-1.0122,-0.9854,-0.9422,-0.8883,-0.8458,-0.8032,-0.7644,-0.7201,-0.6616,-0.6053,-0.5646,-0.5317,-0.5102,-0.4958,-0.4798,-2.0445,-2.1023,-2.1288,-2.2237,-2.3412,-2.3923,-2.4125,-2.4047,-2.3694,-2.3223,-2.2703,-2.2127,-2.1668,-2.1325,-2.1165,-2.0917,-2.0959,-2.0946,-2.0699,-2.0699,-2.0699,-2.0699,-2.0699,-2.0699,-2.0699,-2.0699,-2.0699,-2.0699,-2.066,-1.9773,-1.9237,-1.8741,-1.7996,-1.7447,-1.7251,-1.7212,-1.7199,-1.7199,-1.7212,-1.7186,-1.7149,-1.6639,-1.6275,-1.6217,-1.5634,-1.5342,-1.528,-1.5503,-1.5595,-1.5669,-1.6442,-1.6849,-1.6711,-1.7469,-1.8114,-1.8268,-1.8171,-1.7732,-1.777,-1.7363,-1.7427,-1.7394,-1.7401,-1.7377,-1.7273,-1.7512,-1.7606,-1.7566,-1.7566,-1.7408,-1.7142,-1.7297,-1.7273,-1.7158,-1.724,-1.7452,-1.7519,-1.7509,-1.7532,-1.7502,-1.7401,-1.7167,-1.6738,-1.5883,-1.5001,-1.4498,-1.3635,-1.262,-1.216,-1.203,-1.1976,-1.2039,-1.2081,-1.2138,-1.2096,-1.1869,-1.1659,-1.1324,-1.0774,-1.0273,-0.997,-0.9738,-0.9289,-0.8773,-0.8449,-0.8109,-0.7608,-0.7127,-0.6789,-0.6328,-0.5929,-0.5612,-0.542,-0.5357,-0.5361,-1.9916,-2.0412,-2.0722,-2.1761,-2.3075,-2.3603,-2.3865,-2.3989,-2.3681,-2.321,-2.2662,-2.2086,-2.1538,-2.108,-2.0791,-2.0699,-2.0699,-2.0699,-2.0699,-2.0699,-2.0699,-2.0699,-2.0699,-2.0699,-2.0699,-2.0699,-2.0699,-2.0699,-2.0633,-1.9473,-1.8702,-1.814,-1.7617,-1.7316,-1.7212,-1.7212,-1.7212,-1.7212,-1.7212,-1.7199,-1.707,-1.6784,-1.6476,-1.6197,-1.5854,-1.5539,-1.5396,-1.5429,-1.561,-1.5817,-1.6413,-1.6998,-1.7045,-1.7502,-1.8129,-1.812,-1.8103,-1.7572,-1.7302,-1.733,-1.7377,-1.7394,-1.7448,-1.7536,-1.7552,-1.7675,-1.7721,-1.7681,-1.7635,-1.7408,-1.7216,-1.741,-1.7386,-1.7273,-1.7353,-1.7559,-1.7669,-1.7618,-1.7612,-1.7582,-1.7448,-1.7232,-1.6926,-1.6055,-1.5143,-1.4786,-1.4399,-1.3397,-1.2417,-1.2262,-1.2158,-1.2123,-1.2123,-1.2081,-1.1955,-1.1703,-1.149,-1.131,-1.0784,-1.0223,-0.988,-0.9647,-0.9143,-0.8651,-0.8269,-0.785,-0.7392,-0.6978,-0.6704,-0.6493,-0.6263,-0.5984,-0.5739,-0.5703,-0.5725,-1.9315,-2.0224,-2.0354,-2.1354,-2.277,-2.2852,-2.3357,-2.3989,-2.3878,-2.3501,-2.3024,-2.2437,-2.1876,-2.1433,-2.0987,-2.0751,-2.0699,-2.0699,-2.0699,-2.0699,-2.0699,-2.0699,-2.0699,-2.0699,-2.0699,-2.0699,-2.0673,-2.062,-2.0529,-1.9316,-1.8257,-1.7565,-1.7329,-1.7212,-1.7212,-1.7212,-1.7212,-1.7212,-1.7212,-1.7212,-1.7136,-1.677,-1.6545,-1.6241,-1.5915,-1.5594,-1.5474,-1.5543,-1.5625,-1.6054,-1.6788,-1.6799,-1.6995,-1.75,-1.7692,-1.7852,-1.8058,-1.7655,-1.728,-1.7353,-1.7384,-1.7425,-1.7652,-1.7743,-1.7726,-1.7743,-1.7766,-1.7704,-1.7658,-1.7455,-1.7329,-1.737,-1.741,-1.7401,-1.7432,-1.7566,-1.7658,-1.7658,-1.7629,-1.7559,-1.7401,-1.7158,-1.6763,-1.6015,-1.5308,-1.5293,-1.497,-1.4397,-1.3451,-1.2651,-1.2493,-1.2179,-1.2123,-1.1997,-1.1833,-1.1681,-1.1437,-1.1279,-1.0798,-1.0248,-0.9906,-0.9504,-0.9023,-0.854,-0.807,-0.7618,-0.7154,-0.6863,-0.6643,-0.6468,-0.6315,-0.6121,-0.5802,-0.5888,-0.5876,-1.8687,-1.8766,-1.9432,-2.0068,-2.0689,-2.1183,-2.1927,-2.2705,-2.2018,-2.1624,-2.1949,-2.1809,-2.1617,-2.1511,-2.1328,-2.1002,-2.083,-2.0699,-2.0699,-2.0699,-2.0699,-2.0699,-2.0699,-2.0699,-2.0699,-2.0686,-2.0646,-2.0463,-1.9878,-1.8911,-1.8048,-1.7329,-1.7212,-1.7212,-1.7212,-1.7212,-1.7212,-1.7212,-1.7212,-1.724,-1.7151,-1.6877,-1.67,-1.6386,-1.6028,-1.5731,-1.5601,-1.5624,-1.5682,-1.5918,-1.6741,-1.6995,-1.7116,-1.7459,-1.765,-1.7516,-1.7593,-1.7518,-1.7345,-1.7361,-1.7408,-1.7455,-1.7658,-1.7635,-1.7635,-1.7681,-1.7789,-1.7726,-1.7658,-1.7479,-1.7401,-1.7417,-1.7417,-1.7448,-1.7502,-1.7572,-1.7658,-1.7652,-1.7622,-1.7512,-1.7329,-1.6968,-1.6581,-1.595,-1.5372,-1.5586,-1.5483,-1.498,-1.439,-1.3558,-1.2867,-1.2551,-1.2318,-1.2259,-1.1964,-1.1805,-1.1482,-1.1164,-1.0763,-1.0348,-0.9957,-0.9516,-0.8981,-0.84,-0.7811,-0.7324,-0.6924,-0.6712,-0.656,-0.6407,-0.623,-0.6052,-0.5913,-0.5921,-0.5797,-1.8534,-1.8403,-1.9091,-1.9705,-2.0243,-2.0476,-2.09,-2.1229,-2.1003,-2.1128,-2.1448,-2.1431,-2.1433,-2.144,-2.1212,-2.1,-2.0712,-2.0699,-2.0699,-2.0699,-2.0699,-2.0699,-2.0699,-2.0686,-2.0699,-2.0646,-2.045,-2.0126,-1.9525,-1.8689,-1.78,-1.7264,-1.7212,-1.7212,-1.7212,-1.7212,-1.7212,-1.7212,-1.724,-1.7269,-1.7208,-1.709,-1.6889,-1.6543,-1.6177,-1.5934,-1.5654,-1.5696,-1.5754,-1.5883,-1.6644,-1.6778,-1.6835,-1.703,-1.7149,-1.7083,-1.7338,-1.733,-1.7264,-1.7472,-1.7519,-1.7549,-1.7681,-1.7681,-1.7658,-1.7704,-1.7726,-1.7726,-1.7635,-1.7566,-1.7512,-1.7482,-1.7489,-1.7472,-1.7542,-1.7595,-1.7612,-1.7606,-1.7536,-1.7441,-1.7158,-1.6789,-1.6313,-1.574,-1.5551,-1.5884,-1.5876,-1.5446,-1.4898,-1.4264,-1.351,-1.2976,-1.2747,-1.2568,-1.224,-1.1915,-1.1571,-1.1279,-1.093,-1.0521,-1.0046,-0.9425,-0.8805,-0.8135,-0.7462,-0.7095,-0.6811,-0.6621,-0.646,-0.6315,-0.6168,-0.5998,-0.5828,-0.5765,-0.554,-1.8622,-1.8622,-1.9069,-1.9687,-2.0688,-2.0202,-1.9826,-1.9691,-2.0429,-2.1151,-2.117,-2.1235,-2.1213,-2.115,-2.0951,-2.0719,-2.0588,-2.0599,-2.0699,-2.0699,-2.0699,-2.0699,-2.0686,-2.066,-2.0476,-2.0384,-2.0048,-1.959,-1.9316,-1.8493,-1.7617,-1.7225,-1.7212,-1.7212,-1.7253,-1.7212,-1.7199,-1.724,-1.7122,-1.7113,-1.7316,-1.7236,-1.6996,-1.6577,-1.6312,-1.6084,-1.5801,-1.5754,-1.5868,-1.6111,-1.6225,-1.6299,-1.6437,-1.6546,-1.6601,-1.6753,-1.7117,-1.7167,-1.7216,-1.7384,-1.7572,-1.7641,-1.7726,-1.7749,-1.7772,-1.7749,-1.7749,-1.7726,-1.7635,-1.7566,-1.7512,-1.7482,-1.7482,-1.7489,-1.7536,-1.7566,-1.7549,-1.7519,-1.7417,-1.7256,-1.6917,-1.6581,-1.6528,-1.6009,-1.5797,-1.6188,-1.6165,-1.5768,-1.5468,-1.4891,-1.4217,-1.3519,-1.308,-1.2799,-1.2429,-1.208,-1.1726,-1.1392,-1.1071,-1.0556,-1.0008,-0.9307,-0.8601,-0.7964,-0.7344,-0.7035,-0.6742,-0.656,-0.6376,-0.6222,-0.6067,-0.5912,-0.5811,-0.5703,-0.5257,-1.8174,-1.8141,-1.7901,-1.8181,-1.8663,-1.8209,-1.8056,-1.7934,-1.8527,-1.9368,-2.0041,-2.0175,-2.0411,-2.0707,-2.0699,-2.0475,-2.0169,-2.0549,-2.0649,-2.0699,-2.0699,-2.0633,-2.0518,-2.0208,-2.0074,-1.9812,-1.9447,-1.8924,-1.8493,-1.7852,-1.7395,-1.7225,-1.7212,-1.7253,-1.7308,-1.7253,-1.724,-1.7282,-1.6795,-1.6677,-1.6784,-1.6678,-1.6395,-1.6249,-1.6087,-1.6239,-1.607,-1.5996,-1.6095,-1.6194,-1.6194,-1.6305,-1.6436,-1.6528,-1.6659,-1.6841,-1.6977,-1.7043,-1.7142,-1.7313,-1.7462,-1.7526,-1.7572,-1.7755,-1.7822,-1.7816,-1.7772,-1.771,-1.7635,-1.7566,-1.7512,-1.7505,-1.7498,-1.7505,-1.7529,-1.7519,-1.7509,-1.7408,-1.7305,-1.7018,-1.667,-1.6565,-1.6554,-1.6421,-1.6258,-1.6176,-1.6163,-1.6001,-1.6006,-1.5624,-1.4928,-1.4216,-1.3451,-1.306,-1.2634,-1.2236,-1.1858,-1.1505,-1.1187,-1.0616,-0.997,-0.9054,-0.822,-0.7801,-0.7294,-0.6945,-0.6621,-0.6415,-0.6261,-0.616,-0.6183,-0.6122,-0.5866,-0.5734,-0.5131,-1.8196,-1.801,-1.7944,-1.8065,-1.8228,-1.801,-1.7791,-1.7671,-1.7901,-1.8419,-1.9042,-1.9216,-1.9502,-1.9958,-2.0135,-2.02,-1.9926,-2.0435,-2.0649,-2.0699,-2.0633,-2.0489,-2.0231,-1.9759,-1.9534,-1.9261,-1.8774,-1.827,-1.7761,-1.7473,-1.7238,-1.7212,-1.7212,-1.7253,-1.7308,-1.7253,-1.7253,-1.7269,-1.6507,-1.6245,-1.6336,-1.631,-1.6312,-1.6207,-1.6336,-1.6427,-1.6263,-1.6166,-1.6194,-1.6194,-1.6194,-1.6305,-1.6371,-1.6409,-1.6474,-1.6659,-1.6841,-1.6993,-1.7068,-1.7199,-1.7399,-1.7479,-1.7542,-1.7766,-1.7876,-1.7876,-1.7885,-1.782,-1.7612,-1.7536,-1.7505,-1.7498,-1.7498,-1.7498,-1.7489,-1.7472,-1.7335,-1.7182,-1.7134,-1.7018,-1.6738,-1.6528,-1.6474,-1.6285,-1.6176,-1.6274,-1.6207,-1.6123,-1.6176,-1.6049,-1.5432,-1.4785,-1.3929,-1.3098,-1.2448,-1.2164,-1.1936,-1.1615,-1.1242,-1.0602,-0.983,-0.8739,-0.784,-0.7579,-0.7196,-0.6725,-0.646,-0.6384,-0.6345,-0.6299,-0.6329,-0.636,-0.6075,-0.5773,-0.539,-1.8305,-1.7999,-1.8305,-1.848,-1.8501,-1.848,-1.8228,-1.7923,-1.7901,-1.7945,-1.8066,-1.843,-1.8634,-1.903,-1.9482,-1.9691,-2.0016,-2.0435,-2.0649,-2.066,-2.0568,-2.0283,-1.9833,-1.9278,-1.8882,-1.8533,-1.8166,-1.7748,-1.7316,-1.7212,-1.7212,-1.7212,-1.7212,-1.7212,-1.7212,-1.7212,-1.724,-1.6965,-1.6454,-1.6021,-1.6126,-1.6323,-1.6286,-1.6406,-1.6597,-1.6544,-1.6321,-1.6194,-1.6194,-1.6194,-1.6194,-1.625,-1.6262,-1.6262,-1.6262,-1.6382,-1.6686,-1.6773,-1.6901,-1.7248,-1.7439,-1.7595,-1.7652,-1.7749,-1.7859,-1.7928,-1.7937,-1.789,-1.7687,-1.7536,-1.7529,-1.7498,-1.7498,-1.7458,-1.7465,-1.7401,-1.7199,-1.7003,-1.6969,-1.6959,-1.6789,-1.6554,-1.6421,-1.6231,-1.6246,-1.6328,-1.6316,-1.6234,-1.6117,-1.5899,-1.5499,-1.4898,-1.4221,-1.3352,-1.2553,-1.2058,-1.1891,-1.1468,-1.1043,-1.0443,-0.9702,-0.8563,-0.7811,-0.7549,-0.7166,-0.6725,-0.6573,-0.6513,-0.6474,-0.6382,-0.636,-0.6329,-0.6114,-0.5866,-0.578,-1.7846,-1.7431,-1.7518,-1.7562,-1.7619,-1.7562,-1.7542,-1.7431,-1.742,-1.7456,-1.7512,-1.759,-1.8001,-1.8959,-1.9522,-1.9747,-1.9747,-2.0295,-2.0623,-2.0673,-2.0195,-1.9921,-1.943,-1.8544,-1.7994,-1.7718,-1.7522,-1.7356,-1.7212,-1.7212,-1.7212,-1.7212,-1.7212,-1.7253,-1.7308,-1.7295,-1.7201,-1.69,-1.631,-1.5757,-1.6005,-1.614,-1.6011,-1.6253,-1.6684,-1.6558,-1.6363,-1.6197,-1.6194,-1.6194,-1.6166,-1.6166,-1.6151,-1.6179,-1.6163,-1.6246,-1.6528,-1.667,-1.6876,-1.7175,-1.7384,-1.7408,-1.7496,-1.7743,-1.7805,-1.7854,-1.7902,-1.801,-1.7844,-1.7704,-1.7629,-1.7545,-1.7515,-1.7434,-1.7401,-1.724,-1.706,-1.6926,-1.6837,-1.6821,-1.6738,-1.6607,-1.6554,-1.6448,-1.6436,-1.6463,-1.6382,-1.6316,-1.6219,-1.5899,-1.5534,-1.5006,-1.4421,-1.3836,-1.3113,-1.213,-1.1747,-1.1296,-1.0794,-1.0121,-0.9336,-0.8396,-0.7801,-0.7481,-0.7166,-0.6786,-0.6695,-0.6535,-0.6482,-0.639,-0.6337,-0.6245,-0.6091,-0.6021,-0.6052]},{"header":{"parameterUnit":"m.s-1","parameterCategory":1,"la1":31.0,"la2":29.5877,"lo1":-88.7671,"lo2":-86.6584,"dy":0.0162,"dx":0.0185,"nx":115,"ny":88,"refTime":"2023-05-18T12:00:00:Z","depth":0,"parameterNumber":3,"parameterNumberName":"V-component_of_WINDS"},"data":[0.0,0.0,0.0,0.0,0.0,0.0,0.0,0.0,0.0,0.0,0.0,0.0,0.0,0.0,0.0,0.0,0.0,0.0,0.0,0.0,0.0,0.0,0.0,0.0,0.0,0.0,0.0,0.0,0.0,0.0,0.0,0.0,0.0,0.0,0.0,0.0,0.0,0.0,0.0,0.0,0.0,0.0,0.0,0.0,0.0,0.0,0.0,0.0,0.0,0.0,0.0,0.0,0.0,0.0,0.0,0.0,0.0,0.0,0.0,0.0,0.0,0.0,0.0,0.0,0.0,0.0,0.0,0.0,0.0,0.0,0.0,0.0,0.0,0.0,0.0,0.0,0.0,0.0,0.0,0.0,0.0,0.0,0.0,0.0,0.0,0.0,0.0,0.0,0.0,0.0,0.0,0.0,0.0,0.0,0.0,0.0,0.0,0.0,0.0,0.0,0.0,0.0,0.0,0.0,0.0,0.0,0.0,0.0,0.0,0.0,0.0,0.0,0.0,0.0,0.0,0.0,0.0,0.0,0.0,0.0,0.0,0.0,0.0,0.0,0.0,0.0,0.0,0.0,0.0,0.0,0.0,0.0,0.0,0.0,0.0,0.0,0.0,0.0,0.0,0.0,0.0,0.0,0.0,0.0,0.0,0.0,0.0,0.0,0.0,0.0,0.0,0.0,0.0,0.0,0.0,0.0,0.0,0.0,0.0,0.0,0.0,0.0,0.0,0.0,0.0,0.0,0.0,0.0,0.0,0.0,0.0,0.0,0.0,0.0,0.0,0.0,0.0,0.0,0.0,0.0,0.0,0.0,0.0,0.0,0.0,0.0,0.0,0.0,0.0,0.0,0.0,0.0,0.0,0.0,0.0,0.0,0.0,0.0,0.0,0.0,0.0,0.0,0.0,0.0,0.0,0.0,0.0,0.0,0.0,0.0,0.0,0.0,0.0,0.0,0.0,0.0,0.0,0.0,0.0,0.0,0.0,0.0,0.0,0.0,0.0,0.0,0.0,0.0,0.0,0.0,0.0,0.0,0.0,0.0,0.0,0.0,0.0,0.0,0.0,0.0,0.0,0.0,0.0,0.0,0.0,0.0,0.0,0.0,0.0,0.0,0.0,0.0,0.0,0.0,0.0,0.0,0.0,0.0,0.0,0.0,0.0,0.0,0.0,0.0,0.0,0.0,0.0,0.0,0.0,0.0,0.0,0.0,0.0,0.0,0.0,0.0,0.0,0.0,0.0,0.0,0.0,0.0,0.0,0.0,0.0,0.0,0.0,0.0,0.0,0.0,0.0,0.0,0.0,0.0,0.0,0.0,0.0,0.0,0.0,0.0,0.0,0.0,0.0,0.0,0.0,0.0,0.0,0.0,0.0,0.0,0.0,0.0,0.0,0.0,0.0,0.0,0.0,0.0,0.0,0.0,0.0,0.0,0.0,0.0,0.0,0.0,0.0,0.0,0.0,0.0,0.0,0.0,0.0,0.0,0.0,0.0,0.0,0.0,0.0,0.0,0.0,0.0,0.0,0.0,0.0,0.0,0.0,0.0,0.0,0.0,0.0,0.0,0.0,0.0,0.0,0.0,0.0,0.0,0.0,0.0,0.0,0.0,0.0,0.0,0.0,0.0,0.0,0.0,0.0,0.0,0.0,0.0,0.0,0.0,0.0,0.0,0.0,0.0,0.0,0.0,0.0,0.0,0.0,0.0,0.0,0.0,0.0,0.0,0.0,0.0,0.0,0.0,0.0,0.0,0.0,0.0,0.0,0.0,0.0,0.0,0.0,0.0,0.0,0.0,0.0,0.0,0.0,0.0,0.0,0.0,0.0,0.0,0.0,0.0,0.0,0.0,0.0,0.0,0.0,0.0,0.0,0.0,0.0,0.0,0.0,0.0,0.0,0.0,0.0,0.0,0.0,0.0,0.0,0.0,0.0,0.0,0.0,0.0,0.0,0.0,0.0,0.0,0.0,0.0,0.0,0.0,0.0,0.0,0.0,0.0,0.0,0.0,0.0,0.0,0.0,0.0,0.0,0.0,0.0,0.0,0.0,0.0,0.0,0.0,0.0,0.0,0.0,0.0,0.0,0.0,0.0,0.0,0.0,0.0,0.0,0.0,0.0,0.0,0.0,0.0,0.0,0.0,0.0,0.0,0.0,0.0,0.0,0.0,0.0,0.0,0.0,0.0,0.0,0.0,0.0,0.0,0.0,0.0,0.0,0.0,0.0,0.0,0.0,0.0,0.0,0.0,0.0,0.0,0.0,0.0,0.0,0.0,0.0,0.0,0.0,0.0,0.0,0.0,0.0,0.0,0.0,0.0,0.0,0.0,0.0,0.0,0.0,0.0,0.0,0.0,0.0,0.0,0.0,0.0,0.0,0.0,0.0,0.0,0.0,0.0,0.0,0.0,0.0,0.0,0.0,0.0,0.0,0.0,0.0,0.0,0.0,0.0,0.0,0.0,0.0,0.0,0.0,0.0,0.0,0.0,0.0,0.0,0.0,0.0,0.0,0.0,0.0,0.0,0.0,0.0,0.0,0.0,0.0,0.0,0.0,0.0,0.0,0.0,0.0,0.0,0.0,0.0,0.0,0.0,0.0,0.0,0.0,0.0,0.0,0.0,0.0,0.0,0.0,0.0,0.0,0.0,0.0,0.0,0.0,0.0,0.0,0.0,0.0,0.0,0.0,0.0,0.0,0.0,0.0,0.0,0.0,0.0,0.0,0.0,0.0,0.0,0.0,0.0,0.0,0.0,0.0,0.0,0.0,0.0,0.0,0.0,0.0,0.0,0.0,0.0,0.0,0.0,0.0,0.0,0.0,0.0,0.0,0.0,0.0,0.0,0.0,0.0,0.0,0.0,0.0,0.0,0.0,0.0,0.0,0.0,0.0,0.0,0.0,0.0,0.0,0.0,0.0,0.0,0.0,0.0,0.0,0.0,0.0,0.0,0.0,0.0,0.0,0.0,0.0,0.0,0.0,0.0,0.0,0.0,0.0,0.0,0.0,0.0,0.0,0.0,0.0,0.0,0.0,0.0,0.0,0.0,0.0,0.0,0.0,0.0,0.0,0.0,0.0,0.0,0.0,0.0,0.0,0.0,0.0,0.0,0.0,0.0,0.0,0.0,0.0,0.0,0.0,0.0,0.0,0.0,0.0,0.0,0.0,0.0,0.0,0.0,0.0,0.0,0.0,0.0,0.0,0.0,0.0,0.0,0.0,0.0,0.0,0.0,0.0,0.0,0.0,0.0,0.0,0.0,0.0,0.0,0.0,0.0,0.0,0.0,0.0,0.0,0.0,0.0,0.0,0.0,0.0,0.0,0.0,0.0,0.0,0.0,0.0,0.0,0.0,0.0,0.0,0.0,0.0,0.0,0.0,0.0,0.0,0.0,0.0,0.0,0.0,0.0,0.0,0.0,0.0,0.0,0.0,0.0,0.0,0.0,0.0,0.0,0.0,0.0,0.0,0.0,0.0,0.0,0.0,0.0,0.0,0.0,0.0,0.0,0.0,0.0,0.0,0.0,0.0,0.0,0.0,0.0,0.0,0.0,0.0,0.0,0.0,0.0,0.0,0.0,0.0,0.0,0.0,0.0,0.0,0.0,0.0,0.0,0.0,0.0,0.0,0.0,0.0,0.0,0.0,0.0,0.0,0.0,0.0,0.0,0.0,0.0,0.0,0.0,0.0,0.0,0.0,0.0,0.0,0.0,0.0,0.0,0.0,0.0,0.0,0.0,0.0,0.0,0.0,0.0,0.0,0.0,0.0,0.0,0.0,0.0,0.0,0.0,0.0,0.0,0.0,0.0,0.0,0.0,0.0,0.0,0.0,0.0,0.0,0.0,0.0,0.0,0.0,0.0,0.0,0.0,0.0,0.0,0.0,0.0,0.0,0.0,0.0,0.0,0.0,0.0,0.0,0.0,0.0,0.0,0.0,0.0,0.0,0.0,0.0,0.0,0.0,0.0,0.0,0.0,0.0,0.0,0.0,0.0,0.0,0.0,0.0,0.0,0.0,0.0,0.0,0.0,0.0,0.0,0.0,0.0,0.0,0.0,0.0,0.0,0.0,0.0,0.0,0.0,0.0,0.0,0.0,0.0,0.0,0.0,0.0,0.0,0.0,0.0,0.0,0.0,0.0,0.0,0.0,0.0,0.0,0.0,0.0,0.0,0.0,0.0,0.0,0.0,0.0,0.0,0.0,0.0,0.0,0.0,0.0,0.0,0.0,0.0,0.0,0.0,0.0,0.0,0.0,0.0,0.0,0.0,0.0,0.0,0.0,0.0,-0.0505,0.0,0.0,0.0,0.0,0.0,0.0,0.0,0.0,0.0,0.0,0.0,0.0,0.0,0.0,0.0,0.0,0.0,0.0,0.0,0.0,0.0,0.0,0.0,0.0,0.0,0.0,0.0,0.0,0.0,0.0,0.0,0.0,0.0,0.0,0.0,0.0,0.0,0.0,0.0,0.0,0.0,0.0,0.0,0.0,0.0,0.0,0.0,0.0,0.0,0.0,0.0,0.0,0.0,0.0,0.0,0.0,0.0,0.0,0.0,0.0,0.0,0.0,0.0,0.0,0.0,0.0,0.0,0.0,0.0,0.0,0.0,0.0,0.0,0.0,0.0,0.0,0.0,0.0,0.0,0.0,0.0,0.0,0.0,0.0,0.0,0.0,0.0,0.0,0.0,0.0,0.0,0.0,0.0,0.0,0.0,0.0,0.0,0.0,0.0,0.0,0.0,0.0,0.0,0.0,0.0,0.0,0.0,0.0,0.0,0.0,-0.2477,-0.1919,-0.1573,-0.1227,-0.0882,0.0,0.0,0.0,0.0,0.0,0.0,0.0,0.0,0.0,0.0,0.0,0.0,0.0,0.0,0.0,0.0,0.0,0.0,0.0,0.0,0.0,0.0,0.0,0.0,0.0,0.0,0.0,0.0,0.0,0.0,0.0,0.0,0.0,0.0,0.0,0.0,0.0,0.0,0.0,0.0,0.0,0.0,0.0,0.0,0.0,0.0,0.0,0.0,0.0,0.0,0.0,0.0,0.0,0.0,0.0,0.0,0.0,0.0,0.0,0.0,0.0,0.0,0.0,0.0,0.0,0.0,0.0,0.0,0.0,0.0,0.0,0.0,0.0,0.0,0.0,0.0,0.0,0.0,0.0,0.0,0.0,0.0,0.0,0.0,0.0,0.0,0.0,0.0,0.0,0.0,0.0,0.0,0.0,0.0,0.0,0.0,0.0,0.0,0.0,0.0,0.0,0.0,0.0,0.0,0.0,0.0,0.0,0.0,0.0,0.0,0.0,0.0,-0.2089,-0.1629,-0.1088,0.0,0.0,0.0,0.0,0.0,0.0,0.0,0.0,0.0,0.0,0.0,0.0,0.0,0.0,0.0,0.0,0.0,0.0,0.0,0.0,0.0,0.0,0.0,0.0,0.0,0.0,0.0,0.0,0.0,0.0,0.0,0.0,0.0,0.0,0.0,0.0,0.0,0.0,0.0,0.0,0.0,0.0,0.0,0.0,0.0,0.0,0.0,0.0,0.0,0.0,0.0,0.0,0.0,0.0,0.0,0.0,0.0,0.0,0.0,0.0,0.0,0.0,0.0,0.0,0.0,0.0,0.0,0.0,0.0,0.0,0.0,0.0,0.0,0.0,0.0,0.0,0.0,0.0,0.0,0.0,0.0,0.0,0.0,0.0,0.0,0.0,0.0,0.0,0.0,0.0,0.0,0.0,0.0,0.0,0.0,0.0,0.0,0.0,0.0,0.0,0.0,0.0,0.0,0.0,0.0,0.0,0.0,0.0,0.0,0.0,-0.2975,-0.2679,-0.2352,0.0,-0.0714,0.0,0.0,0.0,0.0,0.0,0.0,0.0,0.0,0.0,0.0,0.0,0.0,0.0,0.0,0.0,0.0,0.0,0.0,0.0,0.0,0.0,0.0,0.0,0.0,0.0,0.0,0.0,0.0,0.0,0.0,0.0,0.0,0.0,0.0,0.0,0.0,0.0,0.0,0.0,0.0,0.0,0.0,0.0,0.0,0.0,0.0,0.0,0.0,0.0,0.0,0.0,0.0,0.0,0.0,0.0,0.0,0.0,0.0,0.0,0.0,0.0,0.0,0.0,0.0,0.0,0.0,0.0,0.0,0.0,0.0,0.0,0.0,0.0,0.0,0.0,0.0,0.0,0.0,0.0,0.0,0.0,0.0,0.0,0.0,0.0,0.0,0.0,0.0,0.0,0.0,0.0,0.0,0.0,0.0,0.0,0.0,0.0,0.0,0.0,0.0,0.0,0.0,0.0,0.0,0.0,0.0,0.0,0.0,0.0,0.0,-0.3851,-0.3591,-0.2831,-0.1999,0.0,0.0,0.0,0.0,0.0,0.0,0.0,0.0,0.0,0.0,0.0,0.0,0.0,0.0,0.0,0.0,0.0,0.0,0.0,0.0,0.0,0.0,0.0,0.0,0.0,0.0,0.0,0.0,0.0,0.0,0.0,0.0,0.0,0.0,0.0,0.0,0.0,0.0,0.0,0.0,0.0,0.0,0.0,0.0,0.0,0.0,0.0,0.0,0.0,0.0,0.0,0.0,0.0,0.0,0.0,0.0,0.0,0.0,0.0,0.0,0.0,0.0,0.0,0.0,0.0,0.0,0.0,0.0,0.0,0.0,0.0,0.0,0.0,0.0,0.0,0.0,0.0,0.0,0.0,0.0,0.0,0.0,0.0,0.0,0.0,0.0,0.0,0.0,0.0,0.0,0.0,0.0,0.0,0.0,0.0,0.0,0.0,0.0,0.0,0.0,0.0,0.0,0.0,0.0,0.0,0.0,0.0,0.0,0.0,0.0,-0.4465,-0.4564,-0.415,-0.3196,-0.2327,-0.1599,0.0,0.0,0.0,0.0,0.0,0.0,0.0,0.0,0.0,0.0,0.0,0.0,0.0,0.0,0.0,0.0,0.0,0.0,0.0,0.0,0.0,0.0,0.0,0.0,0.0,0.0,0.0,0.0,0.0,0.0,0.0,0.0,0.0,0.0,0.0,0.0,0.0,0.0,0.0,0.0,0.0,0.0,0.0,0.0,0.0,0.0,0.0,0.0,0.0,0.0,0.0,0.0,0.0,0.0,0.0,0.0,0.0,0.0,0.0,0.0,0.0,0.0,0.0,0.0,0.0,0.0,0.0,0.0,0.0,0.0,0.0,0.0,0.0,0.0,0.0,0.0,0.0,0.0,0.0,0.0,0.0,0.0,0.0,0.0,0.0,0.0,0.0,0.0,0.0,0.0,0.0,0.0,0.0,0.0,0.0,0.0,0.0,0.0,0.0,0.0,0.0,0.0,0.0,0.0,0.0,0.0,0.0,0.0,-0.458,-0.4902,-0.4765,-0.413,-0.3309,-0.2608,0.0,0.0,0.0,0.0,0.0,0.0,0.0,0.0,0.0,0.0,0.0,0.0,0.0,0.0,0.0,0.0,0.0,0.0,0.0,0.0,0.0,0.0,0.0,0.0,0.0,0.0,0.0,0.0,0.0,0.0,0.0,0.0,0.0,0.0,0.0,0.0,0.0,0.0,0.0,0.0,0.0,0.0,0.0,0.0,0.0,0.0,0.0,0.0,0.0,0.0,0.0,0.0,0.0,0.0,0.0,0.0,0.0,0.0,0.0,0.0,0.0,0.0,0.0,0.0,0.0,0.0,0.0,0.0,0.0,0.0,0.0,0.0,0.0,0.0,0.0,0.0,0.0,0.0,0.0,0.0,0.0,0.0,0.0,0.0,0.0,0.0,0.0,0.0,0.0,0.0,0.0,0.0,0.0,0.0,0.0,0.0,0.0,0.0,0.0,0.0,0.0,0.0,0.0,0.0,0.0,0.0,0.0,0.0,0.0,-0.4865,-0.5097,-0.5049,-0.4606,-0.4039,-0.3303,0.0,0.0,0.0,0.0,0.0,0.0,0.0,0.0,0.0,0.0,0.0,0.0,0.0,0.0,0.0,0.0,0.0,0.0,0.0,0.0,0.0,0.0,0.0,0.0,0.0,0.0,0.0,0.0,0.0,0.0,0.0,0.0,0.0,0.0,0.0,0.0,0.0,0.0,0.0,0.0,0.0,0.0,0.0,0.0,0.0,0.0,0.0,0.0,0.0,0.0,0.0,0.0,0.0,0.0,0.0,0.0,0.0,0.0,0.0,0.0,0.0,0.0,0.0,0.0,0.0,0.0,0.0,0.0,0.0,0.0,0.0,0.0,0.0,0.0,0.0,0.0,0.0,0.0,0.0,0.0,0.0,0.0,0.0,0.0,0.0,0.0,0.0,0.0,0.0,0.0,0.0,0.0,0.0,0.0,0.0,0.0,0.0,0.0,0.0,0.0,0.0,0.0,0.0,0.0,0.0,0.0,0.0,0.0,0.0,-0.5292,0.0,-0.5291,0.0,-0.4513,-0.3839,0.0,0.0,0.0,0.0,0.0,0.0,0.0,0.0,0.0,0.0,0.0,0.0,0.0,0.0,0.0,0.0,0.0,0.0,0.0,0.0,0.0,0.0,0.0,0.0,0.0,0.0,0.0,0.0,0.0,0.0,0.0,0.0,0.0,0.0,0.0,0.0,0.0,0.0,0.0,0.0,0.0,0.0,0.0,0.0,0.0,0.0,0.0,0.0,0.0,0.0,0.0,0.0,0.0,0.0,0.0,0.0,0.0,0.0,0.0,0.0,0.0,0.0,0.0,0.0,0.0,0.0,0.0,0.0,0.0,0.0,0.0,0.0,0.0,0.0,0.0,0.0,0.0,0.0,0.0,0.0,0.0,0.0,0.0,0.0,0.0,0.0,0.0,0.0,0.0,0.0,0.0,0.0,0.0,0.0,0.0,0.0,0.0,0.0,0.0,0.0,0.0,0.0,0.0,0.0,0.0,0.0,0.0,0.0,-0.5961,-0.59,-0.5704,-0.5528,-0.5375,-0.471,-0.4097,0.0,0.0,0.0,0.0,0.0,0.0,0.0,0.0,0.0,0.0,0.0,0.0,0.0,0.0,0.0,0.0,0.0,0.0,0.0,0.0,0.0,0.0,0.0,0.0,0.0,0.0,0.0,0.0,0.0,0.0,0.0,0.0,0.0,0.0,0.0,0.0,0.0,0.0,0.0,0.0,0.0,0.0,0.0,0.0,0.0,0.0,0.0,0.0,0.0,0.0,0.0,0.0,0.0,0.0,0.0,0.0,0.0,0.0,0.0,0.0,0.0,0.0,0.0,0.0,0.0,0.0,0.0,0.0,0.0,0.0,0.0,0.0,0.0,0.0,0.0,0.0,0.0,0.0,0.0,0.0,0.0,0.0,0.0,0.0,0.0,0.0,0.0,0.0,0.0,0.0,0.0,0.0,0.0,0.0,0.0,0.0,0.0,0.0,0.0,0.0,0.0,0.0,0.0,0.0,0.0,0.0,0.0,0.0,0.0,-0.6111,-0.5959,-0.5782,-0.5611,-0.5206,-0.4668,0.0,0.0,0.0,0.0,0.0,0.0,0.0,0.0,0.0,0.0,0.0,0.0,0.0,0.0,0.0,0.0,0.0,0.0,0.0,0.0,0.0,0.0,0.0,0.0,0.0,0.0,0.0,0.0,0.0,0.0,0.0,0.0,0.0,0.0,0.0,0.0,0.0,0.0,0.0,0.0,0.0,0.0,0.0,0.0,0.0,0.0,0.0,0.0,0.0,0.0,0.0,0.0,0.0,0.0,0.0,0.0,0.0,0.0,0.0,0.0,0.0,0.0,0.0,0.0,0.0,0.0,0.0,0.0,0.0,0.0,0.0,0.0,0.0,0.0,0.0,0.0,0.0,0.0,0.0,0.0,0.0,0.0,0.0,0.0,0.0,0.0,0.0,0.0,0.0,0.0,0.0,0.0,0.0,0.0,0.0,0.0,0.0,0.0,0.0,0.0,0.0,0.0,0.0,0.0,0.0,0.0,0.0,0.0,0.0,-0.6681,-0.6477,-0.6288,-0.6101,-0.587,-0.5321,-0.4465,0.0,0.0,0.0,0.0,0.0,0.0,0.0,0.0,0.0,0.0,0.0,0.0,0.0,0.0,0.0,0.0,0.0,0.0,0.0,0.0,0.0,0.0,0.0,0.0,0.0,0.0,0.0,0.0,0.0,0.0,0.0,0.0,0.0,0.0,0.0,0.0,0.0,0.0,0.0,0.0,0.0,0.0,0.0,0.0,0.0,0.0,0.0,0.0,0.0,0.0,0.0,0.0,0.0,0.0,0.0,0.0,0.0,0.0,0.0,0.0,0.0,0.0,0.0,0.0,0.0,0.0,0.0,0.0,0.0,0.0,0.0,0.0,0.0,0.0,0.0,0.0,0.0,0.0,0.0,0.0,0.0,0.0,0.0,0.0,0.0,0.0,0.0,0.0,0.0,0.0,0.0,0.0,0.0,0.0,0.0,0.0,0.0,0.0,0.0,0.0,0.0,0.0,0.0,0.0,0.0,0.0,0.0,0.0,-0.756,-0.7315,-0.7081,-0.6823,-0.6611,-0.6054,0.0,0.0,0.0,0.0,0.0,0.0,0.0,0.0,0.0,0.0,0.0,0.0,0.0,0.0,0.0,0.0,0.0,0.0,0.0,0.0,0.0,0.0,0.0,0.0,0.0,0.0,0.0,0.0,0.0,0.0,0.0,0.0,0.0,0.0,0.0,0.0,0.0,0.0,0.0,0.0,0.0,0.0,0.0,0.0,0.0,0.0,0.0,0.0,0.0,0.0,0.0,0.0,0.0,0.0,0.0,0.0,0.0,0.0,0.0,0.0,0.0,0.0,0.0,0.0,0.0,0.0,0.0,0.0,0.0,0.0,0.0,0.0,0.0,0.0,0.0,0.0,0.0,0.0,0.0,0.0,0.0,0.0,0.0,0.0,0.0,0.0,0.0,0.0,0.0,0.0,0.0,0.0,0.0,0.0,0.0,0.0,0.0,0.0,0.0,0.0,0.0,0.0,0.0,0.0,0.0,0.0,0.0,0.0,0.0,-0.8262,-0.9021,-0.8675,-0.7171,-0.686,-0.6297,0.0,0.0,0.0,0.0,0.0,0.0,0.0,0.0,0.0,0.0,0.0,0.0,0.0,0.0,0.0,0.0,0.0,0.0,0.0,0.0,0.0,0.0,0.0,0.0,0.0,0.0,0.0,0.0,0.0,0.0,0.0,0.0,0.0,0.0,0.0,0.0,0.0,0.0,0.0,0.0,0.0,0.0,0.0,0.0,0.0,0.0,0.0,0.0,0.0,0.0,0.0,0.0,0.0,0.0,0.0,0.0,0.0,0.0,0.0,0.0,0.0,0.0,0.0,0.0,0.0,0.0,0.0,0.0,0.0,0.0,0.0,0.0,0.0,0.0,0.0,0.0,0.0,0.0,0.0,0.0,0.0,0.0,0.0,0.0,0.0,0.0,0.0,0.0,0.0,0.0,0.0,0.0,0.0,0.0,0.0,0.0,0.0,0.0,0.0,0.0,0.0,0.0,0.0,0.0,0.0,0.0,0.0,0.0,-0.8715,-0.8635,-0.9817,-0.9673,-0.8129,-0.7946,-0.7257,0.0,0.0,0.0,0.0,0.0,0.0,0.0,0.0,0.0,0.0,0.0,0.0,0.0,0.0,0.0,0.0,0.0,0.0,0.0,0.0,0.0,0.0,0.0,0.0,0.0,0.0,0.0,0.0,0.0,0.0,0.0,0.0,0.0,0.0,0.0,0.0,0.0,0.0,0.0,0.0,0.0,0.0,0.0,0.0,0.0,0.0,0.0,0.0,0.0,0.0,0.0,0.0,0.0,0.0,0.0,0.0,0.0,0.0,0.0,0.0,0.0,0.0,0.0,0.0,0.0,0.0,0.0,0.0,0.0,0.0,0.0,0.0,0.0,0.0,0.0,0.0,0.0,0.0,0.0,0.0,0.0,0.0,0.0,0.0,0.0,0.0,0.0,0.0,0.0,0.0,0.0,0.0,0.0,0.0,0.0,0.0,0.0,0.0,0.0,0.0,0.0,0.0,0.0,0.0,0.0,0.0,0.0,0.0,-0.928,-0.884,-1.0056,-1.0275,-0.9387,-0.9295,-0.8448,0.0,0.0,0.0,0.0,0.0,0.0,0.0,0.0,0.0,0.0,0.0,0.0,0.0,0.0,0.0,0.0,0.0,0.0,0.0,0.0,0.0,0.0,0.0,0.0,0.0,0.0,0.0,0.0,0.0,0.0,0.0,0.0,0.0,0.0,0.0,0.0,0.0,0.0,0.0,0.0,0.0,0.0,0.0,0.0,0.0,0.0,0.0,0.0,0.0,0.0,0.0,0.0,0.0,0.0,0.0,0.0,0.0,0.0,0.0,0.0,0.0,0.0,0.0,0.0,0.0,0.0,0.0,0.0,0.0,0.0,0.0,0.0,0.0,0.0,0.0,0.0,0.0,0.0,0.0,0.0,0.0,0.0,0.0,0.0,0.0,0.0,0.0,0.0,0.0,0.0,0.0,0.0,0.0,0.0,0.0,0.0,0.0,0.0,0.0,0.0,0.0,0.0,0.0,0.0,0.0,0.0,0.0,0.0,-0.9423,-0.9008,-1.0481,-1.0821,-0.9802,-0.9217,-0.8322,0.0,0.0,0.0,0.0,0.0,0.0,0.0,0.0,0.0,0.0,0.0,0.0,0.0,0.0,0.0,0.0,0.0,0.0,0.0,0.0,0.0,0.0,0.0,0.0,0.0,0.0,0.0,0.0,0.0,0.0,0.0,0.0,0.0,0.0,0.0,0.0,0.0,0.0,0.0,0.0,0.0,0.0,0.0,0.0,0.0,0.0,0.0,0.0,-0.3877,0.0,0.0,0.0,0.0,0.0,0.0,0.0,0.0,0.0,0.0,0.0,0.0,0.0,0.0,0.0,0.0,0.0,0.0,0.0,0.0,0.0,0.0,0.0,0.0,0.0,0.0,0.0,0.0,0.0,0.0,0.0,0.0,0.0,0.0,0.0,0.0,0.0,0.0,0.0,0.0,0.0,0.0,0.0,0.0,0.0,0.0,0.0,0.0,0.0,0.0,0.0,0.0,0.0,0.0,0.0,0.0,0.0,0.0,0.0,-0.9503,-0.9099,-1.0416,-1.0769,-1.0081,-0.9485,-0.8633,0.0,0.0,0.0,0.0,0.0,0.0,0.0,0.0,0.0,0.0,0.0,0.0,0.0,0.0,0.0,0.0,0.0,0.0,0.0,0.0,0.0,0.0,0.0,0.0,0.0,0.0,0.0,0.0,0.0,0.0,0.0,0.0,0.0,0.0,0.0,0.0,0.0,0.0,0.0,0.0,0.0,0.0,0.0,0.0,0.0,0.0,0.0,0.0,0.0,0.0,0.0,0.0,0.0,0.0,0.0,0.0,0.0,0.0,0.0,0.0,0.0,0.0,0.0,0.0,0.0,0.0,0.0,0.0,0.0,0.0,0.0,0.0,0.0,0.0,0.0,0.0,0.0,0.0,0.0,0.0,0.0,0.0,0.0,0.0,0.0,0.0,0.0,0.0,0.0,0.0,0.0,0.0,0.0,0.0,0.0,0.0,0.0,0.0,0.0,0.0,0.0,0.0,0.0,0.0,0.0,0.0,0.0,-0.9168,-0.9565,-0.9284,-1.0153,-1.0508,-1.0153,-0.9836,-0.907,-0.7871,0.0,0.0,0.0,0.0,0.0,0.0,0.0,0.0,0.0,0.0,0.0,0.0,0.0,0.0,0.0,0.0,0.0,0.0,0.0,0.0,0.0,0.0,0.0,0.0,0.0,0.0,0.0,0.0,0.0,0.0,0.0,0.0,0.0,0.0,0.0,0.0,0.0,0.0,-0.3475,-0.367,0.0,0.0,0.0,0.0,0.0,0.0,0.0,0.0,-0.5039,0.0,0.0,0.0,0.0,0.0,0.0,0.0,0.0,0.0,0.0,0.0,0.0,0.0,0.0,0.0,0.0,0.0,0.0,0.0,0.0,0.0,0.0,0.0,0.0,0.0,0.0,0.0,0.0,0.0,0.0,0.0,0.0,0.0,0.0,0.0,0.0,0.0,0.0,0.0,0.0,0.0,0.0,0.0,0.0,0.0,0.0,0.0,0.0,0.0,0.0,0.0,0.0,0.0,0.0,0.0,0.0,-0.8677,-0.9144,-0.9535,-0.9856,-1.0245,-1.0275,-0.9953,-0.9943,-0.9317,-0.8041,0.0,0.0,0.0,0.0,0.0,0.0,0.0,0.0,0.0,0.0,0.0,0.0,0.0,0.0,0.0,0.0,0.0,0.0,0.0,0.0,0.0,0.0,0.0,0.0,0.0,0.0,0.0,0.0,0.0,0.0,0.0,0.0,0.0,0.0,0.0,0.0,0.0,0.0,0.0,-0.3679,-0.3811,0.0,0.0,0.0,0.0,0.0,0.0,0.0,0.0,-0.5443,0.0,0.0,0.0,0.0,0.0,0.0,0.0,0.0,0.0,0.0,0.0,0.0,0.0,0.0,0.0,0.0,0.0,0.0,0.0,0.0,0.0,0.0,0.0,0.0,0.0,0.0,0.0,0.0,0.0,0.0,0.0,0.0,0.0,0.0,0.0,0.0,0.0,0.0,0.0,0.0,0.0,0.0,0.0,0.0,0.0,0.0,0.0,0.0,0.0,0.0,0.0,0.0,0.0,0.0,0.0,-0.8855,-0.9465,-0.9841,-1.0044,-1.0275,-1.0261,-0.9944,-0.9919,-0.9317,0.0,0.0,0.0,0.0,0.0,0.0,0.0,0.0,0.0,0.0,0.0,0.0,0.0,0.0,0.0,0.0,0.0,0.0,0.0,0.0,0.0,0.0,0.0,0.0,0.0,0.0,0.0,0.0,0.0,0.0,0.0,0.0,0.0,0.0,0.0,0.0,0.0,0.0,0.0,0.0,-0.3709,-0.3805,-0.3928,0.0,0.0,0.0,0.0,0.0,0.0,-0.617,-0.5618,0.0,0.0,0.0,0.0,0.0,0.0,0.0,0.0,0.0,0.0,0.0,0.0,0.0,0.0,0.0,0.0,0.0,0.0,0.0,0.0,0.0,0.0,0.0,0.0,0.0,0.0,0.0,0.0,0.0,0.0,0.0,0.0,0.0,0.0,0.0,0.0,0.0,0.0,0.0,0.0,0.0,0.0,0.0,0.0,0.0,0.0,0.0,0.0,0.0,0.0,0.0,0.0,0.0,0.0,0.0,-0.9223,-0.9839,-1.0164,-1.0239,-1.0304,-1.0236,-1.0021,-0.9905,-0.9293,0.0,0.0,0.0,0.0,0.0,0.0,0.0,0.0,0.0,0.0,0.0,0.0,0.0,0.0,0.0,0.0,0.0,0.0,0.0,0.0,0.0,0.0,0.0,0.0,0.0,0.0,0.0,0.0,0.0,0.0,0.0,0.0,0.0,0.0,0.0,0.0,0.0,0.0,0.0,0.0,0.0,-0.3951,-0.4118,-0.5066,0.0,0.0,0.0,0.0,-0.7712,-0.6587,0.0,0.0,0.0,0.0,0.0,0.0,0.0,0.0,0.0,0.0,0.0,0.0,0.0,0.0,0.0,0.0,0.0,0.0,0.0,0.0,0.0,0.0,0.0,0.0,0.0,0.0,0.0,0.0,0.0,0.0,0.0,0.0,0.0,0.0,0.0,0.0,0.0,0.0,0.0,0.0,0.0,0.0,0.0,0.0,0.0,0.0,0.0,0.0,0.0,0.0,0.0,0.0,0.0,0.0,0.0,0.0,-1.0247,-1.008,-1.018,-1.0664,-1.0398,-1.0199,-1.0097,-1.0021,-0.9403,0.0,0.0,0.0,0.0,0.0,0.0,0.0,0.0,0.0,0.0,0.0,0.0,0.0,0.0,0.0,0.0,0.0,0.0,0.0,0.0,0.0,0.0,0.0,0.0,0.0,0.0,0.0,0.0,0.0,0.0,0.0,0.0,0.0,0.0,0.0,0.0,0.0,0.0,0.0,0.0,0.0,-0.4474,-0.423,-0.519,-0.6112,0.0,0.0,-0.6731,-0.81,-0.7418,0.0,0.0,0.0,0.0,0.0,0.0,0.0,0.0,0.0,0.0,0.0,0.0,0.0,0.0,0.0,0.0,0.0,0.0,0.0,0.0,0.0,0.0,0.0,0.0,0.0,0.0,0.0,0.0,0.0,0.0,0.0,0.0,0.0,0.0,0.0,0.0,0.0,0.0,0.0,0.0,0.0,0.0,0.0,0.0,0.0,0.0,0.0,0.0,0.0,0.0,0.0,0.0,0.0,0.0,0.0,-0.9986,-1.0467,-1.0479,-1.0588,-1.0835,-1.0373,-1.0135,-1.0161,-1.0046,-0.9427,0.0,0.0,0.0,0.0,0.0,0.0,0.0,0.0,0.0,0.0,0.0,0.0,0.0,0.0,0.0,0.0,0.0,0.0,0.0,0.0,0.0,0.0,0.0,0.0,0.0,0.0,0.0,0.0,0.0,0.0,0.0,0.0,0.0,0.0,0.0,0.0,0.0,0.0,0.0,0.0,0.0,0.0,-0.4247,-0.5579,0.0,0.0,0.0,-0.7139,-0.8033,0.0,0.0,0.0,0.0,0.0,0.0,0.0,0.0,0.0,0.0,0.0,0.0,0.0,0.0,0.0,0.0,0.0,0.0,0.0,0.0,0.0,0.0,0.0,0.0,0.0,0.0,0.0,0.0,0.0,0.0,0.0,0.0,0.0,0.0,0.0,0.0,0.0,0.0,0.0,0.0,0.0,0.0,0.0,0.0,0.0,0.0,0.0,0.0,0.0,0.0,0.0,0.0,0.0,0.0,0.0,0.0,0.0,-1.0776,-1.0951,-1.0968,-1.0897,-1.0447,-1.0211,-1.0173,-0.9957,0.0,0.0,0.0,0.0,0.0,0.0,0.0,0.0,0.0,0.0,0.0,0.0,0.0,0.0,0.0,0.0,0.0,0.0,0.0,0.0,0.0,0.0,0.0,0.0,0.0,0.0,0.0,-0.3182,0.0,0.0,0.0,0.0,0.0,0.0,0.0,0.0,0.0,0.0,0.0,0.0,0.0,0.0,-0.4077,-0.4181,-0.5623,-0.6568,0.0,0.0,-0.7338,-0.7677,-0.6839,-0.6495,0.0,0.0,0.0,0.0,0.0,0.0,0.0,0.0,0.0,0.0,0.0,0.0,0.0,0.0,0.0,0.0,0.0,0.0,0.0,0.0,0.0,0.0,0.0,0.0,0.0,0.0,0.0,0.0,0.0,0.0,0.0,0.0,0.0,0.0,0.0,0.0,0.0,0.0,0.0,0.0,0.0,0.0,0.0,0.0,0.0,0.0,0.0,0.0,0.0,0.0,0.0,0.0,0.0,0.0,0.0,-1.1505,-1.1415,-1.123,-1.092,-1.0681,-1.0449,-1.0212,-0.966,-0.9026,0.0,0.0,0.0,0.0,0.0,0.0,0.0,0.0,0.0,0.0,0.0,0.0,0.0,0.0,0.0,0.0,0.0,0.0,0.0,0.0,0.0,0.0,0.0,0.0,0.0,0.0,0.0,0.0,0.0,0.0,0.0,0.0,0.0,0.0,0.0,0.0,0.0,0.0,0.0,0.0,0.0,-0.4539,-0.4004,-0.5049,-0.585,0.0,0.0,-0.7092,-0.6998,-0.6893,-0.686,-0.697,0.0,0.0,0.0,0.0,0.0,0.0,0.0,0.0,0.0,0.0,0.0,0.0,0.0,0.0,0.0,0.0,0.0,0.0,0.0,0.0,0.0,0.0,0.0,0.0,0.0,0.0,0.0,0.0,0.0,0.0,0.0,0.0,0.0,0.0,0.0,0.0,0.0,0.0,0.0,0.0,0.0,0.0,0.0,0.0,0.0,0.0,0.0,0.0,0.0,0.0,0.0,0.0,0.0,-1.1336,-1.1615,-1.1876,-1.1899,-1.1696,-1.1349,-1.0959,-1.0523,-0.9693,-0.8778,0.0,0.0,0.0,0.0,0.0,0.0,0.0,0.0,0.0,0.0,0.0,0.0,0.0,0.0,0.0,0.0,0.0,0.0,0.0,0.0,0.0,0.0,0.0,0.0,0.0,0.0,0.0,0.0,-0.3948,-0.4298,-0.4919,0.0,0.0,0.0,0.0,0.0,0.0,0.0,0.0,0.0,0.0,-0.4475,-0.4567,-0.4755,0.0,0.0,-0.6597,-0.7074,-0.703,-0.6709,-0.6718,-0.7457,-0.7366,0.0,0.0,0.0,0.0,0.0,0.0,0.0,0.0,0.0,0.0,0.0,0.0,0.0,0.0,0.0,0.0,0.0,0.0,0.0,0.0,0.0,0.0,0.0,0.0,0.0,0.0,0.0,0.0,0.0,0.0,0.0,0.0,0.0,0.0,0.0,0.0,0.0,0.0,0.0,0.0,0.0,0.0,0.0,0.0,0.0,0.0,0.0,0.0,0.0,0.0,0.0,0.0,-1.1703,-1.1894,-1.2305,-1.2531,-1.251,-1.2083,-1.1599,-1.094,-0.9975,-0.894,0.0,0.0,0.0,0.0,0.0,0.0,0.0,0.0,0.0,0.0,0.0,0.0,0.0,0.0,0.0,0.0,0.0,0.0,0.0,0.0,0.0,0.0,0.0,0.0,0.0,0.0,0.0,0.0,-0.4216,-0.4637,-0.5231,0.0,0.0,0.0,0.0,0.0,0.0,0.0,0.0,0.0,0.0,-0.461,-0.4737,-0.4857,-0.5213,-0.588,-0.682,-0.7363,-0.7085,-0.674,-0.6861,-0.7802,0.0,0.0,0.0,0.0,0.0,0.0,0.0,0.0,0.0,0.0,0.0,0.0,0.0,0.0,0.0,0.0,0.0,0.0,0.0,0.0,0.0,0.0,0.0,0.0,0.0,0.0,0.0,0.0,0.0,0.0,-0.7932,0.0,0.0,0.0,0.0,0.0,0.0,0.0,0.0,0.0,0.0,0.0,0.0,0.0,0.0,0.0,0.0,0.0,0.0,0.0,0.0,0.0,0.0,-1.1924,-1.2556,-1.2758,-1.2937,-1.3152,-1.2898,-1.2375,-1.1521,-1.0586,-0.9546,-0.8397,0.0,0.0,0.0,0.0,0.0,0.0,0.0,0.0,0.0,0.0,0.0,0.0,0.0,0.0,0.0,0.0,0.0,0.0,0.0,0.0,0.0,0.0,0.0,0.0,0.0,0.0,-0.4002,-0.4648,-0.5054,0.0,0.0,0.0,0.0,0.0,0.0,0.0,0.0,0.0,0.0,-0.4985,-0.5091,-0.4361,-0.5487,-0.622,-0.5785,-0.7122,-0.7934,-0.7051,-0.7097,-0.7414,0.0,0.0,0.0,0.0,0.0,0.0,0.0,0.0,0.0,0.0,0.0,0.0,0.0,0.0,0.0,0.0,0.0,0.0,0.0,0.0,0.0,0.0,0.0,0.0,0.0,0.0,0.0,-1.0216,-0.9865,0.0,0.0,0.0,0.0,0.0,0.0,0.0,0.0,0.0,0.0,0.0,-1.4295,-1.4367,0.0,0.0,0.0,0.0,0.0,0.0,0.0,0.0,0.0,0.0,0.0,0.0,-1.2308,-1.2565,-1.3553,-1.4056,-1.3992,-1.3812,-1.3263,-1.2334,-1.1389,-1.0081,-0.832,0.0,0.0,0.0,0.0,0.0,0.0,0.0,0.0,0.0,0.0,0.0,0.0,0.0,0.0,0.0,0.0,0.0,0.0,0.0,0.0,0.0,0.0,0.0,0.0,0.0,-0.4001,0.0,0.0,0.0,0.0,0.0,0.0,0.0,0.0,0.0,0.0,0.0,-0.5358,-0.4612,-0.4792,-0.497,-0.4939,-0.5481,-0.5888,0.0,0.0,0.0,0.0,0.0,0.0,0.0,0.0,0.0,0.0,0.0,0.0,0.0,0.0,-0.9534,-0.8719,-0.9334,-0.9746,-0.8896,0.0,0.0,0.0,0.0,0.0,0.0,0.0,0.0,0.0,0.0,0.0,0.0,0.0,0.0,-1.1843,0.0,-1.1363,0.0,0.0,0.0,0.0,0.0,0.0,0.0,0.0,-1.4328,-1.4943,-1.5064,-1.5034,-1.5126,0.0,-1.5188,-1.4458,0.0,0.0,0.0,0.0,0.0,0.0,0.0,0.0,-1.2721,-1.3205,-1.4124,-1.4611,-1.4559,-1.4398,-1.3838,-1.2809,-1.1678,-1.0378,-0.8912,-0.8306,-0.7571,0.0,0.0,0.0,0.0,0.0,0.0,0.0,0.0,0.0,0.0,0.0,0.0,0.0,0.0,0.0,0.0,0.0,0.0,0.0,0.0,0.0,0.0,0.0,-0.4338,0.0,0.0,0.0,0.0,0.0,0.0,0.0,0.0,0.0,-0.5248,-0.5352,-0.5389,-0.5135,-0.5134,-0.5333,-0.5821,0.0,0.0,0.0,0.0,0.0,0.0,0.0,-0.7485,-0.8198,-0.845,-0.8661,-0.8932,-0.9032,-0.9106,-0.9206,0.0,0.0,-0.8682,-0.9264,-0.9648,-0.8848,-0.9471,-1.0122,-1.0132,-1.0117,-1.0019,0.0,0.0,0.0,0.0,0.0,0.0,0.0,0.0,-1.3277,-1.29,0.0,-1.2522,0.0,0.0,0.0,0.0,0.0,-1.3828,0.0,0.0,-1.5421,-1.5949,-1.565,-1.5386,-1.5546,-1.6061,-1.5733,-1.5468,-1.5273,-1.4609,0.0,0.0,0.0,0.0,0.0,0.0,-1.3184,-1.4452,-1.4524,-1.4645,-1.4847,-1.4613,-1.4038,-1.3037,-1.1554,-1.0558,-1.0137,-0.9721,-0.8916,-0.7634,-0.7655,0.0,0.0,0.0,0.0,0.0,0.0,0.0,0.0,0.0,0.0,0.0,0.0,0.0,0.0,0.0,0.0,0.0,0.0,0.0,0.0,-0.4892,0.0,0.0,0.0,0.0,0.0,0.0,0.0,0.0,0.0,0.0,-0.5154,-0.5483,-0.5906,-0.6112,0.0,0.0,0.0,0.0,-0.7413,-0.7393,-0.7828,-0.7993,-0.7693,-0.7693,-0.8004,-0.8769,0.0,0.0,-0.9779,-0.9359,-0.9011,-0.9099,-0.9801,-1.0321,-0.9843,-0.9841,-0.9915,-0.9875,-0.9919,-1.0012,-1.0012,-1.0078,-1.0317,-1.733,0.0,0.0,0.0,0.0,-1.5105,-1.5403,-1.6,-1.5477,-1.4906,-1.4292,-1.3912,0.0,0.0,0.0,0.0,0.0,0.0,-1.5755,-1.5918,-1.6441,-1.6734,-1.6784,-1.6289,-1.6108,-1.6245,-1.6624,-1.6483,-1.5968,-1.6037,-1.5375,-1.4083,0.0,0.0,0.0,0.0,-1.4125,-1.492,-1.4815,-1.4675,-1.4627,-1.4342,-1.3952,-1.3369,-1.2278,-1.1449,-1.0949,-1.0485,-0.9929,-0.928,-0.8049,0.0,0.0,0.0,0.0,0.0,0.0,0.0,0.0,0.0,0.0,0.0,0.0,0.0,0.0,0.0,0.0,0.0,0.0,0.0,-0.6064,-0.5207,-0.498,0.0,0.0,0.0,0.0,0.0,0.0,0.0,0.0,0.0,-0.6393,-0.6336,-0.6171,0.0,0.0,-0.6667,-0.6521,-0.6501,-0.6731,-0.7375,0.0,0.0,0.0,-0.8586,-0.8688,-0.887,-0.877,-0.8719,-0.8935,-0.8905,-0.8908,-0.9075,-0.9431,-0.969,-0.9698,-1.0157,-1.0194,-0.9497,-0.9597,-0.9953,-1.0063,-1.0102,-1.0385,-1.9464,-1.7964,-1.7038,-1.6928,-1.735,-1.7084,-1.7379,-1.7996,-1.7426,-1.6752,-1.5978,-1.5576,-1.5119,-1.4617,-1.4617,0.0,0.0,0.0,-1.6781,-1.699,-1.7053,-1.7195,-1.738,-1.6954,-1.683,-1.7022,-1.7593,-1.7456,-1.6756,-1.7015,-1.6441,-1.5154,0.0,0.0,-1.4354,-1.45,-1.4756,-1.5213,-1.5287,-1.4956,-1.4324,-1.3855,-1.3501,-1.3242,-1.2691,-1.2094,-1.1551,-1.146,-1.0966,-1.0148,-0.9047,-0.8293,0.0,0.0,0.0,0.0,0.0,0.0,0.0,0.0,0.0,0.0,0.0,-0.4721,0.0,0.0,0.0,0.0,-0.5603,-0.6125,-0.6113,-0.5624,0.0,0.0,0.0,0.0,0.0,0.0,0.0,-0.704,-0.7048,-0.7196,-0.7447,-0.7314,-0.7107,-0.6908,-0.7182,-0.7431,-0.748,0.0,-0.7085,-0.7933,-0.8101,-0.8304,-0.8785,-0.8994,-0.9077,-0.8947,-0.8656,-0.8483,-0.8583,-0.8708,-0.8841,-0.8996,-0.9428,-0.9818,-0.9887,-1.0367,-1.0426,-0.9452,-0.9552,-0.9874,-0.9971,-1.0288,-1.0856,-2.1395,-2.0594,-1.8519,-1.8346,-1.9376,-1.883,-1.8954,-1.9581,-1.8966,-1.8258,-1.7548,-1.7311,-1.7061,-1.6872,-1.6853,0.0,-1.7208,-1.7325,-1.7393,-1.7427,-1.7384,-1.7474,-1.7629,-1.7334,-1.7467,-1.8003,-1.8425,-1.8246,-1.7555,-1.7584,-1.714,-1.6139,-1.5021,-1.4513,-1.4637,-1.4992,-1.5227,-1.5434,-1.5755,-1.5301,-1.3967,-1.3229,-1.2838,-1.2803,-1.2838,-1.2572,-1.2022,-1.236,-1.1934,-1.0491,-1.0173,-0.9328,-0.7809,0.0,0.0,0.0,0.0,0.0,0.0,0.0,0.0,0.0,0.0,0.0,0.0,0.0,0.0,0.0,-0.5357,0.0,-0.5662,-0.6128,0.0,0.0,0.0,-0.7174,-0.7439,-0.7643,-0.7912,-0.8159,0.0,0.0,-0.828,0.0,-0.8423,-0.883,-0.8337,-0.8269,-0.9132,-0.8416,-0.8148,-0.883,-0.9494,-0.9699,-0.9213,-0.9334,-0.9488,-0.9318,-0.8852,-0.865,-0.8706,-0.8724,-0.8789,-0.8824,-0.9629,-1.0269,-1.0302,-1.0374,-1.0357,-0.9767,-0.9721,-0.9822,-0.9994,-1.0633,-1.1504,-2.2054,-2.138,-2.0333,-1.9627,-1.9161,-1.903,-1.9104,-1.9336,-1.8915,-1.843,-1.8026,-1.7949,-1.7759,-1.7418,-1.789,-1.8115,-1.8191,-1.8489,-1.8651,-1.8622,-1.8222,-1.794,-1.7882,-1.7392,-1.7161,-1.7229,-1.7859,-1.7809,-1.7127,-1.7629,-1.7522,-1.6684,-1.5959,-1.5613,-1.5645,-1.5687,-1.5953,-1.643,-1.5797,-1.4809,-1.3446,-1.2965,-1.2745,-1.2745,-1.3,-1.2904,-1.2516,-1.209,-1.169,-1.1265,-0.9145,-0.8127,-0.8568,-0.7082,0.0,0.0,0.0,0.0,0.0,0.0,0.0,0.0,0.0,-0.5189,-0.5528,0.0,-0.5831,0.0,-0.5315,-0.5728,-0.6974,-0.6826,0.0,0.0,-0.6781,-0.7019,-0.7791,-0.8397,-0.8593,-0.8119,-0.8107,-0.8346,-0.8817,-0.8831,-0.8968,-0.9404,-0.8873,-0.8525,-0.8752,-0.8718,-0.8826,-0.936,-0.9965,-1.0353,-1.0389,-1.0546,-1.0629,-1.0605,-0.9892,-0.9368,-0.9422,-0.9064,-0.8823,-0.8947,-0.9223,-0.949,-0.9631,-0.9717,-0.9735,-0.9648,-0.9687,-0.9938,-1.0632,-1.103,-1.1698,-2.2897,-2.2017,-2.1724,-2.0789,-1.9537,-1.9537,-1.9477,-1.9333,-1.9251,-1.8876,-1.824,-1.8344,-1.8317,-1.8261,-1.8551,-1.8683,-1.8669,-1.8874,-1.8974,-1.8974,-1.8605,-1.8446,-1.8344,-1.8014,-1.7856,-1.7856,-1.8186,-1.8028,-1.7454,-1.772,-1.7505,-1.6844,-1.6184,-1.5853,-1.5853,-1.5882,-1.6171,-1.6848,-1.5799,-1.4808,-1.3908,-1.3389,-1.3047,-1.2803,-1.2876,-1.2818,-1.2599,-1.1889,-1.152,-1.147,-0.9739,-0.8846,-0.916,-0.8105,-0.7359,0.0,0.0,0.0,0.0,0.0,0.0,0.0,0.0,0.0,0.0,0.0,-0.6502,-0.6747,-0.6822,-0.737,-0.8474,-0.8061,-0.7789,-0.7934,-0.7565,-0.755,-0.8156,-0.879,-0.9044,-0.8622,-0.8646,-0.8851,-0.923,-0.9268,-0.9341,-0.9581,-0.928,-0.9082,-0.9175,-0.9302,-0.9534,-0.9904,-1.0436,-1.0908,-1.121,-1.1148,-1.1158,-1.1181,-1.0336,-0.9642,-0.9724,-0.9234,-0.8869,-0.8908,-0.9064,-0.9206,-0.9263,-0.9367,-0.9457,-0.9554,-0.994,-1.0454,-1.0995,-1.1503,-1.2262,-2.3585,-2.2619,-2.2629,-2.1706,-2.0161,-2.0175,-1.9824,-1.9307,-1.9551,-1.916,-1.8391,-1.8517,-1.8721,-1.8903,-1.8993,-1.8903,-1.8745,-1.8784,-1.8822,-1.8822,-1.8822,-1.8822,-1.8798,-1.8822,-1.8836,-1.8955,-1.8836,-1.8587,-1.8093,-1.7896,-1.7553,-1.7015,-1.6219,-1.5885,-1.6025,-1.5797,-1.6104,-1.6957,-1.586,-1.5098,-1.4726,-1.3989,-1.3412,-1.2988,-1.2817,-1.2705,-1.2524,-1.1795,-1.1377,-1.1305,-1.0672,-1.0065,-0.9584,-0.9453,-0.8974,0.0,-0.8182,0.0,0.0,0.0,0.0,0.0,0.0,0.0,0.0,-0.6744,-0.7424,-0.8304,-0.8717,-0.9116,-0.9488,-0.9315,-0.908,-0.893,-0.8597,-0.8452,-0.8701,-0.9181,-0.9478,-0.9426,-0.9559,-0.9665,-0.9523,-0.9613,-0.9688,-0.9562,-0.9542,-0.9638,-0.9893,-0.9995,-1.0147,-1.0434,-1.0883,-1.131,-1.1564,-1.1444,-1.1351,-1.1474,-1.0768,-0.9966,-1.0116,-0.9534,-0.9015,-0.8992,-0.9108,-0.9177,-0.9113,-0.929,-0.9412,-0.9448,-1.0208,-1.0956,-1.1333,-1.2103,-1.2985,-2.3363,-2.3098,-2.2623,-2.1679,-2.0608,-2.0552,-1.9838,-1.8681,-1.8395,-1.8457,-1.8797,-1.8621,-1.8475,-1.8475,-1.8827,-1.8707,-1.8277,-1.8616,-1.8822,-1.8822,-1.8793,-1.8769,-1.8736,-1.8769,-1.8784,-1.875,-1.8812,-1.8727,-1.8579,-1.8527,-1.8394,-1.8138,-1.7056,-1.7,-1.7829,0.0,0.0,0.0,-1.6327,-1.5479,-1.4865,-1.3831,-1.3288,-1.331,-1.3524,0.0,-1.3288,-1.2082,-1.1263,-1.0962,-0.9504,0.0,0.0,0.0,0.0,0.0,0.0,0.0,0.0,0.0,0.0,0.0,-0.8155,-0.7576,-0.6854,-0.7445,-0.8143,-0.8724,-0.8813,-0.8641,-0.8161,-0.9292,-0.9641,-0.8656,-0.8949,-0.9426,-0.9812,-1.0302,-1.0456,-1.0087,-1.0416,-1.0403,-0.9734,-0.9955,-1.0052,-0.9664,-0.9591,-0.9788,-1.016,-1.0351,-1.0552,-1.0718,-1.1066,-1.145,-1.174,-1.1839,-1.1942,-1.2158,-1.1884,-1.1466,-1.135,-1.0433,-0.9718,-0.9664,-0.9418,-0.9177,-0.9187,-0.934,-0.9474,-0.9501,-1.0211,-1.108,-1.1892,-1.2865,-1.3811,-2.3495,0.0,-2.2921,-2.2277,0.0,-2.1255,-2.0543,-1.943,-1.8973,-1.8852,-1.8993,-1.8405,-1.8187,-1.8305,-1.8707,-1.8592,-1.8054,-1.8475,-1.8644,-1.8644,-1.8669,-1.8683,-1.8725,-1.8745,-1.8731,-1.8736,-1.8736,-1.875,-1.8711,-1.8634,-1.8556,-1.8503,-1.759,-1.745,-1.8012,-1.6817,-1.6508,-1.714,-1.6567,-1.6064,-1.5644,-1.5185,-1.4704,-1.43,0.0,0.0,0.0,0.0,0.0,0.0,0.0,0.0,0.0,0.0,0.0,-1.0423,-0.988,-0.9545,-0.952,-0.9062,-0.8925,-0.9274,-0.9239,-0.8916,-0.8193,-0.8931,-0.9569,-0.986,-1.0242,-1.0375,-1.0093,-1.0599,-1.0717,-1.017,-0.9769,-0.9788,-1.0516,-1.13,-1.1328,-1.0437,-1.0469,-1.036,-0.9647,-0.9755,-0.9827,-0.9586,-0.9564,-0.9736,-1.0185,-1.0274,-1.0363,-1.0791,-1.1192,-1.1519,-1.1747,-1.1982,-1.2215,-1.2434,-1.2193,-1.1958,-1.1943,-1.0858,-0.9941,-0.9877,-0.9526,-0.9191,-0.9136,-0.9284,-0.9466,-0.9529,-1.0212,-1.1136,-1.2105,-1.3044,-1.397,-2.3666,-2.2978,-2.3053,-2.2673,-2.1946,-2.1741,-2.1179,-2.0414,0.0,0.0,0.0,-1.8149,-1.7948,-1.8187,-1.8553,-1.8397,-1.7922,-1.8307,-1.8478,-1.8478,-1.8478,-1.8556,-1.8687,-1.8683,-1.8745,-1.8784,-1.875,-1.8725,-1.8673,-1.8556,-1.8478,-1.8422,-1.7913,-1.7548,-1.745,-1.7548,-1.7351,-1.6874,-1.681,-1.6743,-1.6571,-1.6587,-1.6222,-1.5423,-1.5554,-1.5586,-1.549,-1.4854,-1.4282,-1.3761,-1.3188,-1.2716,-1.2264,-1.1799,-1.1511,-1.141,-1.1128,-1.077,-1.0393,-1.0147,-1.0032,-0.9987,-1.0297,-1.03,-0.9918,-1.0437,-1.0873,-1.0975,-1.1663,-1.206,-1.2107,-1.1941,-1.1728,-1.1727,-1.0741,-1.0404,-1.1093,-1.2033,-1.2083,-1.0822,-1.0624,-1.0353,-0.9788,-0.9692,-0.9581,-0.9521,-0.9523,-0.967,-1.0122,-1.0248,-1.0447,-1.0944,-1.1293,-1.1556,-1.1783,-1.1961,-1.2215,-1.2517,-1.2324,-1.209,-1.1843,-1.0982,-1.0185,-0.9938,-0.952,-0.9178,-0.9075,-0.9243,-0.9394,-0.9412,-1.0195,-1.1162,-1.2098,-1.2979,-1.3871,-2.336,-2.2434,-2.2356,-2.1699,-2.0712,-2.1219,-2.1049,-2.0316,-1.9371,-1.8851,-1.8727,-1.8058,-1.7733,-1.7639,-1.8095,-1.7949,-1.7352,-1.8149,-1.8478,0.0,-1.8478,-1.8517,-1.8556,-1.8655,-1.8693,-1.8711,-1.8725,-1.8725,-1.8687,-1.8556,-1.8478,-1.8447,-1.7913,-1.7351,-1.6902,-1.7337,-1.7562,-1.7478,-1.7288,-1.7204,-1.716,-1.6523,-1.6186,-1.6177,-1.6181,-1.622,-1.6249,-1.5618,-1.5226,-1.5098,-1.3704,-1.3006,-1.3245,-1.2329,-1.1907,-1.2129,-1.1298,-1.106,-1.1699,-1.1029,-1.1076,-1.2113,-1.2013,-1.1882,-1.1875,-1.1214,-1.0982,-1.1349,-1.1616,-1.1452,-1.1069,-1.1789,-1.1998,-1.1304,-1.1782,-1.2136,-1.1781,-1.2283,-1.2394,-1.1624,-1.1664,-1.1231,-1.0389,-1.0161,-0.9956,-0.9617,-0.9589,-0.9632,-1.0021,-1.0643,-1.1108,-1.1307,-1.1421,-1.1578,-1.1762,-1.1961,-1.2215,-1.2537,-1.2646,-1.2498,-1.2058,-1.1294,-1.0525,-0.9995,-0.9409,-0.9097,-0.9133,-0.9282,-0.9403,-0.9493,-1.0159,-1.0994,-1.1996,-1.2861,-1.3802,-2.392,-2.3793,-2.3425,-2.2802,-2.1963,-2.1602,-2.1075,-2.043,-1.9701,-1.9275,-1.9098,-1.8568,-1.8232,-1.8175,-1.882,-1.8615,-1.7715,-1.8577,-1.884,-1.8492,-1.8478,-1.8556,-1.8595,-1.8669,-1.8707,-1.8725,-1.8725,-1.8687,-1.8595,-1.8503,-1.8478,-1.8464,-1.8198,-1.7955,-1.7717,-1.7955,-1.8058,-1.8082,-1.7429,-1.7249,-1.7564,-1.7202,-1.7066,-1.7131,-1.736,-1.7525,-1.7534,-1.7267,-1.6922,-1.6605,-1.5434,-1.4616,-1.4158,-1.3173,-1.2556,-1.2401,-1.1861,-1.1688,-1.2079,-1.1722,-1.1768,-1.2342,-1.2294,-1.2231,-1.2221,-1.1782,-1.1618,-1.1792,-1.1838,-1.1792,-1.1548,-1.2095,-1.2176,-1.1417,-1.216,-1.2353,-1.1745,-1.2214,-1.2366,-1.162,-1.1459,-1.1267,-1.0798,-1.0245,-0.9956,-0.986,-0.9931,-0.9982,-1.0135,-1.0811,-1.1262,-1.1155,-1.133,-1.1511,-1.1645,-1.1826,-1.2066,-1.2392,-1.2607,-1.2523,-1.2058,-1.1379,-1.0665,-0.9982,-0.932,-0.9021,-0.9106,-0.9234,-0.9348,-0.951,-0.9779,-1.0508,-1.1442,-1.2361,-1.3472,-2.4515,-2.4834,-2.4061,-2.3445,-2.2804,-2.1808,-2.1091,-2.0557,-2.0175,-1.9824,-1.9509,-1.8949,-1.8621,-1.8642,-1.9427,-1.9135,-1.8305,-1.914,-1.9263,-1.877,-1.8866,-1.8906,-1.8846,-1.8871,-1.8775,-1.8676,-1.88,-1.8807,-1.8728,-1.8728,-1.8604,-1.8492,-1.8478,-1.8478,-1.8478,-1.8478,-1.8478,-1.845,-1.7589,-1.7341,-1.776,-1.7908,-1.7922,-1.7841,-1.8254,-1.8478,-1.8478,-1.8478,-1.8293,-1.7805,-1.6925,-1.5995,-1.5128,-1.405,-1.3208,-1.2649,-1.2469,-1.2301,-1.2113,-1.2186,-1.2246,-1.221,-1.2246,-1.2246,-1.221,-1.2138,-1.2066,-1.2113,-1.2079,-1.2126,-1.2128,-1.2318,-1.2271,-1.1927,-1.2097,-1.204,-1.1479,-1.1741,-1.1895,-1.1284,-1.1183,-1.1135,-1.1063,-1.0365,-0.9821,-1.0012,-1.0197,-1.0323,-1.0445,-1.0907,-1.1178,-1.1146,-1.1285,-1.1481,-1.1511,-1.1696,-1.1933,-1.2205,-1.2277,-1.2106,-1.1679,-1.1068,-1.0385,-0.9653,-0.9155,-0.8931,-0.9047,-0.9149,-0.9284,-0.9457,-0.9779,-1.0255,-1.1291,-1.2279,-1.322,-2.4666,-2.419,-2.3122,-2.2115,-2.1691,-2.1493,-2.1104,-2.0646,-2.0544,-2.0268,-1.9699,-1.8727,-1.8358,-1.8482,-1.9074,-1.8932,-1.821,-1.9608,-1.9964,-1.9445,-1.9934,-1.9905,-1.9374,-1.9349,-1.9055,-1.87,-1.9079,-1.9304,-1.9305,-1.9291,-1.9011,-1.8534,-1.8478,-1.8478,-1.8478,-1.8478,-1.8478,-1.8478,-1.7987,-1.7747,-1.7828,-1.8214,-1.8214,-1.7787,-1.8254,-1.8478,-1.8478,-1.8478,-1.8489,-1.8313,-1.7127,-1.6336,-1.6075,-1.4829,-1.3741,-1.3144,-1.2983,-1.2695,-1.2182,-1.2258,-1.2318,-1.2198,-1.2282,-1.233,-1.221,-1.215,-1.2066,-1.2102,-1.2186,-1.2138,-1.2138,-1.233,-1.239,-1.2213,-1.1768,-1.1388,-1.156,-1.0609,-1.0289,-1.1718,-1.1315,-1.1267,-1.1532,-1.0834,-1.0065,-0.9719,-1.0071,-1.036,-1.0483,-1.093,-1.1293,-1.133,-1.1444,-1.1504,-1.1526,-1.1733,-1.1891,-1.1972,-1.1854,-1.1601,-1.1124,-1.0498,-0.9703,-0.9425,-0.8893,-0.8897,-0.9043,-0.9177,-0.9274,-0.9493,-0.9996,-1.0813,-1.1873,-1.2666,-1.3424,-2.5712,-2.5827,-2.4947,-2.3729,-2.2535,-2.2106,-2.1583,-2.1091,-2.1077,-2.0795,-2.027,-1.9832,-1.9381,-1.9033,-1.959,-1.9521,-1.9094,-2.0112,-2.0365,-2.0049,-2.0302,-2.0288,-2.0021,-2.0006,-1.9852,-1.9613,-1.9515,-1.96,-1.988,-1.9572,-1.9081,-1.8548,-1.8478,-1.8478,-1.8478,-1.8478,-1.8478,-1.8478,-1.8307,-1.7962,-1.7557,-1.7882,-1.8002,-1.7828,-1.7962,-1.8095,-1.8095,-1.8095,-1.8082,-1.8014,-1.701,-1.627,-1.5964,-1.4687,-1.3733,-1.3226,-1.2735,-1.2482,-1.2574,-1.2396,-1.2246,-1.221,-1.2246,-1.2258,-1.2198,-1.215,-1.2066,-1.2113,-1.2102,-1.215,-1.2102,-1.2294,-1.233,-1.2024,-1.194,-1.1778,-1.0996,-1.0837,-1.1002,-1.1363,-1.0966,-1.0966,-1.152,-1.0966,-1.0193,-0.9833,-1.0097,-1.036,-1.0605,-1.1015,-1.127,-1.1399,-1.1444,-1.1504,-1.1489,-1.1578,-1.174,-1.193,-1.2029,-1.1803,-1.1316,-1.0858,-1.0278,-0.9537,-0.92,-0.9004,-0.9022,-0.9146,-0.9265,-0.9547,-0.9729,-1.0394,-1.1315,-1.1506,-1.1724,-2.6329,-2.6774,-2.6299,-2.5131,-2.3653,-2.3174,-2.2567,-2.1897,-2.187,-2.1496,-2.0858,-2.0795,-2.0396,-1.9772,-2.0029,-2.0025,-1.9874,-2.0563,-2.0781,-2.0709,-2.0867,-2.0867,-2.0653,-2.0639,-2.0555,-2.0358,-2.0105,-2.0175,-2.0555,-2.0189,-1.9543,-1.8843,-1.8731,-1.8647,-1.8492,-1.8478,-1.8478,-1.8478,-1.8386,-1.7989,-1.7475,-1.7557,-1.7598,-1.7503,-1.7801,-1.7908,-1.7787,-1.7935,-1.8016,-1.7948,-1.7117,-1.6451,-1.6059,-1.4999,-1.4099,-1.34,-1.2721,-1.2424,-1.2689,-1.2394,-1.221,-1.2162,-1.221,-1.221,-1.2174,-1.215,-1.2113,-1.2113,-1.1993,-1.1968,-1.2102,-1.2186,-1.2083,-1.186,-1.2377,-1.2082,-1.0816,-1.1089,-1.1161,-1.0894,-1.057,-1.057,-1.1147,-1.078,-1.0213,-0.9979,-1.0173,-1.0472,-1.0787,-1.1108,-1.1353,-1.1421,-1.1466,-1.1504,-1.1489,-1.1541,-1.1652,-1.1773,-1.1933,-1.186,-1.1651,-1.1237,-1.0941,-1.0161,-0.9706,-0.9624,-0.9909,-0.9886,-0.9857,-1.0004,-1.0111,-1.0234,-1.0887,-1.0562,-1.0508,-2.6258,-2.6678,-2.6097,-2.5449,-2.4826,-2.4705,-2.4012,-2.3007,-2.3055,-2.2429,-2.1499,-2.141,-2.0993,-2.0372,-2.0283,-2.0124,-2.0035,-2.0893,-2.1313,-2.1313,-2.1823,-2.1809,-2.1302,-2.126,-2.0962,-2.0625,-2.0878,-2.1105,-2.1203,-2.1189,-2.0569,-1.939,-1.9305,-1.9039,-1.8602,-1.8517,-1.8478,-1.8478,-1.8095,-1.7801,-1.7707,-1.7393,-1.7073,-1.6808,-1.7774,-1.8175,-1.7922,-1.8228,-1.8439,-1.8439,-1.7572,-1.7011,-1.6815,-1.6009,-1.4967,-1.3901,-1.3189,-1.2666,-1.2309,-1.2232,-1.2174,-1.2102,-1.2186,-1.2174,-1.2113,-1.2102,-1.2066,-1.2066,-1.1737,-1.1664,-1.2029,-1.1968,-1.2018,-1.2307,-1.2543,-1.2167,-1.119,-1.0832,-1.0569,-1.0427,-1.0365,-1.0341,-1.0413,-1.0411,-1.0239,-1.0082,-1.0261,-1.0621,-1.0897,-1.1215,-1.1399,-1.1466,-1.1504,-1.1511,-1.1511,-1.1519,-1.1571,-1.168,-1.1683,-1.1571,-1.1337,-1.1172,-1.1007,-1.0908,-1.0698,-1.071,-1.1018,-1.1182,-1.1223,-1.1165,-1.0804,-1.0891,-1.0562,-1.0882,-1.0754,-2.6621,-2.6765,-2.6533,-2.6067,-2.5494,-2.543,-2.4982,-2.4302,-2.421,-2.3518,-2.2623,-2.2505,-2.1944,-2.1028,-2.051,-2.0393,-2.058,-2.1328,-2.173,-2.1875,-2.2179,-2.2151,-2.1935,-2.1847,-2.1809,-2.1566,-2.14,-2.1105,-2.0793,-2.1119,-2.0682,-1.971,-1.9445,-1.9136,-1.8708,-1.8556,-1.8478,-1.8425,-1.8055,-1.7679,-1.7462,-1.7529,-1.7269,-1.6595,-1.7269,-1.7733,-1.7787,-1.7962,-1.7935,-1.7693,-1.7062,-1.652,-1.6133,-1.5401,-1.49,-1.4563,-1.3541,-1.2965,-1.2988,-1.2496,-1.2174,-1.2113,-1.2174,-1.2162,-1.2102,-1.2066,-1.2066,-1.1993,-1.1505,-1.1468,-1.1945,-1.1957,-1.1968,-1.2401,-1.2579,-1.2265,-1.1399,-1.0977,-1.0743,-1.0437,-1.0317,-1.0197,-0.9991,-0.9978,-1.0119,-1.0301,-1.0534,-1.0815,-1.1146,-1.133,-1.1421,-1.1489,-1.1504,-1.1511,-1.1556,-1.1534,-1.1564,-1.1645,-1.1695,-1.1887,-1.1835,-1.1633,-1.1483,-1.1576,-1.1503,-1.1369,-1.1496,-1.1516,-1.1689,-1.1304,-1.1013,-1.0674,-1.0118,-1.0449,-1.0298,-2.6794,-2.6794,-2.6794,-2.6518,-2.6126,-2.6112,-2.5749,-2.5212,-2.5139,-2.4581,-2.3786,-2.3652,-2.2993,-2.2028,-2.1667,-2.135,-2.1215,-2.1444,-2.1732,-2.2217,-2.2324,-2.2278,-2.2217,-2.217,-2.217,-2.2114,-2.1823,-2.1341,-2.106,-2.1428,-2.0994,-1.9907,-1.9781,-1.9345,-1.8736,-1.8556,-1.8478,-1.84,-1.8042,-1.7599,-1.7222,-1.7423,-1.7222,-1.6553,-1.6847,-1.7236,-1.7503,-1.7458,-1.738,-1.7076,-1.6612,-1.6138,-1.564,-1.5096,-1.4792,-1.4729,-1.3776,-1.3207,-1.3265,-1.2623,-1.2138,-1.2113,-1.215,-1.2138,-1.2113,-1.215,-1.215,-1.1993,-1.1653,-1.1579,-1.2018,-1.2018,-1.2029,-1.2437,-1.2627,-1.2287,-1.141,-1.1185,-1.075,-1.0156,-0.9989,-0.986,-0.9688,-0.9761,-0.9969,-1.0286,-1.051,-1.0801,-1.1155,-1.1316,-1.1376,-1.1489,-1.1534,-1.1489,-1.1489,-1.1489,-1.1564,-1.1645,-1.1781,-1.2066,-1.2245,-1.204,-1.2051,-1.2191,-1.2154,-1.1959,-1.1867,-1.1877,-1.1636,-1.126,-1.0894,-1.063,-1.0273,-1.0029,-1.0098,-2.6794,-2.6837,-2.6808,-2.6866,-2.6866,-2.6808,-2.6416,-2.5923,-2.5807,-2.5379,-2.478,-2.4737,-2.4132,-2.3328,-2.3331,-2.3046,-2.2172,-2.1415,-2.1479,-2.2324,-2.2278,-2.2217,-2.217,-2.217,-2.217,-2.217,-2.2156,-2.2189,-2.2076,-2.2112,-2.1532,-2.0584,-2.0302,-1.9653,-1.8517,-1.8517,-1.8478,-1.84,-1.8055,-1.7517,-1.6992,-1.7116,-1.6837,-1.6153,-1.6521,-1.6788,-1.6853,-1.6775,-1.673,-1.6725,-1.6402,-1.596,-1.5552,-1.5332,-1.5002,-1.4554,-1.3914,-1.3409,-1.2988,-1.2505,-1.2194,-1.2113,-1.2113,-1.2113,-1.2113,-1.2186,-1.2222,-1.2138,-1.192,-1.1909,-1.2282,-1.2102,-1.2018,-1.2425,-1.2615,-1.238,-1.1743,-1.1247,-1.069,-0.9797,-0.9617,-0.956,-0.9562,-0.9743,-0.998,-1.0097,-1.0273,-1.057,-1.0991,-1.1155,-1.127,-1.1444,-1.1474,-1.1407,-1.1407,-1.1407,-1.1549,-1.1681,-1.1861,-1.2066,-1.2266,-1.2221,-1.247,-1.2619,-1.2807,-1.2635,-1.2537,-1.2501,-1.2378,-1.2016,-1.1404,-1.0876,-1.0702,-1.056,-1.0442,-2.7041,-2.7418,-2.7432,-2.7694,-2.7998,-2.7621,-2.7302,-2.707,-2.6678,-2.6097,-2.556,-2.5487,-2.504,-2.4224,-2.3712,-2.353,-2.3595,-2.227,-2.1841,-2.2292,-2.2278,-2.2184,-2.2184,-2.217,-2.217,-2.217,-2.217,-2.2231,-2.2239,-2.1914,-2.1308,-2.0656,-2.0104,-1.948,-1.8729,-1.8556,-1.8531,-1.8574,-1.8083,-1.7424,-1.6678,-1.6849,-1.6569,-1.5753,-1.573,-1.5738,-1.5738,-1.6085,-1.6022,-1.5581,-1.5747,-1.5753,-1.5516,-1.539,-1.5186,-1.4867,-1.4419,-1.3902,-1.3397,-1.2942,-1.2482,-1.2205,-1.2077,-1.2066,-1.2102,-1.2174,-1.2222,-1.2138,-1.1763,-1.1715,-1.2234,-1.1957,-1.1945,-1.2579,-1.2662,-1.2404,-1.1596,-1.0663,-0.9932,-0.9653,-0.9797,-0.9884,-0.9773,-0.997,-1.0271,-1.0187,-1.0336,-1.0594,-1.0944,-1.1038,-1.1224,-1.1444,-1.1347,-1.1256,-1.121,-1.121,-1.1347,-1.1505,-1.1688,-1.1988,-1.221,-1.2372,-1.2665,-1.2962,-1.3158,-1.326,-1.3154,-1.3089,-1.2931,-1.2639,-1.205,-1.1656,-1.1379,-1.1176,-1.0981,-2.7157,-2.7708,-2.7737,-2.81,-2.8579,-2.8013,-2.7737,-2.7636,-2.7055,-2.6547,-2.6213,-2.6155,-2.5792,-2.5055,-2.414,-2.402,-2.4396,-2.2991,-2.2474,-2.2621,-2.2348,-2.2297,-2.2437,-2.2269,-2.217,-2.217,-2.217,-2.2278,-2.2388,-2.1792,-2.1225,-2.0656,-2.0014,-1.9401,-1.886,-1.862,-1.8539,-1.8327,-1.7907,-1.7199,-1.6474,-1.66,-1.624,-1.5274,-1.5146,-1.4958,-1.4557,-1.4827,-1.4912,-1.4727,-1.5134,-1.5441,-1.5487,-1.5424,-1.5289,-1.5061,-1.466,-1.4224,-1.3868,-1.3237,-1.2793,-1.2447,-1.2229,-1.2113,-1.2102,-1.2222,-1.2258,-1.2029,-1.1799,-1.1726,-1.1982,-1.1945,-1.1888,-1.2095,-1.2495,-1.2285,-1.146,-1.0294,-0.9608,-0.9557,-0.9761,-0.99,-1.0043,-1.002,-1.0447,-1.0327,-1.0328,-1.0436,-1.0715,-1.0811,-1.1001,-1.1132,-1.1108,-1.1038,-1.0991,-1.1038,-1.1141,-1.1302,-1.1482,-1.1833,-1.2107,-1.2231,-1.2451,-1.2889,-1.3174,-1.3379,-1.3329,-1.3442,-1.3386,-1.2988,-1.246,-1.1967,-1.1533,-1.1486,-1.1324,-2.7171,-2.7752,-2.7741,-2.8245,-2.8739,-2.8144,-2.7853,-2.7708,-2.707,-2.6765,-2.6721,-2.6678,-2.6387,-2.5792,-2.4998,-2.4654,-2.4418,-2.3629,-2.3118,-2.2977,-2.2611,-2.2423,-2.2732,-2.2381,-2.2231,-2.2217,-2.2217,-2.231,-2.242,-2.1782,-2.1283,-2.0726,-2.005,-1.9516,-1.8912,-1.8721,-1.8314,-1.7896,-1.7636,-1.6886,-1.5797,-1.6257,-1.5896,-1.4424,-1.4715,-1.4478,-1.3599,-1.3449,-1.3607,-1.4013,-1.4679,-1.5145,-1.5428,-1.5513,-1.539,-1.5142,-1.4672,-1.4465,-1.4189,-1.3501,-1.2965,-1.2816,-1.239,-1.2113,-1.2138,-1.2305,-1.2305,-1.2029,-1.1993,-1.1932,-1.1774,-1.1811,-1.181,-1.1572,-1.2114,-1.2016,-1.1135,-1.0113,-0.9581,-0.9509,-0.9533,-0.9692,-1.0173,-0.9976,-1.0158,-1.0237,-1.017,-1.0174,-1.031,-1.0508,-1.0545,-1.0656,-1.0839,-1.0801,-1.0753,-1.0873,-1.0977,-1.1144,-1.124,-1.1406,-1.1861,-1.2038,-1.1971,-1.2461,-1.3192,-1.3379,-1.3338,-1.3296,-1.3246,-1.2846,-1.2373,-1.1919,-1.1947,-1.2115,-1.2139,-2.7432,-2.8405,-2.8419,-2.9073,-2.9827,-2.8913,-2.8419,-2.8274,-2.7229,-2.6794,-2.6779,-2.6794,-2.6596,-2.6246,-2.5603,-2.5023,-2.4418,-2.366,-2.328,-2.3183,-2.2538,-2.2283,-2.2395,-2.2283,-2.2263,-2.2324,-2.2324,-2.2477,-2.2603,-2.1585,-2.1011,-2.0795,-1.98,-1.9157,-1.8879,-1.8309,-1.7984,-1.7763,-1.7185,-1.641,-1.5572,-1.5714,-1.5283,-1.4047,-1.404,-1.3838,-1.3229,-1.2965,-1.3289,-1.4142,-1.4341,-1.4857,-1.5552,-1.5626,-1.5537,-1.5277,-1.5128,-1.484,-1.4393,-1.3765,-1.326,-1.2908,-1.2473,-1.2186,-1.2174,-1.2377,-1.2401,-1.2294,-1.2222,-1.2029,-1.192,-1.1752,-1.1698,-1.1884,-1.1922,-1.1603,-1.0755,-0.9956,-0.9497,-0.9521,-0.9833,-0.9968,-0.9927,-1.0083,-1.019,-1.0084,-1.0052,-1.0046,-1.0289,-1.0352,-1.0493,-1.0536,-1.0645,-1.0572,-1.0559,-1.0681,-1.0798,-1.0987,-1.0994,-1.0855,-1.1324,-1.1714,-1.1525,-1.1498,-1.2891,-1.3412,-1.2931,-1.2584,-1.2529,-1.2819,-1.2759,-1.2601,-1.3095,-1.3361,-1.3356,-2.752,-2.8666,-2.8666,-2.9421,-3.035,-2.9218,-2.8666,-2.8419,-2.736,-2.6794,-2.6736,-2.6474,-2.6451,-2.6381,-2.5264,-2.4773,-2.4623,-2.3659,-2.3224,-2.3131,-2.251,-2.2212,-2.2231,-2.2231,-2.2324,-2.2417,-2.2463,-2.2583,-2.252,-2.147,-2.0909,-2.0703,-1.9676,-1.9084,-1.9003,-1.8272,-1.7698,-1.7436,-1.6618,-1.5743,-1.5156,-1.5067,-1.4639,-1.3854,-1.3669,-1.3501,-1.3035,-1.2803,-1.3204,-1.4024,-1.4337,-1.4742,-1.5572,-1.5703,-1.5582,-1.53,-1.53,-1.5105,-1.4681,-1.4029,-1.3633,-1.3397,-1.28,-1.2408,-1.2504,-1.2554,-1.2437,-1.221,-1.215,-1.2041,-1.185,-1.157,-1.1625,-1.1861,-1.1631,-1.1288,-1.0942,-1.0558,-1.0096,-0.9989,-1.0048,-1.0221,-0.9888,-1.0253,-1.0272,-1.0269,-1.055,-1.0525,-1.0532,-1.0495,-1.0483,-1.0586,-1.0478,-1.0376,-1.0474,-1.0608,-1.0613,-1.0777,-1.0535,-1.0421,-1.0715,-1.1227,-1.1399,-1.1548,-1.2656,-1.3193,-1.2613,-1.2421,-1.2961,-1.3201,-1.3247,-1.3289,-1.3538,-1.3889,-1.3974,-2.7476,-2.8594,-2.8579,-2.9276,-3.0045,-2.9116,-2.8507,-2.8332,-2.7287,-2.6794,-2.6649,-2.6083,-2.6162,-2.6381,-2.4812,-2.4156,-2.4874,-2.3603,-2.3126,-2.2838,-2.2484,-2.2231,-2.2278,-2.2324,-2.2431,-2.2477,-2.2569,-2.2689,-2.2521,-2.1571,-2.1021,-2.0729,-1.9812,-1.9217,-1.8977,-1.8353,-1.771,-1.7073,-1.6053,-1.531,-1.4855,-1.4574,-1.4178,-1.3741,-1.3535,-1.3276,-1.2932,-1.2818,-1.3288,-1.4253,-1.4241,-1.4718,-1.5465,-1.568,-1.5534,-1.539,-1.5345,-1.5289,-1.5015,-1.4278,-1.394,-1.4092,-1.3043,-1.2501,-1.2883,-1.2744,-1.2377,-1.2174,-1.2113,-1.2041,-1.1707,-1.1465,-1.1561,-1.1798,-1.1511,-1.1503,-1.1667,-1.1367,-1.0792,-1.0319,-1.0212,-1.0192,-1.0278,-1.0351,-1.0386,-1.0173,-1.0528,-1.0709,-1.0767,-1.0845,-1.0756,-1.0668,-1.0467,-1.02,-1.0376,-1.057,-1.0521,-1.0509,-1.0105,-0.992,-1.0061,-1.0535,-1.1138,-1.1712,-1.2256,-1.2468,-1.2295,-1.2511,-1.2951,-1.3095,-1.2833,-1.301,-1.3289,-1.3702,-1.3915,-2.7229,-2.7926,-2.794,-2.8376,-2.8898,-2.8274,-2.7955,-2.7882,-2.7128,-2.6794,-2.6634,-2.6083,-2.6052,-2.6371,-2.4919,-2.4176,-2.3961,-2.3322,-2.2873,-2.2414,-2.2423,-2.2324,-2.237,-2.2417,-2.2537,-2.2644,-2.2735,-2.2781,-2.2626,-2.2106,-2.1496,-2.0944,-2.0262,-1.9624,-1.9101,-1.8411,-1.7726,-1.704,-1.593,-1.5101,-1.4701,-1.4424,-1.4013,-1.3501,-1.3229,-1.3012,-1.2935,-1.318,-1.3713,-1.4063,-1.4024,-1.4434,-1.542,-1.5413,-1.5326,-1.5431,-1.5501,-1.5457,-1.5173,-1.4664,-1.4383,-1.4486,-1.3579,-1.2974,-1.3172,-1.2902,-1.2627,-1.252,-1.252,-1.2365,-1.2056,-1.1641,-1.1733,-1.1977,-1.1924,-1.1804,-1.1791,-1.0932,-1.0293,-0.9938,-0.9677,-0.9391,-0.9497,-0.9858,-0.9978,-1.0061,-1.0428,-1.0769,-1.0935,-1.106,-1.0935,-1.0734,-1.0541,-1.0276,-1.0237,-1.0379,-1.0344,-1.0217,-0.9799,-0.9684,-0.9818,-1.0094,-1.0801,-1.1188,-1.1524,-1.1649,-1.184,-1.1666,-1.1931,-1.215,-1.2554,-1.3049,-1.3458,-1.3744,-1.3961,-2.7157,-2.7723,-2.7737,-2.81,-2.8521,-2.8013,-2.7737,-2.7607,-2.7055,-2.6794,-2.6649,-2.6031,-2.5949,-2.6261,-2.4733,-2.3815,-2.3607,-2.2972,-2.2507,-2.2287,-2.2324,-2.2431,-2.2523,-2.2569,-2.2689,-2.2809,-2.2826,-2.2872,-2.2728,-2.2338,-2.1801,-2.1394,-2.0582,-1.9972,-1.9449,-1.8592,-1.7985,-1.7317,-1.5943,-1.499,-1.4855,-1.4353,-1.4046,-1.3602,-1.3207,-1.2946,-1.3204,-1.3679,-1.416,-1.442,-1.4325,-1.4594,-1.5512,-1.5497,-1.5409,-1.5463,-1.5198,-1.5292,-1.508,-1.4638,-1.4327,-1.4766,-1.378,-1.3433,-1.3223,-1.2938,-1.2663,-1.2674,-1.2674,-1.2615,-1.2484,-1.2283,-1.2259,-1.2354,-1.2433,-1.2293,-1.2024,-1.1331,-1.0523,-1.0142,-0.9867,-0.9592,-0.954,-0.9692,-0.9833,-1.0026,-1.0828,-1.1161,-1.0784,-1.0872,-1.0844,-1.0737,-1.0568,-1.0405,-1.0225,-1.02,-1.019,-0.9946,-0.9579,-0.9651,-0.9849,-1.0157,-1.0557,-1.0859,-1.1162,-1.1395,-1.1516,-1.1259,-1.125,-1.1998,-1.2637,-1.3218,-1.3676,-1.3955,-1.4203,-2.7099,-2.7578,-2.7538,-2.7911,-2.826,-2.7795,-2.7549,-2.7476,-2.7026,-2.6794,-2.6663,-2.5957,-2.5911,-2.584,-2.4362,-2.378,-2.3512,-2.2831,-2.2212,-2.2231,-2.237,-2.2463,-2.2555,-2.2721,-2.2781,-2.2855,-2.2872,-2.2902,-2.2757,-2.2439,-2.2135,-2.1801,-2.0857,-2.0233,-1.9856,-1.9014,-1.8259,-1.778,-1.6462,-1.5397,-1.5277,-1.4607,-1.4219,-1.3855,-1.3344,-1.309,-1.3374,-1.3827,-1.4325,-1.4747,-1.4777,-1.5069,-1.5393,-1.5628,-1.5552,-1.5372,-1.5002,-1.4993,-1.4984,-1.4561,-1.4317,-1.4815,-1.386,-1.3414,-1.3322,-1.2901,-1.2496,-1.2473,-1.2473,-1.2484,-1.2697,-1.2555,-1.2637,-1.2756,-1.2827,-1.2603,-1.2174,-1.1982,-1.1203,-1.0343,-0.989,-0.9622,-0.9631,-0.973,-0.9851,-1.0088,-1.0931,-1.1337,-1.0922,-1.0825,-1.09,-1.0825,-1.0695,-1.0225,-0.9992,-0.965,-0.9684,-0.9549,-0.9242,-0.9501,-0.9851,-1.0555,-1.0881,-1.065,-1.0852,-1.1064,-1.0924,-1.0458,-1.08,-1.1857,-1.2415,-1.2662,-1.3301,-1.4089,-1.4361,-2.6837,-2.6939,-2.6939,-2.7012,-2.7084,-2.6997,-2.6982,-2.6924,-2.6852,-2.6794,-2.6692,-2.5972,-2.5897,-2.5902,-2.481,-2.3851,-2.3188,-2.255,-2.2273,-2.2278,-2.2417,-2.2555,-2.2661,-2.2797,-2.2857,-2.2888,-2.2888,-2.2888,-2.2873,-2.2757,-2.2483,-2.1946,-2.1206,-2.0625,-2.0059,-1.931,-1.8593,-1.8148,-1.7111,-1.6304,-1.5595,-1.5038,-1.4513,-1.404,-1.3412,-1.3181,-1.3201,-1.3521,-1.3803,-1.3809,-1.4174,-1.4441,-1.4687,-1.4911,-1.4939,-1.49,-1.4951,-1.483,-1.4732,-1.4603,-1.4659,-1.4678,-1.3951,-1.344,-1.331,-1.2792,-1.2257,-1.2043,-1.1982,-1.1993,-1.2401,-1.2437,-1.2532,-1.272,-1.278,-1.2484,-1.1909,-1.1575,-1.1238,-1.0425,-1.0005,-0.9799,-0.9927,-1.0032,-1.0153,-1.0251,-1.0669,-1.0947,-1.0671,-1.0865,-1.1213,-1.1061,-1.0845,-1.0251,-0.9669,-0.9256,-0.9018,-0.8952,-0.8874,-0.9201,-0.9762,-1.0892,-1.1222,-1.0586,-1.0439,-1.0666,-1.0327,-0.9808,-1.0049,-1.0869,-1.1425,-1.1985,-1.2907,-1.3775,-1.4276,-2.6794,-2.6794,-2.6794,-2.6794,-2.6794,-2.6794,-2.6794,-2.6794,-2.6794,-2.6794,-2.6553,-2.5949,-2.5845,-2.5769,-2.4396,-2.3259,-2.2766,-2.2732,-2.2513,-2.2423,-2.2509,-2.2675,-2.2675,-2.2857,-2.2888,-2.2888,-2.2888,-2.2888,-2.2888,-2.2873,-2.2685,-2.2352,-2.1525,-2.0843,-2.0298,-1.9348,-1.8754,-1.8179,-1.7361,-1.6496,-1.5655,-1.4988,-1.4233,-1.3894,-1.3518,-1.3266,-1.3445,-1.3989,-1.4174,-1.4134,-1.4585,-1.4619,-1.4429,-1.4308,-1.4334,-1.4293,-1.4299,-1.4292,-1.4181,-1.4105,-1.3938,-1.4022,-1.3643,-1.3383,-1.3082,-1.247,-1.1898,-1.1715,-1.1678,-1.1774,-1.2258,-1.2246,-1.2473,-1.2756,-1.2803,-1.2401,-1.1872,-1.1718,-1.126,-1.0765,-1.0582,-1.0493,-1.0436,-1.0497,-1.0504,-1.0541,-1.0581,-1.0453,-1.0341,-1.0556,-1.0913,-1.0742,-1.0425,-1.0007,-0.9512,-0.9266,-0.8816,-0.8645,-0.8749,-0.9078,-0.9568,-1.066,-1.0511,-0.9896,-0.9966,-1.0515,-1.0068,-0.9684,-0.9805,-0.9944,-1.0633,-1.1465,-1.2568,-1.3424,-1.3959,-2.6794,-2.6794,-2.6794,-2.6794,-2.6794,-2.6794,-2.6794,-2.6794,-2.6794,-2.6794,-2.6654,-2.604,-2.5883,-2.5664,-2.4388,-2.3013,-2.2423,-2.285,-2.263,-2.2516,-2.2583,-2.2689,-2.2795,-2.2872,-2.2888,-2.2888,-2.2888,-2.2888,-2.2844,-2.2685,-2.2685,-2.2265,-2.1409,-2.0814,-2.0454,-1.9362,-1.8719,-1.8152,-1.7458,-1.6554,-1.5688,-1.4597,-1.3782,-1.3715,-1.3514,-1.3538,-1.3626,-1.4158,-1.4284,-1.4237,-1.4425,-1.4651,-1.4067,-1.3717,-1.3611,-1.3537,-1.3271,-1.3395,-1.3462,-1.3455,-1.3394,-1.3536,-1.3456,-1.3131,-1.2578,-1.192,-1.1413,-1.1319,-1.1266,-1.1404,-1.1763,-1.2066,-1.233,-1.265,-1.2756,-1.2591,-1.2079,-1.1839,-1.178,-1.1444,-1.1279,-1.1092,-1.0932,-1.0919,-1.0879,-1.0323,-1.031,-1.0043,-0.9921,-0.9814,-1.0017,-1.0016,-0.9805,-0.9585,-0.938,-0.9446,-0.9052,-0.8756,-0.9011,-0.9361,-0.9751,-1.0307,-0.9984,-0.9904,-1.0314,-1.0709,-1.0115,-0.956,-0.9498,-0.9663,-1.0144,-1.0939,-1.2072,-1.302,-1.3673,-2.6794,-2.6794,-2.6794,-2.6794,-2.6794,-2.6794,-2.6794,-2.6794,-2.6794,-2.6794,-2.6765,-2.6332,-2.6101,-2.5763,-2.4671,-2.3639,-2.3076,-2.2748,-2.2583,-2.2491,-2.2644,-2.2795,-2.2795,-2.2872,-2.2888,-2.2888,-2.2888,-2.2888,-2.2757,-2.241,-2.2178,-2.1946,-2.1104,-2.0248,-2.0248,-1.9276,-1.9055,-1.8936,-1.8646,-1.7796,-1.6423,-1.5172,-1.4357,-1.3947,-1.3894,-1.3868,-1.3672,-1.4012,-1.3989,-1.3458,-1.3458,-1.3328,-1.2926,-1.2782,-1.2662,-1.2787,-1.3058,-1.346,-1.3255,-1.3118,-1.3134,-1.3176,-1.3081,-1.2577,-1.2052,-1.1307,-1.0747,-1.0457,-1.0515,-1.0774,-1.1244,-1.1505,-1.1884,-1.233,-1.2685,-1.2579,-1.2282,-1.2128,-1.208,-1.2008,-1.1789,-1.1478,-1.1285,-1.1276,-1.1196,-1.0522,-0.9985,-0.9765,-0.961,-0.9598,-0.9682,-0.9816,-0.9793,-0.9559,-0.9447,-0.9488,-0.9355,-0.8987,-0.9375,-0.9721,-0.9991,-1.0345,-1.049,-1.0526,-1.0813,-1.0569,-0.9828,-0.936,-0.9162,-0.9336,-0.9774,-1.0595,-1.1569,-1.2444,-1.3161,-2.6794,-2.6794,-2.6794,-2.6794,-2.6794,-2.6794,-2.6794,-2.6794,-2.6794,-2.6727,-2.6505,-2.6031,-2.5521,-2.5062,-2.4287,-2.3766,-2.3202,-2.2918,-2.2715,-2.2566,-2.2689,-2.2855,-2.2872,-2.2902,-2.2888,-2.2888,-2.283,-2.2657,-2.2527,-2.2482,-2.2396,-2.1815,-2.109,-2.0451,-1.9976,-1.8942,-1.8662,-1.8454,-1.8096,-1.7283,-1.6244,-1.5271,-1.4466,-1.404,-1.4026,-1.3848,-1.3715,-1.4019,-1.3756,-1.3263,-1.3207,-1.3229,-1.2803,-1.2603,-1.2484,-1.2484,-1.2705,-1.2808,-1.2656,-1.273,-1.2815,-1.2889,-1.2746,-1.2496,-1.1911,-1.1233,-1.0671,-1.0649,-1.0438,-1.0544,-1.0916,-1.1404,-1.1799,-1.2246,-1.2639,-1.2449,-1.2365,-1.2543,-1.2449,-1.2366,-1.2259,-1.1919,-1.1594,-1.1422,-1.1216,-1.0579,-1.0119,-0.9898,-0.9781,-0.9761,-0.984,-0.9969,-0.9906,-0.9763,-0.9693,-0.9661,-0.9702,-0.9554,-1.0046,-1.0305,-1.0271,-1.0469,-1.0669,-1.0485,-1.0285,-0.9938,-0.9451,-0.9213,-0.9075,-0.9209,-0.9411,-1.0232,-1.1016,-1.137,-1.2139,-2.7115,-2.6959,-2.6832,-2.6794,-2.6794,-2.6794,-2.6794,-2.6794,-2.6794,-2.6712,-2.6419,-2.575,-2.5,-2.4315,-2.4047,-2.3554,-2.3209,-2.315,-2.2965,-2.2758,-2.2766,-2.2826,-2.2857,-2.2888,-2.2888,-2.2888,-2.2888,-2.27,-2.2614,-2.2497,-2.2352,-2.1569,-2.0886,-2.0364,-1.9685,-1.8938,-1.85,-1.8664,-1.7913,-1.7158,-1.6445,-1.5578,-1.4965,-1.4566,-1.4251,-1.3947,-1.3735,-1.4117,-1.3888,-1.3229,-1.3378,-1.3378,-1.2803,-1.2685,-1.2722,-1.2746,-1.2862,-1.2716,-1.2526,-1.2408,-1.2389,-1.2401,-1.2341,-1.2161,-1.1932,-1.1387,-1.1031,-1.084,-1.0544,-1.0544,-1.084,-1.1367,-1.1737,-1.2125,-1.2568,-1.2365,-1.2186,-1.2318,-1.2413,-1.2378,-1.2282,-1.233,-1.1999,-1.1644,-1.1193,-1.0626,-1.0267,-1.0001,-0.9869,-0.9749,-0.9816,-0.9893,-0.9704,-0.9665,-0.9766,-0.9761,-0.9817,-1.0057,-1.0525,-1.0833,-1.0778,-1.081,-1.0937,-1.0576,-1.0208,-1.0239,-1.0316,-0.9636,-0.9022,-0.9171,-0.939,-0.9812,-1.0351,-1.0757,-1.1288,-2.7913,-2.7429,-2.6959,-2.6779,-2.6794,-2.6794,-2.6794,-2.6794,-2.6794,-2.675,-2.6538,-2.5787,-2.5114,-2.4662,-2.3723,-2.3251,-2.3277,-2.2851,-2.2744,-2.2824,-2.2872,-2.2902,-2.2888,-2.2888,-2.2888,-2.2888,-2.2888,-2.2859,-2.2772,-2.2584,-2.1743,-2.048,-2.0524,-1.987,-1.9382,-1.8999,-1.8784,-1.8812,-1.8232,-1.7817,-1.7234,-1.6535,-1.575,-1.5266,-1.504,-1.4763,-1.4065,-1.4227,-1.4019,-1.316,-1.3433,-1.3446,-1.2931,-1.2959,-1.3034,-1.313,-1.314,-1.2941,-1.2695,-1.2341,-1.2075,-1.2004,-1.1895,-1.1808,-1.1852,-1.1276,-1.0964,-1.0878,-1.0572,-1.0495,-1.0764,-1.1132,-1.1579,-1.1906,-1.2268,-1.2304,-1.215,-1.208,-1.2188,-1.227,-1.2294,-1.2258,-1.1928,-1.1469,-1.0987,-1.0418,-0.9886,-0.9597,-0.9587,-0.9502,-0.9607,-0.9638,-0.9429,-0.9441,-0.9716,-0.9793,-0.991,-1.0203,-1.0644,-1.101,-1.1218,-1.1256,-1.1287,-1.1289,-1.1068,-1.1139,-1.1001,-1.031,-0.9727,-0.9338,-0.9386,-0.9809,-1.0609,-1.1401,-1.1599,-2.7997,-2.7464,-2.7276,-2.7063,-2.6794,-2.6794,-2.6794,-2.6794,-2.6779,-2.648,-2.6015,-2.5242,-2.4761,-2.4305,-2.3439,-2.306,-2.3307,-2.2916,-2.2807,-2.2781,-2.2857,-2.2888,-2.2888,-2.2888,-2.2888,-2.2888,-2.2873,-2.2672,-2.2352,-2.2439,-2.1496,-2.0596,-2.0422,-1.9928,-1.9478,-1.9078,-1.8988,-1.8741,-1.8541,-1.8261,-1.7885,-1.7169,-1.6431,-1.5894,-1.5241,-1.4782,-1.4145,-1.4078,-1.3722,-1.3433,-1.3378,-1.3232,-1.3099,-1.3238,-1.3386,-1.3456,-1.3466,-1.3226,-1.2873,-1.2567,-1.2396,-1.1937,-1.1708,-1.1586,-1.1801,-1.1298,-1.1002,-1.084,-1.0649,-1.0495,-1.0954,-1.1255,-1.1516,-1.1748,-1.1918,-1.2098,-1.1968,-1.1816,-1.1743,-1.1763,-1.1957,-1.2102,-1.1644,-1.1182,-1.0673,-1.0167,-0.9657,-0.931,-0.9368,-0.9449,-0.9607,-0.9686,-0.9541,-0.9417,-0.965,-0.9843,-1.0001,-1.0363,-1.0739,-1.1094,-1.1429,-1.1645,-1.1676,-1.1769,-1.1835,-1.1744,-1.1456,-1.0917,-1.0547,-1.0326,-0.9994,-0.9802,-1.0763,-1.189,-1.191,-2.8384,-2.7765,-2.775,-2.7393,-2.6832,-2.6794,-2.6794,-2.6794,-2.6794,-2.6379,-2.5523,-2.4869,-2.4519,-2.4083,-2.3183,-2.3001,-2.3259,-2.3066,-2.2867,-2.2826,-2.2902,-2.2888,-2.2888,-2.2888,-2.2888,-2.2888,-2.2873,-2.2642,-2.2425,-2.212,-2.1409,-2.0814,-2.0509,-1.9957,-1.9377,-1.9078,-1.895,-1.8745,-1.8664,-1.8641,-1.8382,-1.7547,-1.7169,-1.6512,-1.5669,-1.4935,-1.4432,-1.4186,-1.3628,-1.3467,-1.3405,-1.3361,-1.3369,-1.3472,-1.3776,-1.3772,-1.3684,-1.348,-1.3035,-1.2417,-1.215,-1.1577,-1.1437,-1.1474,-1.1522,-1.125,-1.0954,-1.0954,-1.0687,-1.0687,-1.1142,-1.1367,-1.1479,-1.1675,-1.1945,-1.2042,-1.1564,-1.1291,-1.1249,-1.1207,-1.1468,-1.1799,-1.1882,-1.1467,-1.0754,-1.0192,-0.959,-0.9396,-0.9598,-0.9698,-0.9802,-0.9854,-0.9805,-0.9688,-0.9658,-0.9805,-1.0019,-1.0452,-1.0835,-1.1187,-1.1519,-1.1762,-1.2081,-1.2242,-1.2284,-1.2235,-1.2172,-1.206,-1.1784,-1.1454,-1.1071,-1.0678,-1.1052,-1.2035,-1.1907,-2.9227,-2.8336,-2.8288,-2.773,-2.6884,-2.6794,-2.6794,-2.6765,-2.6707,-2.6292,-2.5473,-2.4883,-2.4474,-2.4075,-2.3062,-2.3051,-2.3328,-2.304,-2.2841,-2.2902,-2.2888,-2.2888,-2.2888,-2.2888,-2.2888,-2.2888,-2.2873,-2.2844,-2.2757,-2.2091,-2.1452,-2.0857,-2.0335,-1.9783,-1.9159,-1.9116,-1.9101,-1.9064,-1.9064,-1.9006,-1.8745,-1.782,-1.7504,-1.7013,-1.5692,-1.4848,-1.4647,-1.4025,-1.3531,-1.3429,-1.3821,-1.3664,-1.3178,-1.4013,-1.4316,-1.4141,-1.4117,-1.3736,-1.3055,-1.1748,-1.1193,-1.1109,-1.1115,-1.1191,-1.133,-1.1142,-1.084,-1.0802,-1.0697,-1.0802,-1.1105,-1.133,-1.1404,-1.1586,-1.1808,-1.1669,-1.1164,-1.0902,-1.0895,-1.0916,-1.1169,-1.1483,-1.1846,-1.1791,-1.0993,-1.0279,-0.9585,-0.9476,-0.9759,-0.9788,-0.984,-0.9776,-0.9776,-0.9684,-0.9605,-0.9776,-1.0034,-1.0496,-1.093,-1.1302,-1.1593,-1.1848,-1.2169,-1.2569,-1.2718,-1.2668,-1.3042,-1.3403,-1.2916,-1.2411,-1.2108,-1.1872,-1.2093,-1.2195,-1.2259,-2.9198,-2.8153,-2.8638,-2.8207,-2.7291,-2.6922,-2.6794,-2.6707,-2.6315,-2.5792,-2.5104,-2.4467,-2.3855,-2.3374,-2.3097,-2.2927,-2.3074,-2.3059,-2.2888,-2.2888,-2.2888,-2.2888,-2.2888,-2.2888,-2.2888,-2.2888,-2.2888,-2.2888,-2.2844,-2.196,-2.1365,-2.0814,-1.9986,-1.9377,-1.9159,-1.9116,-1.9101,-1.9101,-1.9116,-1.9087,-1.8962,-1.8079,-1.7377,-1.7164,-1.5634,-1.4816,-1.4627,-1.3898,-1.3497,-1.3442,-1.3919,-1.3705,-1.3472,-1.4273,-1.428,-1.3891,-1.363,-1.2942,-1.2213,-1.1276,-1.0995,-1.0975,-1.0926,-1.0964,-1.1164,-1.0784,-1.0631,-1.0659,-1.0659,-1.0878,-1.1292,-1.1126,-1.1164,-1.1303,-1.1357,-1.1065,-1.0736,-1.0677,-1.0639,-1.0725,-1.0926,-1.1255,-1.1611,-1.2187,-1.1667,-1.0975,-1.0368,-0.986,-0.9935,-0.9786,-0.9698,-0.9619,-0.9567,-0.9526,-0.9579,-0.9828,-1.0046,-1.0422,-1.0963,-1.146,-1.1725,-1.1918,-1.2271,-1.2646,-1.2887,-1.3104,-1.3379,-1.3619,-1.3616,-1.3341,-1.301,-1.2531,-1.2317,-1.2621,-1.3022,-2.8709,-2.8094,-2.8521,-2.8231,-2.75,-2.7152,-2.6974,-2.6759,-2.63,-2.5778,-2.5168,-2.453,-2.392,-2.3412,-2.2989,-2.2888,-2.2888,-2.2888,-2.2888,-2.2888,-2.2888,-2.2888,-2.2888,-2.2888,-2.2888,-2.2888,-2.2888,-2.2888,-2.2815,-2.1627,-2.077,-2.0146,-1.9566,-1.9232,-1.9116,-1.9116,-1.9116,-1.9116,-1.9116,-1.9101,-1.8875,-1.8317,-1.7591,-1.6994,-1.5993,-1.5006,-1.4419,-1.3892,-1.3391,-1.3509,-1.359,-1.3582,-1.3741,-1.3921,-1.3911,-1.347,-1.2794,-1.219,-1.1616,-1.1147,-1.0964,-1.0975,-1.085,-1.0746,-1.0756,-1.0515,-1.0438,-1.0467,-1.0544,-1.0878,-1.118,-1.0985,-1.1023,-1.1164,-1.1002,-1.0708,-1.0564,-1.0534,-1.0582,-1.0669,-1.085,-1.1191,-1.1579,-1.2154,-1.2428,-1.1814,-1.12,-1.0704,-1.0146,-0.9841,-0.9627,-0.9514,-0.9514,-0.9567,-0.9724,-0.9995,-1.021,-1.0409,-1.0926,-1.1505,-1.1775,-1.1967,-1.2356,-1.2706,-1.298,-1.3261,-1.3544,-1.3696,-1.3745,-1.3846,-1.3823,-1.3285,-1.2667,-1.2961,-1.3568,-2.7843,-2.7965,-2.8015,-2.7829,-2.75,-2.7355,-2.7107,-2.6759,-2.6753,-2.6331,-2.5683,-2.5028,-2.4403,-2.3804,-2.3207,-2.2946,-2.2888,-2.2888,-2.2888,-2.2888,-2.2888,-2.2888,-2.2888,-2.2888,-2.2888,-2.2888,-2.2859,-2.2801,-2.27,-2.1452,-2.0277,-1.9508,-1.9246,-1.9116,-1.9116,-1.9116,-1.9116,-1.9116,-1.9116,-1.9116,-1.8948,-1.8382,-1.782,-1.7114,-1.6125,-1.5257,-1.4621,-1.4057,-1.3523,-1.3471,-1.3656,-1.3362,-1.3398,-1.3734,-1.3454,-1.2911,-1.2066,-1.1686,-1.1438,-1.1002,-1.0916,-1.0888,-1.0554,-1.04,-1.039,-1.04,-1.0361,-1.0428,-1.0505,-1.0802,-1.104,-1.1012,-1.0985,-1.0926,-1.084,-1.0659,-1.0505,-1.0505,-1.0592,-1.0708,-1.0926,-1.1303,-1.1847,-1.24,-1.2902,-1.2274,-1.1643,-1.1298,-1.0699,-0.9884,-0.9673,-0.9473,-0.9514,-0.9672,-0.9841,-1.0021,-1.0298,-1.0472,-1.094,-1.1482,-1.1753,-1.2056,-1.242,-1.2781,-1.3105,-1.3396,-1.3671,-1.3841,-1.3927,-1.403,-1.41,-1.3993,-1.3344,-1.3541,-1.4013,-2.7445,-2.7178,-2.8142,-2.8005,-2.7084,-2.675,-2.66,-2.6584,-2.6474,-2.6116,-2.5586,-2.5423,-2.4867,-2.3891,-2.3688,-2.3325,-2.3033,-2.2888,-2.2888,-2.2888,-2.2888,-2.2888,-2.2888,-2.2888,-2.2888,-2.2873,-2.283,-2.2627,-2.2077,-2.1003,-2.0045,-1.9246,-1.9116,-1.9116,-1.9116,-1.9116,-1.9116,-1.9116,-1.9116,-1.9064,-1.8881,-1.8338,-1.7675,-1.6675,-1.5958,-1.5059,-1.4109,-1.3702,-1.3276,-1.3298,-1.3496,-1.3398,-1.3433,-1.3276,-1.2823,-1.1648,-1.1208,-1.1107,-1.105,-1.0954,-1.0878,-1.0802,-1.0505,-1.0544,-1.0544,-1.0467,-1.0322,-1.039,-1.0505,-1.0764,-1.0926,-1.0937,-1.0937,-1.085,-1.0725,-1.0611,-1.0505,-1.0554,-1.0641,-1.0784,-1.104,-1.1553,-1.2102,-1.2859,-1.3187,-1.2565,-1.2097,-1.1757,-1.1243,-1.0404,-0.9829,-0.9631,-0.9581,-0.9751,-0.9775,-0.9905,-1.0248,-1.0594,-1.1001,-1.1392,-1.171,-1.2071,-1.2475,-1.2873,-1.3261,-1.3559,-1.3811,-1.3915,-1.3987,-1.4058,-1.4159,-1.4172,-1.4188,-1.4206,-1.4257,-2.7478,-2.7284,-2.8304,-2.8405,-2.7734,-2.7172,-2.6872,-2.6688,-2.6642,-2.6443,-2.6134,-2.5768,-2.5206,-2.4555,-2.3871,-2.3221,-2.2902,-2.2888,-2.2888,-2.2888,-2.2888,-2.2888,-2.2888,-2.2873,-2.2888,-2.283,-2.2613,-2.2352,-2.1685,-2.0756,-1.9769,-1.9174,-1.9116,-1.9116,-1.9116,-1.9116,-1.9116,-1.9116,-1.9064,-1.9011,-1.8697,-1.8327,-1.7413,-1.6186,-1.5554,-1.4729,-1.3489,-1.3229,-1.316,-1.3035,-1.318,-1.3168,-1.3094,-1.2775,-1.2516,-1.1522,-1.1099,-1.1147,-1.1105,-1.0812,-1.0736,-1.0649,-1.0467,-1.0467,-1.0505,-1.0428,-1.039,-1.039,-1.0544,-1.0659,-1.0784,-1.0871,-1.0822,-1.0812,-1.0697,-1.0572,-1.0582,-1.0631,-1.0746,-1.0899,-1.1303,-1.1811,-1.2461,-1.3207,-1.3399,-1.2692,-1.2292,-1.2176,-1.164,-1.0896,-1.0273,-0.9912,-0.9825,-0.9864,-0.9868,-0.9865,-1.0148,-1.0472,-1.0835,-1.1233,-1.1659,-1.2118,-1.2575,-1.3019,-1.3461,-1.3702,-1.3888,-1.3959,-1.4012,-1.41,-1.4186,-1.4216,-1.4245,-1.427,-1.4338,-2.7608,-2.7608,-2.8271,-2.8512,-2.8738,-2.7933,-2.7288,-2.6855,-2.6987,-2.7072,-2.6734,-2.6106,-2.5619,-2.4984,-2.3996,-2.3316,-2.3067,-2.2978,-2.2888,-2.2888,-2.2888,-2.2888,-2.2873,-2.2844,-2.2642,-2.254,-2.2265,-2.1757,-2.1452,-2.0538,-1.9566,-1.913,-1.9116,-1.9116,-1.9078,-1.9116,-1.9101,-1.9064,-1.8933,-1.8757,-1.865,-1.8484,-1.8067,-1.6291,-1.5752,-1.5397,-1.3796,-1.316,-1.3022,-1.2815,-1.2733,-1.2734,-1.2556,-1.2412,-1.2173,-1.1895,-1.133,-1.1255,-1.118,-1.0916,-1.0611,-1.0495,-1.039,-1.0351,-1.0312,-1.0351,-1.0351,-1.039,-1.0544,-1.0659,-1.0784,-1.0871,-1.0871,-1.0822,-1.0746,-1.0659,-1.0649,-1.0736,-1.0937,-1.1153,-1.1627,-1.2102,-1.2174,-1.2849,-1.3138,-1.2591,-1.246,-1.243,-1.2085,-1.1426,-1.086,-1.0327,-1.0128,-1.0044,-0.9976,-1.0002,-1.0059,-1.0348,-1.0691,-1.1173,-1.1666,-1.2184,-1.2692,-1.3124,-1.3526,-1.3733,-1.39,-1.3987,-1.4072,-1.4141,-1.4208,-1.4273,-1.4293,-1.4295,-1.4444,-2.6944,-2.6895,-2.6539,-2.6703,-2.7154,-2.6494,-2.6149,-2.5972,-2.6583,-2.6414,-2.5883,-2.6174,-2.5891,-2.4897,-2.4343,-2.3763,-2.3408,-2.3023,-2.2933,-2.2888,-2.2888,-2.2815,-2.2788,-2.2542,-2.2294,-2.2004,-2.1598,-2.1017,-2.0538,-1.9827,-1.9319,-1.913,-1.9116,-1.9078,-1.9055,-1.9078,-1.9064,-1.9026,-1.8571,-1.8441,-1.8397,-1.8042,-1.7505,-1.6178,-1.5535,-1.4946,-1.3664,-1.2896,-1.2803,-1.2709,-1.2709,-1.2567,-1.233,-1.2174,-1.1993,-1.1737,-1.1505,-1.1442,-1.1292,-1.1029,-1.0753,-1.0687,-1.0611,-1.0302,-1.0186,-1.0235,-1.0312,-1.038,-1.0544,-1.0659,-1.0784,-1.0833,-1.0881,-1.0833,-1.0794,-1.0736,-1.0677,-1.0878,-1.1078,-1.1479,-1.1945,-1.209,-1.2138,-1.2318,-1.2532,-1.2638,-1.2685,-1.2671,-1.2506,-1.2043,-1.1506,-1.0958,-1.0415,-1.0249,-1.0095,-0.9997,-0.9994,-1.0223,-1.057,-1.1089,-1.1673,-1.2349,-1.2965,-1.3244,-1.3575,-1.3778,-1.3959,-1.4076,-1.4145,-1.4168,-1.4136,-1.4163,-1.425,-1.4282,-1.4489,-2.6976,-2.6701,-2.6604,-2.6782,-2.7025,-2.6701,-2.6377,-2.6199,-2.6539,-2.6062,-2.5269,-2.5968,-2.5998,-2.4979,-2.4534,-2.4073,-2.3538,-2.3098,-2.2933,-2.2888,-2.2815,-2.2656,-2.2468,-2.2235,-2.1886,-2.158,-2.0942,-2.0291,-1.9725,-1.9406,-1.9145,-1.9116,-1.9116,-1.9078,-1.9055,-1.9078,-1.9078,-1.9011,-1.8252,-1.7963,-1.8064,-1.7956,-1.6965,-1.5719,-1.5101,-1.4534,-1.3526,-1.2745,-1.2709,-1.2709,-1.2709,-1.2567,-1.2449,-1.2365,-1.2246,-1.1993,-1.1737,-1.1516,-1.1404,-1.1169,-1.0819,-1.0764,-1.0697,-1.0361,-1.0011,-1.0011,-0.9914,-1.0031,-1.0582,-1.0746,-1.0833,-1.0881,-1.0881,-1.0881,-1.0822,-1.0812,-1.0885,-1.1052,-1.1234,-1.1479,-1.1884,-1.2174,-1.2246,-1.2496,-1.2638,-1.2544,-1.2662,-1.2768,-1.2638,-1.2483,-1.2003,-1.1499,-1.0882,-1.0233,-0.9858,-0.9807,-0.9839,-1.0097,-1.0483,-1.1075,-1.1766,-1.2597,-1.3244,-1.3395,-1.3605,-1.3865,-1.4012,-1.409,-1.4086,-1.4064,-1.405,-1.4037,-1.4141,-1.4288,-1.4416,-2.7138,-2.6685,-2.7138,-2.7397,-2.7429,-2.7397,-2.7025,-2.6571,-2.6539,-2.5988,-2.5211,-2.5719,-2.5885,-2.5254,-2.4383,-2.3887,-2.3436,-2.3098,-2.2933,-2.2844,-2.2743,-2.2527,-2.2221,-2.1982,-2.1342,-2.0764,-2.0175,-1.9711,-1.9232,-1.9116,-1.9116,-1.9116,-1.9116,-1.9116,-1.9116,-1.9116,-1.9064,-1.8759,-1.8194,-1.7638,-1.7754,-1.797,-1.65,-1.5569,-1.5076,-1.4637,-1.3394,-1.2709,-1.2709,-1.2709,-1.2709,-1.2639,-1.2591,-1.2591,-1.2591,-1.2401,-1.1957,-1.1799,-1.1616,-1.1094,-1.0791,-1.0572,-1.0554,-1.0351,-1.0001,-0.9836,-0.9739,-0.9865,-1.0418,-1.0746,-1.0794,-1.0881,-1.0881,-1.0909,-1.086,-1.0926,-1.1062,-1.1254,-1.1446,-1.1601,-1.1811,-1.2138,-1.2318,-1.2567,-1.2579,-1.2473,-1.252,-1.2627,-1.2649,-1.2421,-1.2109,-1.164,-1.1111,-1.0479,-0.9852,-0.9721,-0.9802,-1.0235,-1.0664,-1.1199,-1.1822,-1.2695,-1.3261,-1.3412,-1.362,-1.3865,-1.3938,-1.3966,-1.3963,-1.4005,-1.4037,-1.405,-1.4145,-1.425,-1.4306,-2.6458,-2.5843,-2.5972,-2.6037,-2.5999,-2.6037,-2.5885,-2.5843,-2.5826,-2.5637,-2.548,-2.5474,-2.5353,-2.4596,-2.4,-2.3638,-2.3638,-2.3143,-2.2904,-2.2859,-2.2527,-2.2222,-2.177,-2.1145,-2.025,-1.9764,-1.9546,-1.9275,-1.9116,-1.9116,-1.9116,-1.9116,-1.9116,-1.9078,-1.9055,-1.904,-1.902,-1.8687,-1.7956,-1.7271,-1.7014,-1.686,-1.6222,-1.5559,-1.5154,-1.4205,-1.325,-1.2769,-1.2709,-1.2709,-1.2745,-1.2745,-1.2733,-1.2697,-1.2685,-1.2579,-1.2174,-1.1945,-1.1653,-1.1207,-1.0916,-1.0878,-1.0774,-1.04,-1.0176,-1.005,-0.9923,-0.9728,-1.0147,-1.0428,-1.0592,-1.0805,-1.0891,-1.0947,-1.0926,-1.1142,-1.1345,-1.1579,-1.1844,-1.1833,-1.1884,-1.2066,-1.2138,-1.2282,-1.233,-1.2294,-1.2401,-1.252,-1.2615,-1.2421,-1.2191,-1.1724,-1.1267,-1.081,-1.0245,-0.9911,-0.9944,-1.0396,-1.0889,-1.149,-1.2112,-1.2806,-1.3244,-1.3428,-1.362,-1.3836,-1.388,-1.3934,-1.398,-1.4023,-1.4068,-1.4109,-1.4177,-1.4185,-1.4172]}]]